<?xml version="1.0" encoding="UTF-8" standalone="no" ?>
<gpx xmlns="http://www.topografix.com/GPX/1/1" xmlns:xsi="http://www.w3.org/2001/XMLSchema-instance" xsi:schemaLocation="http://www.topografix.com/GPX/1/1 http://www.topografix.com/GPX/1/1/gpx.xsd" version="1.1" creator="VisuGPX - https://www.visugpx.com">
  <metadata>
    <name>2017-11-19 Bike ride VTT-Amberieux-Saone O</name>
    <desc><![CDATA[2017-11-19 Bike ride VTT-Amberieux-Saone O]]></desc>
  </metadata>
  <wpt lat="45.92458" lon="4.73709">
    <ele>174</ele>
    <name><![CDATA[2017-11-19 11:06 (Start)]]></name>
  </wpt>
  <wpt lat="45.92459" lon="4.73714">
    <ele>174</ele>
    <name><![CDATA[2017-11-19 11:06 (End)]]></name>
    <desc><![CDATA[Created by Google My Tracks on Android  Name: 2017-11-19 11:06 Activity type: biking Description: - Total distance: 15.75 km (9.8 mi) Total time: 1:12:58 Moving time: 1:02:08 Average speed: 12.95 km/h (8.0 mi/h) Average moving speed: 15.20 km/h (9.4 mi/h) Max speed: 29.12 km/h (18.1 mi/h) Average pace: 4:38 min/km (7:27 min/mi) Average moving pace: 3:57 min/km (6:21 min/mi) Fastest pace: 2:04 min/km (3:19 min/mi) Max elevation: 234 m (768 ft) Min elevation: 210 m (689 ft) Elevation gain: 145 m (475 ft) Max grade: 8 % Min grade: -6 % Recorded: 19/11/2017 11:06]]></desc>
  </wpt>
  <trk>
    <name><![CDATA[2017-11-19 11:06]]></name>
    <trkseg>
      <trkpt lat="45.92458" lon="4.73709">
        <ele>174</ele>
        <time>2017-11-19T10:06:54.665Z</time>
      </trkpt>
      <trkpt lat="45.92466" lon="4.73706">
        <ele>174</ele>
        <time>2017-11-19T10:07:22Z</time>
      </trkpt>
      <trkpt lat="45.92466" lon="4.73703">
        <ele>174</ele>
        <time>2017-11-19T10:07:23Z</time>
      </trkpt>
      <trkpt lat="45.92468" lon="4.73692">
        <ele>174</ele>
        <time>2017-11-19T10:07:26Z</time>
      </trkpt>
      <trkpt lat="45.92469" lon="4.73687">
        <ele>174</ele>
        <time>2017-11-19T10:07:27Z</time>
      </trkpt>
      <trkpt lat="45.92468" lon="4.73675">
        <ele>174</ele>
        <time>2017-11-19T10:07:30Z</time>
      </trkpt>
      <trkpt lat="45.92467" lon="4.73672">
        <ele>174</ele>
        <time>2017-11-19T10:07:31Z</time>
      </trkpt>
      <trkpt lat="45.92468" lon="4.73662">
        <ele>174</ele>
        <time>2017-11-19T10:07:34Z</time>
      </trkpt>
      <trkpt lat="45.92468" lon="4.73658">
        <ele>174</ele>
        <time>2017-11-19T10:07:35Z</time>
      </trkpt>
      <trkpt lat="45.92472" lon="4.73647">
        <ele>174</ele>
        <time>2017-11-19T10:07:38Z</time>
      </trkpt>
      <trkpt lat="45.92474" lon="4.73644">
        <ele>174</ele>
        <time>2017-11-19T10:07:39Z</time>
      </trkpt>
      <trkpt lat="45.92481" lon="4.73642">
        <ele>174</ele>
        <time>2017-11-19T10:07:41Z</time>
      </trkpt>
      <trkpt lat="45.92485" lon="4.73642">
        <ele>174</ele>
        <time>2017-11-19T10:07:42Z</time>
      </trkpt>
      <trkpt lat="45.92494" lon="4.73643">
        <ele>174</ele>
        <time>2017-11-19T10:07:44Z</time>
      </trkpt>
      <trkpt lat="45.92498" lon="4.73642">
        <ele>174</ele>
        <time>2017-11-19T10:07:45Z</time>
      </trkpt>
      <trkpt lat="45.92507" lon="4.73642">
        <ele>174</ele>
        <time>2017-11-19T10:07:47Z</time>
      </trkpt>
      <trkpt lat="45.9251" lon="4.73642">
        <ele>174</ele>
        <time>2017-11-19T10:07:48Z</time>
      </trkpt>
      <trkpt lat="45.92518" lon="4.7364">
        <ele>173</ele>
        <time>2017-11-19T10:07:50Z</time>
      </trkpt>
      <trkpt lat="45.92523" lon="4.73641">
        <ele>173</ele>
        <time>2017-11-19T10:07:51Z</time>
      </trkpt>
      <trkpt lat="45.92529" lon="4.73643">
        <ele>173</ele>
        <time>2017-11-19T10:07:52Z</time>
      </trkpt>
      <trkpt lat="45.92533" lon="4.73642">
        <ele>173</ele>
        <time>2017-11-19T10:07:53Z</time>
      </trkpt>
      <trkpt lat="45.92538" lon="4.73641">
        <ele>173</ele>
        <time>2017-11-19T10:07:54Z</time>
      </trkpt>
      <trkpt lat="45.92542" lon="4.73639">
        <ele>173</ele>
        <time>2017-11-19T10:07:55Z</time>
      </trkpt>
      <trkpt lat="45.9255" lon="4.73635">
        <ele>173</ele>
        <time>2017-11-19T10:07:57Z</time>
      </trkpt>
      <trkpt lat="45.92554" lon="4.73634">
        <ele>173</ele>
        <time>2017-11-19T10:07:58Z</time>
      </trkpt>
      <trkpt lat="45.92562" lon="4.73632">
        <ele>173</ele>
        <time>2017-11-19T10:08:00Z</time>
      </trkpt>
      <trkpt lat="45.92566" lon="4.73631">
        <ele>173</ele>
        <time>2017-11-19T10:08:01Z</time>
      </trkpt>
      <trkpt lat="45.92574" lon="4.73628">
        <ele>173</ele>
        <time>2017-11-19T10:08:03Z</time>
      </trkpt>
      <trkpt lat="45.92577" lon="4.73628">
        <ele>173</ele>
        <time>2017-11-19T10:08:04Z</time>
      </trkpt>
      <trkpt lat="45.92585" lon="4.73626">
        <ele>172</ele>
        <time>2017-11-19T10:08:06Z</time>
      </trkpt>
      <trkpt lat="45.92594" lon="4.73626">
        <ele>172</ele>
        <time>2017-11-19T10:08:07Z</time>
      </trkpt>
      <trkpt lat="45.92599" lon="4.73626">
        <ele>173</ele>
        <time>2017-11-19T10:08:08Z</time>
      </trkpt>
      <trkpt lat="45.92604" lon="4.73627">
        <ele>173</ele>
        <time>2017-11-19T10:08:09Z</time>
      </trkpt>
      <trkpt lat="45.9261" lon="4.73628">
        <ele>173</ele>
        <time>2017-11-19T10:08:10Z</time>
      </trkpt>
      <trkpt lat="45.92613" lon="4.7363">
        <ele>173</ele>
        <time>2017-11-19T10:08:11Z</time>
      </trkpt>
      <trkpt lat="45.92618" lon="4.73634">
        <ele>173</ele>
        <time>2017-11-19T10:08:12Z</time>
      </trkpt>
      <trkpt lat="45.92621" lon="4.73637">
        <ele>173</ele>
        <time>2017-11-19T10:08:13Z</time>
      </trkpt>
      <trkpt lat="45.92625" lon="4.73646">
        <ele>173</ele>
        <time>2017-11-19T10:08:15Z</time>
      </trkpt>
      <trkpt lat="45.92627" lon="4.73651">
        <ele>173</ele>
        <time>2017-11-19T10:08:16Z</time>
      </trkpt>
      <trkpt lat="45.92629" lon="4.73661">
        <ele>173</ele>
        <time>2017-11-19T10:08:18Z</time>
      </trkpt>
      <trkpt lat="45.92632" lon="4.73665">
        <ele>173</ele>
        <time>2017-11-19T10:08:19Z</time>
      </trkpt>
      <trkpt lat="45.92637" lon="4.73676">
        <ele>173</ele>
        <time>2017-11-19T10:08:21Z</time>
      </trkpt>
      <trkpt lat="45.92641" lon="4.7368">
        <ele>173</ele>
        <time>2017-11-19T10:08:22Z</time>
      </trkpt>
      <trkpt lat="45.92644" lon="4.73685">
        <ele>173</ele>
        <time>2017-11-19T10:08:23Z</time>
      </trkpt>
      <trkpt lat="45.92647" lon="4.73689">
        <ele>173</ele>
        <time>2017-11-19T10:08:24Z</time>
      </trkpt>
      <trkpt lat="45.92652" lon="4.73693">
        <ele>173</ele>
        <time>2017-11-19T10:08:25Z</time>
      </trkpt>
      <trkpt lat="45.92656" lon="4.73696">
        <ele>173</ele>
        <time>2017-11-19T10:08:26Z</time>
      </trkpt>
      <trkpt lat="45.9266" lon="4.73699">
        <ele>173</ele>
        <time>2017-11-19T10:08:27Z</time>
      </trkpt>
      <trkpt lat="45.92665" lon="4.73701">
        <ele>173</ele>
        <time>2017-11-19T10:08:28Z</time>
      </trkpt>
      <trkpt lat="45.9267" lon="4.73704">
        <ele>174</ele>
        <time>2017-11-19T10:08:29Z</time>
      </trkpt>
      <trkpt lat="45.92675" lon="4.73705">
        <ele>174</ele>
        <time>2017-11-19T10:08:30Z</time>
      </trkpt>
      <trkpt lat="45.9268" lon="4.73707">
        <ele>173</ele>
        <time>2017-11-19T10:08:31Z</time>
      </trkpt>
      <trkpt lat="45.92686" lon="4.73709">
        <ele>173</ele>
        <time>2017-11-19T10:08:32Z</time>
      </trkpt>
      <trkpt lat="45.92691" lon="4.7371">
        <ele>173</ele>
        <time>2017-11-19T10:08:33Z</time>
      </trkpt>
      <trkpt lat="45.92696" lon="4.73711">
        <ele>173</ele>
        <time>2017-11-19T10:08:34Z</time>
      </trkpt>
      <trkpt lat="45.92701" lon="4.73712">
        <ele>173</ele>
        <time>2017-11-19T10:08:35Z</time>
      </trkpt>
      <trkpt lat="45.92706" lon="4.73711">
        <ele>173</ele>
        <time>2017-11-19T10:08:36Z</time>
      </trkpt>
      <trkpt lat="45.92711" lon="4.73713">
        <ele>173</ele>
        <time>2017-11-19T10:08:37Z</time>
      </trkpt>
      <trkpt lat="45.92716" lon="4.73715">
        <ele>173</ele>
        <time>2017-11-19T10:08:38Z</time>
      </trkpt>
      <trkpt lat="45.9272" lon="4.73716">
        <ele>173</ele>
        <time>2017-11-19T10:08:39Z</time>
      </trkpt>
      <trkpt lat="45.92725" lon="4.73717">
        <ele>173</ele>
        <time>2017-11-19T10:08:40Z</time>
      </trkpt>
      <trkpt lat="45.9273" lon="4.73718">
        <ele>173</ele>
        <time>2017-11-19T10:08:41Z</time>
      </trkpt>
      <trkpt lat="45.92734" lon="4.7372">
        <ele>173</ele>
        <time>2017-11-19T10:08:42Z</time>
      </trkpt>
      <trkpt lat="45.92743" lon="4.73721">
        <ele>173</ele>
        <time>2017-11-19T10:08:44Z</time>
      </trkpt>
      <trkpt lat="45.92747" lon="4.7372">
        <ele>173</ele>
        <time>2017-11-19T10:08:45Z</time>
      </trkpt>
      <trkpt lat="45.92754" lon="4.73722">
        <ele>172</ele>
        <time>2017-11-19T10:08:47Z</time>
      </trkpt>
      <trkpt lat="45.92758" lon="4.73723">
        <ele>172</ele>
        <time>2017-11-19T10:08:48Z</time>
      </trkpt>
      <trkpt lat="45.92765" lon="4.73726">
        <ele>172</ele>
        <time>2017-11-19T10:08:50Z</time>
      </trkpt>
      <trkpt lat="45.92768" lon="4.73726">
        <ele>172</ele>
        <time>2017-11-19T10:08:51Z</time>
      </trkpt>
      <trkpt lat="45.92775" lon="4.73734">
        <ele>172</ele>
        <time>2017-11-19T10:08:54Z</time>
      </trkpt>
      <trkpt lat="45.92776" lon="4.73739">
        <ele>172</ele>
        <time>2017-11-19T10:08:55Z</time>
      </trkpt>
      <trkpt lat="45.9278" lon="4.73747">
        <ele>172</ele>
        <time>2017-11-19T10:08:57Z</time>
      </trkpt>
      <trkpt lat="45.92783" lon="4.73751">
        <ele>173</ele>
        <time>2017-11-19T10:08:58Z</time>
      </trkpt>
      <trkpt lat="45.92786" lon="4.73754">
        <ele>173</ele>
        <time>2017-11-19T10:08:59Z</time>
      </trkpt>
      <trkpt lat="45.92792" lon="4.73756">
        <ele>173</ele>
        <time>2017-11-19T10:09:00Z</time>
      </trkpt>
      <trkpt lat="45.92801" lon="4.73761">
        <ele>173</ele>
        <time>2017-11-19T10:09:02Z</time>
      </trkpt>
      <trkpt lat="45.92804" lon="4.73763">
        <ele>173</ele>
        <time>2017-11-19T10:09:03Z</time>
      </trkpt>
      <trkpt lat="45.92812" lon="4.73769">
        <ele>173</ele>
        <time>2017-11-19T10:09:05Z</time>
      </trkpt>
      <trkpt lat="45.92815" lon="4.73772">
        <ele>173</ele>
        <time>2017-11-19T10:09:06Z</time>
      </trkpt>
      <trkpt lat="45.9282" lon="4.73775">
        <ele>173</ele>
        <time>2017-11-19T10:09:07Z</time>
      </trkpt>
      <trkpt lat="45.92824" lon="4.73777">
        <ele>173</ele>
        <time>2017-11-19T10:09:08Z</time>
      </trkpt>
      <trkpt lat="45.92832" lon="4.73782">
        <ele>173</ele>
        <time>2017-11-19T10:09:10Z</time>
      </trkpt>
      <trkpt lat="45.92837" lon="4.73786">
        <ele>173</ele>
        <time>2017-11-19T10:09:11Z</time>
      </trkpt>
      <trkpt lat="45.92841" lon="4.73789">
        <ele>173</ele>
        <time>2017-11-19T10:09:12Z</time>
      </trkpt>
      <trkpt lat="45.92846" lon="4.73793">
        <ele>173</ele>
        <time>2017-11-19T10:09:13Z</time>
      </trkpt>
      <trkpt lat="45.92849" lon="4.73798">
        <ele>173</ele>
        <time>2017-11-19T10:09:14Z</time>
      </trkpt>
      <trkpt lat="45.92853" lon="4.73804">
        <ele>173</ele>
        <time>2017-11-19T10:09:15Z</time>
      </trkpt>
      <trkpt lat="45.92856" lon="4.73815">
        <ele>173</ele>
        <time>2017-11-19T10:09:17Z</time>
      </trkpt>
      <trkpt lat="45.92858" lon="4.73823">
        <ele>173</ele>
        <time>2017-11-19T10:09:18Z</time>
      </trkpt>
      <trkpt lat="45.9286" lon="4.7383">
        <ele>173</ele>
        <time>2017-11-19T10:09:19Z</time>
      </trkpt>
      <trkpt lat="45.92863" lon="4.73838">
        <ele>173</ele>
        <time>2017-11-19T10:09:20Z</time>
      </trkpt>
      <trkpt lat="45.92865" lon="4.73844">
        <ele>173</ele>
        <time>2017-11-19T10:09:21Z</time>
      </trkpt>
      <trkpt lat="45.92867" lon="4.73851">
        <ele>173</ele>
        <time>2017-11-19T10:09:22Z</time>
      </trkpt>
      <trkpt lat="45.92869" lon="4.73859">
        <ele>173</ele>
        <time>2017-11-19T10:09:23Z</time>
      </trkpt>
      <trkpt lat="45.92875" lon="4.73864">
        <ele>173</ele>
        <time>2017-11-19T10:09:24Z</time>
      </trkpt>
      <trkpt lat="45.92877" lon="4.7387">
        <ele>173</ele>
        <time>2017-11-19T10:09:25Z</time>
      </trkpt>
      <trkpt lat="45.92877" lon="4.73878">
        <ele>173</ele>
        <time>2017-11-19T10:09:26Z</time>
      </trkpt>
      <trkpt lat="45.92879" lon="4.73885">
        <ele>173</ele>
        <time>2017-11-19T10:09:27Z</time>
      </trkpt>
      <trkpt lat="45.92879" lon="4.73893">
        <ele>173</ele>
        <time>2017-11-19T10:09:28Z</time>
      </trkpt>
      <trkpt lat="45.92879" lon="4.73901">
        <ele>173</ele>
        <time>2017-11-19T10:09:29Z</time>
      </trkpt>
      <trkpt lat="45.92879" lon="4.7391">
        <ele>173</ele>
        <time>2017-11-19T10:09:30Z</time>
      </trkpt>
      <trkpt lat="45.92878" lon="4.73917">
        <ele>172</ele>
        <time>2017-11-19T10:09:31Z</time>
      </trkpt>
      <trkpt lat="45.92879" lon="4.73924">
        <ele>172</ele>
        <time>2017-11-19T10:09:32Z</time>
      </trkpt>
      <trkpt lat="45.92879" lon="4.73932">
        <ele>172</ele>
        <time>2017-11-19T10:09:33Z</time>
      </trkpt>
      <trkpt lat="45.9288" lon="4.73939">
        <ele>172</ele>
        <time>2017-11-19T10:09:34Z</time>
      </trkpt>
      <trkpt lat="45.9288" lon="4.73946">
        <ele>172</ele>
        <time>2017-11-19T10:09:35Z</time>
      </trkpt>
      <trkpt lat="45.9288" lon="4.73952">
        <ele>172</ele>
        <time>2017-11-19T10:09:36Z</time>
      </trkpt>
      <trkpt lat="45.92881" lon="4.73959">
        <ele>172</ele>
        <time>2017-11-19T10:09:37Z</time>
      </trkpt>
      <trkpt lat="45.92879" lon="4.73969">
        <ele>172</ele>
        <time>2017-11-19T10:09:38Z</time>
      </trkpt>
      <trkpt lat="45.92879" lon="4.73976">
        <ele>172</ele>
        <time>2017-11-19T10:09:39Z</time>
      </trkpt>
      <trkpt lat="45.92878" lon="4.73983">
        <ele>172</ele>
        <time>2017-11-19T10:09:40Z</time>
      </trkpt>
      <trkpt lat="45.92875" lon="4.73994">
        <ele>173</ele>
        <time>2017-11-19T10:09:42Z</time>
      </trkpt>
      <trkpt lat="45.92874" lon="4.74001">
        <ele>172</ele>
        <time>2017-11-19T10:09:43Z</time>
      </trkpt>
      <trkpt lat="45.92874" lon="4.74007">
        <ele>172</ele>
        <time>2017-11-19T10:09:44Z</time>
      </trkpt>
      <trkpt lat="45.92873" lon="4.74014">
        <ele>172</ele>
        <time>2017-11-19T10:09:45Z</time>
      </trkpt>
      <trkpt lat="45.92873" lon="4.74022">
        <ele>172</ele>
        <time>2017-11-19T10:09:46Z</time>
      </trkpt>
      <trkpt lat="45.92875" lon="4.7403">
        <ele>172</ele>
        <time>2017-11-19T10:09:47Z</time>
      </trkpt>
      <trkpt lat="45.92877" lon="4.74037">
        <ele>172</ele>
        <time>2017-11-19T10:09:48Z</time>
      </trkpt>
      <trkpt lat="45.9288" lon="4.74042">
        <ele>172</ele>
        <time>2017-11-19T10:09:49Z</time>
      </trkpt>
      <trkpt lat="45.92885" lon="4.74046">
        <ele>172</ele>
        <time>2017-11-19T10:09:50Z</time>
      </trkpt>
      <trkpt lat="45.9289" lon="4.74049">
        <ele>172</ele>
        <time>2017-11-19T10:09:51Z</time>
      </trkpt>
      <trkpt lat="45.92895" lon="4.74052">
        <ele>172</ele>
        <time>2017-11-19T10:09:52Z</time>
      </trkpt>
      <trkpt lat="45.92899" lon="4.74055">
        <ele>172</ele>
        <time>2017-11-19T10:09:53Z</time>
      </trkpt>
      <trkpt lat="45.92906" lon="4.74063">
        <ele>172</ele>
        <time>2017-11-19T10:09:55Z</time>
      </trkpt>
      <trkpt lat="45.92908" lon="4.74068">
        <ele>173</ele>
        <time>2017-11-19T10:09:56Z</time>
      </trkpt>
      <trkpt lat="45.9291" lon="4.7408">
        <ele>173</ele>
        <time>2017-11-19T10:09:58Z</time>
      </trkpt>
      <trkpt lat="45.9291" lon="4.74086">
        <ele>173</ele>
        <time>2017-11-19T10:09:59Z</time>
      </trkpt>
      <trkpt lat="45.92905" lon="4.74095">
        <ele>172</ele>
        <time>2017-11-19T10:10:01Z</time>
      </trkpt>
      <trkpt lat="45.92904" lon="4.74098">
        <ele>172</ele>
        <time>2017-11-19T10:10:02Z</time>
      </trkpt>
      <trkpt lat="45.92898" lon="4.74106">
        <ele>172</ele>
        <time>2017-11-19T10:10:04Z</time>
      </trkpt>
      <trkpt lat="45.92895" lon="4.74109">
        <ele>172</ele>
        <time>2017-11-19T10:10:05Z</time>
      </trkpt>
      <trkpt lat="45.9289" lon="4.74116">
        <ele>172</ele>
        <time>2017-11-19T10:10:07Z</time>
      </trkpt>
      <trkpt lat="45.92887" lon="4.74118">
        <ele>172</ele>
        <time>2017-11-19T10:10:08Z</time>
      </trkpt>
      <trkpt lat="45.92882" lon="4.74127">
        <ele>172</ele>
        <time>2017-11-19T10:10:11Z</time>
      </trkpt>
      <trkpt lat="45.92881" lon="4.74131">
        <ele>172</ele>
        <time>2017-11-19T10:10:12Z</time>
      </trkpt>
      <trkpt lat="45.9288" lon="4.7414">
        <ele>172</ele>
        <time>2017-11-19T10:10:14Z</time>
      </trkpt>
      <trkpt lat="45.9288" lon="4.74145">
        <ele>172</ele>
        <time>2017-11-19T10:10:15Z</time>
      </trkpt>
      <trkpt lat="45.92882" lon="4.74154">
        <ele>172</ele>
        <time>2017-11-19T10:10:17Z</time>
      </trkpt>
      <trkpt lat="45.92884" lon="4.74158">
        <ele>172</ele>
        <time>2017-11-19T10:10:18Z</time>
      </trkpt>
      <trkpt lat="45.92888" lon="4.74166">
        <ele>172</ele>
        <time>2017-11-19T10:10:20Z</time>
      </trkpt>
      <trkpt lat="45.9289" lon="4.74169">
        <ele>171</ele>
        <time>2017-11-19T10:10:21Z</time>
      </trkpt>
      <trkpt lat="45.92895" lon="4.74175">
        <ele>171</ele>
        <time>2017-11-19T10:10:23Z</time>
      </trkpt>
      <trkpt lat="45.92899" lon="4.74178">
        <ele>172</ele>
        <time>2017-11-19T10:10:24Z</time>
      </trkpt>
      <trkpt lat="45.92906" lon="4.74184">
        <ele>172</ele>
        <time>2017-11-19T10:10:26Z</time>
      </trkpt>
      <trkpt lat="45.92912" lon="4.74186">
        <ele>172</ele>
        <time>2017-11-19T10:10:27Z</time>
      </trkpt>
      <trkpt lat="45.92916" lon="4.74188">
        <ele>171</ele>
        <time>2017-11-19T10:10:28Z</time>
      </trkpt>
      <trkpt lat="45.9292" lon="4.7419">
        <ele>171</ele>
        <time>2017-11-19T10:10:29Z</time>
      </trkpt>
      <trkpt lat="45.92928" lon="4.74194">
        <ele>170</ele>
        <time>2017-11-19T10:10:31Z</time>
      </trkpt>
      <trkpt lat="45.92931" lon="4.74196">
        <ele>170</ele>
        <time>2017-11-19T10:10:32Z</time>
      </trkpt>
      <trkpt lat="45.92937" lon="4.742">
        <ele>170</ele>
        <time>2017-11-19T10:10:34Z</time>
      </trkpt>
      <trkpt lat="45.92941" lon="4.74202">
        <ele>170</ele>
        <time>2017-11-19T10:10:35Z</time>
      </trkpt>
      <trkpt lat="45.92947" lon="4.74206">
        <ele>170</ele>
        <time>2017-11-19T10:10:37Z</time>
      </trkpt>
      <trkpt lat="45.9295" lon="4.74206">
        <ele>170</ele>
        <time>2017-11-19T10:10:38Z</time>
      </trkpt>
      <trkpt lat="45.92957" lon="4.74205">
        <ele>170</ele>
        <time>2017-11-19T10:10:40Z</time>
      </trkpt>
      <trkpt lat="45.92961" lon="4.74204">
        <ele>170</ele>
        <time>2017-11-19T10:10:41Z</time>
      </trkpt>
      <trkpt lat="45.92968" lon="4.74199">
        <ele>170</ele>
        <time>2017-11-19T10:10:43Z</time>
      </trkpt>
      <trkpt lat="45.92971" lon="4.74195">
        <ele>170</ele>
        <time>2017-11-19T10:10:44Z</time>
      </trkpt>
      <trkpt lat="45.92974" lon="4.74188">
        <ele>170</ele>
        <time>2017-11-19T10:10:45Z</time>
      </trkpt>
      <trkpt lat="45.92976" lon="4.74182">
        <ele>170</ele>
        <time>2017-11-19T10:10:46Z</time>
      </trkpt>
      <trkpt lat="45.92978" lon="4.74176">
        <ele>170</ele>
        <time>2017-11-19T10:10:47Z</time>
      </trkpt>
      <trkpt lat="45.9298" lon="4.74169">
        <ele>170</ele>
        <time>2017-11-19T10:10:48Z</time>
      </trkpt>
      <trkpt lat="45.92982" lon="4.74162">
        <ele>170</ele>
        <time>2017-11-19T10:10:49Z</time>
      </trkpt>
      <trkpt lat="45.92984" lon="4.74153">
        <ele>170</ele>
        <time>2017-11-19T10:10:50Z</time>
      </trkpt>
      <trkpt lat="45.92987" lon="4.74146">
        <ele>170</ele>
        <time>2017-11-19T10:10:51Z</time>
      </trkpt>
      <trkpt lat="45.92991" lon="4.74137">
        <ele>171</ele>
        <time>2017-11-19T10:10:52Z</time>
      </trkpt>
      <trkpt lat="45.92993" lon="4.74128">
        <ele>171</ele>
        <time>2017-11-19T10:10:53Z</time>
      </trkpt>
      <trkpt lat="45.92995" lon="4.74119">
        <ele>171</ele>
        <time>2017-11-19T10:10:54Z</time>
      </trkpt>
      <trkpt lat="45.92997" lon="4.74109">
        <ele>171</ele>
        <time>2017-11-19T10:10:55Z</time>
      </trkpt>
      <trkpt lat="45.92999" lon="4.741">
        <ele>171</ele>
        <time>2017-11-19T10:10:56Z</time>
      </trkpt>
      <trkpt lat="45.92999" lon="4.74089">
        <ele>171</ele>
        <time>2017-11-19T10:10:57Z</time>
      </trkpt>
      <trkpt lat="45.93" lon="4.74079">
        <ele>171</ele>
        <time>2017-11-19T10:10:58Z</time>
      </trkpt>
      <trkpt lat="45.93" lon="4.74066">
        <ele>171</ele>
        <time>2017-11-19T10:10:59Z</time>
      </trkpt>
      <trkpt lat="45.93" lon="4.74056">
        <ele>171</ele>
        <time>2017-11-19T10:11:00Z</time>
      </trkpt>
      <trkpt lat="45.93" lon="4.74046">
        <ele>171</ele>
        <time>2017-11-19T10:11:01Z</time>
      </trkpt>
      <trkpt lat="45.93" lon="4.74036">
        <ele>171</ele>
        <time>2017-11-19T10:11:02Z</time>
      </trkpt>
      <trkpt lat="45.93001" lon="4.74028">
        <ele>170</ele>
        <time>2017-11-19T10:11:03Z</time>
      </trkpt>
      <trkpt lat="45.93003" lon="4.7402">
        <ele>170</ele>
        <time>2017-11-19T10:11:04Z</time>
      </trkpt>
      <trkpt lat="45.93006" lon="4.74013">
        <ele>170</ele>
        <time>2017-11-19T10:11:05Z</time>
      </trkpt>
      <trkpt lat="45.93009" lon="4.74006">
        <ele>170</ele>
        <time>2017-11-19T10:11:06Z</time>
      </trkpt>
      <trkpt lat="45.93014" lon="4.74001">
        <ele>170</ele>
        <time>2017-11-19T10:11:07Z</time>
      </trkpt>
      <trkpt lat="45.93019" lon="4.73999">
        <ele>169</ele>
        <time>2017-11-19T10:11:08Z</time>
      </trkpt>
      <trkpt lat="45.93024" lon="4.73997">
        <ele>169</ele>
        <time>2017-11-19T10:11:09Z</time>
      </trkpt>
      <trkpt lat="45.93029" lon="4.73998">
        <ele>169</ele>
        <time>2017-11-19T10:11:10Z</time>
      </trkpt>
      <trkpt lat="45.93037" lon="4.74002">
        <ele>169</ele>
        <time>2017-11-19T10:11:12Z</time>
      </trkpt>
      <trkpt lat="45.93042" lon="4.74005">
        <ele>169</ele>
        <time>2017-11-19T10:11:13Z</time>
      </trkpt>
      <trkpt lat="45.93047" lon="4.74007">
        <ele>169</ele>
        <time>2017-11-19T10:11:14Z</time>
      </trkpt>
      <trkpt lat="45.93051" lon="4.74009">
        <ele>169</ele>
        <time>2017-11-19T10:11:15Z</time>
      </trkpt>
      <trkpt lat="45.93057" lon="4.74011">
        <ele>169</ele>
        <time>2017-11-19T10:11:16Z</time>
      </trkpt>
      <trkpt lat="45.93062" lon="4.74014">
        <ele>169</ele>
        <time>2017-11-19T10:11:17Z</time>
      </trkpt>
      <trkpt lat="45.93066" lon="4.74016">
        <ele>169</ele>
        <time>2017-11-19T10:11:18Z</time>
      </trkpt>
      <trkpt lat="45.93071" lon="4.74018">
        <ele>169</ele>
        <time>2017-11-19T10:11:19Z</time>
      </trkpt>
      <trkpt lat="45.93075" lon="4.74019">
        <ele>169</ele>
        <time>2017-11-19T10:11:20Z</time>
      </trkpt>
      <trkpt lat="45.9308" lon="4.74019">
        <ele>169</ele>
        <time>2017-11-19T10:11:21Z</time>
      </trkpt>
      <trkpt lat="45.93085" lon="4.7402">
        <ele>168</ele>
        <time>2017-11-19T10:11:22Z</time>
      </trkpt>
      <trkpt lat="45.93089" lon="4.74021">
        <ele>168</ele>
        <time>2017-11-19T10:11:23Z</time>
      </trkpt>
      <trkpt lat="45.93095" lon="4.74023">
        <ele>168</ele>
        <time>2017-11-19T10:11:24Z</time>
      </trkpt>
      <trkpt lat="45.93099" lon="4.74024">
        <ele>168</ele>
        <time>2017-11-19T10:11:25Z</time>
      </trkpt>
      <trkpt lat="45.93104" lon="4.74025">
        <ele>168</ele>
        <time>2017-11-19T10:11:26Z</time>
      </trkpt>
      <trkpt lat="45.93109" lon="4.74026">
        <ele>168</ele>
        <time>2017-11-19T10:11:27Z</time>
      </trkpt>
      <trkpt lat="45.93114" lon="4.74027">
        <ele>168</ele>
        <time>2017-11-19T10:11:28Z</time>
      </trkpt>
      <trkpt lat="45.9312" lon="4.74028">
        <ele>168</ele>
        <time>2017-11-19T10:11:29Z</time>
      </trkpt>
      <trkpt lat="45.93124" lon="4.7403">
        <ele>168</ele>
        <time>2017-11-19T10:11:30Z</time>
      </trkpt>
      <trkpt lat="45.93129" lon="4.74032">
        <ele>168</ele>
        <time>2017-11-19T10:11:31Z</time>
      </trkpt>
      <trkpt lat="45.93133" lon="4.74035">
        <ele>168</ele>
        <time>2017-11-19T10:11:32Z</time>
      </trkpt>
      <trkpt lat="45.93138" lon="4.74038">
        <ele>168</ele>
        <time>2017-11-19T10:11:33Z</time>
      </trkpt>
      <trkpt lat="45.93142" lon="4.74042">
        <ele>168</ele>
        <time>2017-11-19T10:11:34Z</time>
      </trkpt>
      <trkpt lat="45.93147" lon="4.74045">
        <ele>168</ele>
        <time>2017-11-19T10:11:35Z</time>
      </trkpt>
      <trkpt lat="45.93151" lon="4.7405">
        <ele>168</ele>
        <time>2017-11-19T10:11:36Z</time>
      </trkpt>
      <trkpt lat="45.93155" lon="4.74055">
        <ele>168</ele>
        <time>2017-11-19T10:11:37Z</time>
      </trkpt>
      <trkpt lat="45.93159" lon="4.7406">
        <ele>168</ele>
        <time>2017-11-19T10:11:38Z</time>
      </trkpt>
      <trkpt lat="45.93164" lon="4.74065">
        <ele>168</ele>
        <time>2017-11-19T10:11:39Z</time>
      </trkpt>
      <trkpt lat="45.93168" lon="4.7407">
        <ele>168</ele>
        <time>2017-11-19T10:11:40Z</time>
      </trkpt>
      <trkpt lat="45.93173" lon="4.74075">
        <ele>168</ele>
        <time>2017-11-19T10:11:41Z</time>
      </trkpt>
      <trkpt lat="45.93178" lon="4.74079">
        <ele>168</ele>
        <time>2017-11-19T10:11:42Z</time>
      </trkpt>
      <trkpt lat="45.93184" lon="4.74084">
        <ele>168</ele>
        <time>2017-11-19T10:11:43Z</time>
      </trkpt>
      <trkpt lat="45.93189" lon="4.74088">
        <ele>168</ele>
        <time>2017-11-19T10:11:44Z</time>
      </trkpt>
      <trkpt lat="45.93194" lon="4.74093">
        <ele>167</ele>
        <time>2017-11-19T10:11:45Z</time>
      </trkpt>
      <trkpt lat="45.93198" lon="4.74098">
        <ele>167</ele>
        <time>2017-11-19T10:11:46Z</time>
      </trkpt>
      <trkpt lat="45.93202" lon="4.74102">
        <ele>167</ele>
        <time>2017-11-19T10:11:47Z</time>
      </trkpt>
      <trkpt lat="45.93206" lon="4.74107">
        <ele>167</ele>
        <time>2017-11-19T10:11:48Z</time>
      </trkpt>
      <trkpt lat="45.9321" lon="4.74111">
        <ele>167</ele>
        <time>2017-11-19T10:11:49Z</time>
      </trkpt>
      <trkpt lat="45.93215" lon="4.74113">
        <ele>167</ele>
        <time>2017-11-19T10:11:50Z</time>
      </trkpt>
      <trkpt lat="45.93219" lon="4.74115">
        <ele>167</ele>
        <time>2017-11-19T10:11:51Z</time>
      </trkpt>
      <trkpt lat="45.93224" lon="4.74117">
        <ele>167</ele>
        <time>2017-11-19T10:11:52Z</time>
      </trkpt>
      <trkpt lat="45.93228" lon="4.74116">
        <ele>167</ele>
        <time>2017-11-19T10:11:53Z</time>
      </trkpt>
      <trkpt lat="45.93233" lon="4.74115">
        <ele>167</ele>
        <time>2017-11-19T10:11:54Z</time>
      </trkpt>
      <trkpt lat="45.93237" lon="4.74112">
        <ele>167</ele>
        <time>2017-11-19T10:11:55Z</time>
      </trkpt>
      <trkpt lat="45.93241" lon="4.74107">
        <ele>167</ele>
        <time>2017-11-19T10:11:56Z</time>
      </trkpt>
      <trkpt lat="45.93243" lon="4.74102">
        <ele>167</ele>
        <time>2017-11-19T10:11:57Z</time>
      </trkpt>
      <trkpt lat="45.93246" lon="4.74095">
        <ele>167</ele>
        <time>2017-11-19T10:11:58Z</time>
      </trkpt>
      <trkpt lat="45.93249" lon="4.7409">
        <ele>167</ele>
        <time>2017-11-19T10:11:59Z</time>
      </trkpt>
      <trkpt lat="45.93252" lon="4.74084">
        <ele>167</ele>
        <time>2017-11-19T10:12:00Z</time>
      </trkpt>
      <trkpt lat="45.93254" lon="4.74079">
        <ele>167</ele>
        <time>2017-11-19T10:12:01Z</time>
      </trkpt>
      <trkpt lat="45.93259" lon="4.7407">
        <ele>167</ele>
        <time>2017-11-19T10:12:03Z</time>
      </trkpt>
      <trkpt lat="45.9326" lon="4.74066">
        <ele>167</ele>
        <time>2017-11-19T10:12:04Z</time>
      </trkpt>
      <trkpt lat="45.93265" lon="4.74057">
        <ele>168</ele>
        <time>2017-11-19T10:12:06Z</time>
      </trkpt>
      <trkpt lat="45.93267" lon="4.74051">
        <ele>168</ele>
        <time>2017-11-19T10:12:07Z</time>
      </trkpt>
      <trkpt lat="45.93271" lon="4.74046">
        <ele>168</ele>
        <time>2017-11-19T10:12:08Z</time>
      </trkpt>
      <trkpt lat="45.93273" lon="4.7404">
        <ele>168</ele>
        <time>2017-11-19T10:12:09Z</time>
      </trkpt>
      <trkpt lat="45.93277" lon="4.74035">
        <ele>168</ele>
        <time>2017-11-19T10:12:10Z</time>
      </trkpt>
      <trkpt lat="45.9328" lon="4.7403">
        <ele>168</ele>
        <time>2017-11-19T10:12:11Z</time>
      </trkpt>
      <trkpt lat="45.93283" lon="4.74024">
        <ele>168</ele>
        <time>2017-11-19T10:12:12Z</time>
      </trkpt>
      <trkpt lat="45.93286" lon="4.74017">
        <ele>168</ele>
        <time>2017-11-19T10:12:13Z</time>
      </trkpt>
      <trkpt lat="45.93288" lon="4.74011">
        <ele>168</ele>
        <time>2017-11-19T10:12:14Z</time>
      </trkpt>
      <trkpt lat="45.93291" lon="4.74005">
        <ele>168</ele>
        <time>2017-11-19T10:12:15Z</time>
      </trkpt>
      <trkpt lat="45.93297" lon="4.73997">
        <ele>168</ele>
        <time>2017-11-19T10:12:17Z</time>
      </trkpt>
      <trkpt lat="45.933" lon="4.73991">
        <ele>168</ele>
        <time>2017-11-19T10:12:18Z</time>
      </trkpt>
      <trkpt lat="45.93305" lon="4.73981">
        <ele>168</ele>
        <time>2017-11-19T10:12:20Z</time>
      </trkpt>
      <trkpt lat="45.93307" lon="4.73976">
        <ele>168</ele>
        <time>2017-11-19T10:12:21Z</time>
      </trkpt>
      <trkpt lat="45.93312" lon="4.73967">
        <ele>168</ele>
        <time>2017-11-19T10:12:23Z</time>
      </trkpt>
      <trkpt lat="45.93315" lon="4.73963">
        <ele>168</ele>
        <time>2017-11-19T10:12:24Z</time>
      </trkpt>
      <trkpt lat="45.9332" lon="4.73953">
        <ele>168</ele>
        <time>2017-11-19T10:12:26Z</time>
      </trkpt>
      <trkpt lat="45.93322" lon="4.7395">
        <ele>168</ele>
        <time>2017-11-19T10:12:27Z</time>
      </trkpt>
      <trkpt lat="45.93327" lon="4.7394">
        <ele>168</ele>
        <time>2017-11-19T10:12:29Z</time>
      </trkpt>
      <trkpt lat="45.93329" lon="4.73937">
        <ele>168</ele>
        <time>2017-11-19T10:12:30Z</time>
      </trkpt>
      <trkpt lat="45.93334" lon="4.73928">
        <ele>168</ele>
        <time>2017-11-19T10:12:32Z</time>
      </trkpt>
      <trkpt lat="45.93337" lon="4.73923">
        <ele>168</ele>
        <time>2017-11-19T10:12:33Z</time>
      </trkpt>
      <trkpt lat="45.9334" lon="4.73918">
        <ele>168</ele>
        <time>2017-11-19T10:12:34Z</time>
      </trkpt>
      <trkpt lat="45.93343" lon="4.73913">
        <ele>168</ele>
        <time>2017-11-19T10:12:35Z</time>
      </trkpt>
      <trkpt lat="45.93346" lon="4.73908">
        <ele>168</ele>
        <time>2017-11-19T10:12:36Z</time>
      </trkpt>
      <trkpt lat="45.9335" lon="4.73903">
        <ele>168</ele>
        <time>2017-11-19T10:12:37Z</time>
      </trkpt>
      <trkpt lat="45.93353" lon="4.73898">
        <ele>168</ele>
        <time>2017-11-19T10:12:38Z</time>
      </trkpt>
      <trkpt lat="45.93356" lon="4.73893">
        <ele>168</ele>
        <time>2017-11-19T10:12:39Z</time>
      </trkpt>
      <trkpt lat="45.93359" lon="4.73889">
        <ele>168</ele>
        <time>2017-11-19T10:12:40Z</time>
      </trkpt>
      <trkpt lat="45.93363" lon="4.73885">
        <ele>168</ele>
        <time>2017-11-19T10:12:41Z</time>
      </trkpt>
      <trkpt lat="45.93367" lon="4.73881">
        <ele>168</ele>
        <time>2017-11-19T10:12:42Z</time>
      </trkpt>
      <trkpt lat="45.93371" lon="4.73877">
        <ele>168</ele>
        <time>2017-11-19T10:12:43Z</time>
      </trkpt>
      <trkpt lat="45.93375" lon="4.73875">
        <ele>169</ele>
        <time>2017-11-19T10:12:44Z</time>
      </trkpt>
      <trkpt lat="45.93379" lon="4.73872">
        <ele>169</ele>
        <time>2017-11-19T10:12:45Z</time>
      </trkpt>
      <trkpt lat="45.93384" lon="4.7387">
        <ele>169</ele>
        <time>2017-11-19T10:12:46Z</time>
      </trkpt>
      <trkpt lat="45.93388" lon="4.73867">
        <ele>169</ele>
        <time>2017-11-19T10:12:47Z</time>
      </trkpt>
      <trkpt lat="45.93395" lon="4.73861">
        <ele>169</ele>
        <time>2017-11-19T10:12:49Z</time>
      </trkpt>
      <trkpt lat="45.93399" lon="4.73859">
        <ele>169</ele>
        <time>2017-11-19T10:12:50Z</time>
      </trkpt>
      <trkpt lat="45.93407" lon="4.73855">
        <ele>169</ele>
        <time>2017-11-19T10:12:52Z</time>
      </trkpt>
      <trkpt lat="45.93411" lon="4.73852">
        <ele>169</ele>
        <time>2017-11-19T10:12:53Z</time>
      </trkpt>
      <trkpt lat="45.93415" lon="4.73849">
        <ele>169</ele>
        <time>2017-11-19T10:12:54Z</time>
      </trkpt>
      <trkpt lat="45.93419" lon="4.73846">
        <ele>169</ele>
        <time>2017-11-19T10:12:55Z</time>
      </trkpt>
      <trkpt lat="45.93424" lon="4.73843">
        <ele>169</ele>
        <time>2017-11-19T10:12:56Z</time>
      </trkpt>
      <trkpt lat="45.93429" lon="4.73841">
        <ele>169</ele>
        <time>2017-11-19T10:12:57Z</time>
      </trkpt>
      <trkpt lat="45.93434" lon="4.7384">
        <ele>169</ele>
        <time>2017-11-19T10:12:58Z</time>
      </trkpt>
      <trkpt lat="45.93439" lon="4.73838">
        <ele>169</ele>
        <time>2017-11-19T10:12:59Z</time>
      </trkpt>
      <trkpt lat="45.93445" lon="4.73836">
        <ele>169</ele>
        <time>2017-11-19T10:13:00Z</time>
      </trkpt>
      <trkpt lat="45.93449" lon="4.73834">
        <ele>169</ele>
        <time>2017-11-19T10:13:01Z</time>
      </trkpt>
      <trkpt lat="45.93454" lon="4.73832">
        <ele>169</ele>
        <time>2017-11-19T10:13:02Z</time>
      </trkpt>
      <trkpt lat="45.93459" lon="4.7383">
        <ele>169</ele>
        <time>2017-11-19T10:13:03Z</time>
      </trkpt>
      <trkpt lat="45.93467" lon="4.73826">
        <ele>169</ele>
        <time>2017-11-19T10:13:05Z</time>
      </trkpt>
      <trkpt lat="45.93471" lon="4.73824">
        <ele>169</ele>
        <time>2017-11-19T10:13:06Z</time>
      </trkpt>
      <trkpt lat="45.93479" lon="4.73819">
        <ele>169</ele>
        <time>2017-11-19T10:13:08Z</time>
      </trkpt>
      <trkpt lat="45.93483" lon="4.73817">
        <ele>169</ele>
        <time>2017-11-19T10:13:09Z</time>
      </trkpt>
      <trkpt lat="45.93491" lon="4.73812">
        <ele>169</ele>
        <time>2017-11-19T10:13:11Z</time>
      </trkpt>
      <trkpt lat="45.93495" lon="4.7381">
        <ele>169</ele>
        <time>2017-11-19T10:13:12Z</time>
      </trkpt>
      <trkpt lat="45.935" lon="4.73807">
        <ele>169</ele>
        <time>2017-11-19T10:13:13Z</time>
      </trkpt>
      <trkpt lat="45.93504" lon="4.73805">
        <ele>169</ele>
        <time>2017-11-19T10:13:14Z</time>
      </trkpt>
      <trkpt lat="45.93507" lon="4.738">
        <ele>169</ele>
        <time>2017-11-19T10:13:15Z</time>
      </trkpt>
      <trkpt lat="45.93511" lon="4.73796">
        <ele>169</ele>
        <time>2017-11-19T10:13:16Z</time>
      </trkpt>
      <trkpt lat="45.93518" lon="4.73788">
        <ele>169</ele>
        <time>2017-11-19T10:13:18Z</time>
      </trkpt>
      <trkpt lat="45.93521" lon="4.73784">
        <ele>169</ele>
        <time>2017-11-19T10:13:19Z</time>
      </trkpt>
      <trkpt lat="45.93527" lon="4.73777">
        <ele>169</ele>
        <time>2017-11-19T10:13:21Z</time>
      </trkpt>
      <trkpt lat="45.93531" lon="4.73773">
        <ele>169</ele>
        <time>2017-11-19T10:13:22Z</time>
      </trkpt>
      <trkpt lat="45.93538" lon="4.73765">
        <ele>169</ele>
        <time>2017-11-19T10:13:24Z</time>
      </trkpt>
      <trkpt lat="45.93542" lon="4.7376">
        <ele>169</ele>
        <time>2017-11-19T10:13:25Z</time>
      </trkpt>
      <trkpt lat="45.93545" lon="4.73755">
        <ele>169</ele>
        <time>2017-11-19T10:13:26Z</time>
      </trkpt>
      <trkpt lat="45.93549" lon="4.73752">
        <ele>169</ele>
        <time>2017-11-19T10:13:27Z</time>
      </trkpt>
      <trkpt lat="45.93553" lon="4.73747">
        <ele>169</ele>
        <time>2017-11-19T10:13:28Z</time>
      </trkpt>
      <trkpt lat="45.93557" lon="4.73742">
        <ele>169</ele>
        <time>2017-11-19T10:13:29Z</time>
      </trkpt>
      <trkpt lat="45.93564" lon="4.73735">
        <ele>169</ele>
        <time>2017-11-19T10:13:31Z</time>
      </trkpt>
      <trkpt lat="45.93568" lon="4.73733">
        <ele>169</ele>
        <time>2017-11-19T10:13:32Z</time>
      </trkpt>
      <trkpt lat="45.93574" lon="4.73726">
        <ele>169</ele>
        <time>2017-11-19T10:13:34Z</time>
      </trkpt>
      <trkpt lat="45.93577" lon="4.7372">
        <ele>169</ele>
        <time>2017-11-19T10:13:35Z</time>
      </trkpt>
      <trkpt lat="45.9358" lon="4.73716">
        <ele>169</ele>
        <time>2017-11-19T10:13:36Z</time>
      </trkpt>
      <trkpt lat="45.93582" lon="4.7371">
        <ele>169</ele>
        <time>2017-11-19T10:13:37Z</time>
      </trkpt>
      <trkpt lat="45.93583" lon="4.73703">
        <ele>169</ele>
        <time>2017-11-19T10:13:38Z</time>
      </trkpt>
      <trkpt lat="45.93585" lon="4.73696">
        <ele>169</ele>
        <time>2017-11-19T10:13:39Z</time>
      </trkpt>
      <trkpt lat="45.93585" lon="4.73689">
        <ele>169</ele>
        <time>2017-11-19T10:13:40Z</time>
      </trkpt>
      <trkpt lat="45.93585" lon="4.73683">
        <ele>169</ele>
        <time>2017-11-19T10:13:41Z</time>
      </trkpt>
      <trkpt lat="45.93585" lon="4.73672">
        <ele>168</ele>
        <time>2017-11-19T10:13:43Z</time>
      </trkpt>
      <trkpt lat="45.93584" lon="4.73666">
        <ele>168</ele>
        <time>2017-11-19T10:13:44Z</time>
      </trkpt>
      <trkpt lat="45.93583" lon="4.73654">
        <ele>168</ele>
        <time>2017-11-19T10:13:46Z</time>
      </trkpt>
      <trkpt lat="45.93583" lon="4.73647">
        <ele>168</ele>
        <time>2017-11-19T10:13:47Z</time>
      </trkpt>
      <trkpt lat="45.93583" lon="4.7364">
        <ele>168</ele>
        <time>2017-11-19T10:13:48Z</time>
      </trkpt>
      <trkpt lat="45.93582" lon="4.73633">
        <ele>168</ele>
        <time>2017-11-19T10:13:49Z</time>
      </trkpt>
      <trkpt lat="45.93582" lon="4.73626">
        <ele>168</ele>
        <time>2017-11-19T10:13:50Z</time>
      </trkpt>
      <trkpt lat="45.93581" lon="4.7362">
        <ele>168</ele>
        <time>2017-11-19T10:13:51Z</time>
      </trkpt>
      <trkpt lat="45.93581" lon="4.73613">
        <ele>168</ele>
        <time>2017-11-19T10:13:52Z</time>
      </trkpt>
      <trkpt lat="45.9358" lon="4.73606">
        <ele>168</ele>
        <time>2017-11-19T10:13:53Z</time>
      </trkpt>
      <trkpt lat="45.9358" lon="4.73599">
        <ele>168</ele>
        <time>2017-11-19T10:13:54Z</time>
      </trkpt>
      <trkpt lat="45.93579" lon="4.73592">
        <ele>168</ele>
        <time>2017-11-19T10:13:55Z</time>
      </trkpt>
      <trkpt lat="45.93579" lon="4.73585">
        <ele>168</ele>
        <time>2017-11-19T10:13:56Z</time>
      </trkpt>
      <trkpt lat="45.93577" lon="4.73578">
        <ele>168</ele>
        <time>2017-11-19T10:13:57Z</time>
      </trkpt>
      <trkpt lat="45.93575" lon="4.73566">
        <ele>168</ele>
        <time>2017-11-19T10:13:59Z</time>
      </trkpt>
      <trkpt lat="45.93574" lon="4.7356">
        <ele>168</ele>
        <time>2017-11-19T10:14:00Z</time>
      </trkpt>
      <trkpt lat="45.93572" lon="4.73549">
        <ele>168</ele>
        <time>2017-11-19T10:14:02Z</time>
      </trkpt>
      <trkpt lat="45.93571" lon="4.73543">
        <ele>169</ele>
        <time>2017-11-19T10:14:03Z</time>
      </trkpt>
      <trkpt lat="45.9357" lon="4.73537">
        <ele>169</ele>
        <time>2017-11-19T10:14:04Z</time>
      </trkpt>
      <trkpt lat="45.93568" lon="4.7353">
        <ele>169</ele>
        <time>2017-11-19T10:14:05Z</time>
      </trkpt>
      <trkpt lat="45.93566" lon="4.73524">
        <ele>169</ele>
        <time>2017-11-19T10:14:06Z</time>
      </trkpt>
      <trkpt lat="45.93565" lon="4.73518">
        <ele>169</ele>
        <time>2017-11-19T10:14:07Z</time>
      </trkpt>
      <trkpt lat="45.93563" lon="4.73505">
        <ele>168</ele>
        <time>2017-11-19T10:14:09Z</time>
      </trkpt>
      <trkpt lat="45.93561" lon="4.73499">
        <ele>169</ele>
        <time>2017-11-19T10:14:10Z</time>
      </trkpt>
      <trkpt lat="45.93557" lon="4.73487">
        <ele>169</ele>
        <time>2017-11-19T10:14:12Z</time>
      </trkpt>
      <trkpt lat="45.93556" lon="4.73481">
        <ele>169</ele>
        <time>2017-11-19T10:14:13Z</time>
      </trkpt>
      <trkpt lat="45.93554" lon="4.73474">
        <ele>169</ele>
        <time>2017-11-19T10:14:14Z</time>
      </trkpt>
      <trkpt lat="45.93552" lon="4.73468">
        <ele>169</ele>
        <time>2017-11-19T10:14:15Z</time>
      </trkpt>
      <trkpt lat="45.93549" lon="4.73457">
        <ele>169</ele>
        <time>2017-11-19T10:14:17Z</time>
      </trkpt>
      <trkpt lat="45.93547" lon="4.73453">
        <ele>169</ele>
        <time>2017-11-19T10:14:18Z</time>
      </trkpt>
      <trkpt lat="45.93543" lon="4.73443">
        <ele>169</ele>
        <time>2017-11-19T10:14:20Z</time>
      </trkpt>
      <trkpt lat="45.93542" lon="4.73437">
        <ele>169</ele>
        <time>2017-11-19T10:14:21Z</time>
      </trkpt>
      <trkpt lat="45.9354" lon="4.7343">
        <ele>169</ele>
        <time>2017-11-19T10:14:22Z</time>
      </trkpt>
      <trkpt lat="45.93539" lon="4.73424">
        <ele>169</ele>
        <time>2017-11-19T10:14:23Z</time>
      </trkpt>
      <trkpt lat="45.93537" lon="4.73413">
        <ele>169</ele>
        <time>2017-11-19T10:14:25Z</time>
      </trkpt>
      <trkpt lat="45.93535" lon="4.73406">
        <ele>169</ele>
        <time>2017-11-19T10:14:26Z</time>
      </trkpt>
      <trkpt lat="45.93533" lon="4.73399">
        <ele>169</ele>
        <time>2017-11-19T10:14:27Z</time>
      </trkpt>
      <trkpt lat="45.93532" lon="4.73393">
        <ele>169</ele>
        <time>2017-11-19T10:14:28Z</time>
      </trkpt>
      <trkpt lat="45.9353" lon="4.73382">
        <ele>169</ele>
        <time>2017-11-19T10:14:30Z</time>
      </trkpt>
      <trkpt lat="45.93529" lon="4.73375">
        <ele>169</ele>
        <time>2017-11-19T10:14:31Z</time>
      </trkpt>
      <trkpt lat="45.93528" lon="4.73368">
        <ele>169</ele>
        <time>2017-11-19T10:14:32Z</time>
      </trkpt>
      <trkpt lat="45.93527" lon="4.73361">
        <ele>169</ele>
        <time>2017-11-19T10:14:33Z</time>
      </trkpt>
      <trkpt lat="45.93526" lon="4.73355">
        <ele>169</ele>
        <time>2017-11-19T10:14:34Z</time>
      </trkpt>
      <trkpt lat="45.93525" lon="4.73348">
        <ele>169</ele>
        <time>2017-11-19T10:14:35Z</time>
      </trkpt>
      <trkpt lat="45.93524" lon="4.73341">
        <ele>169</ele>
        <time>2017-11-19T10:14:36Z</time>
      </trkpt>
      <trkpt lat="45.93523" lon="4.73335">
        <ele>169</ele>
        <time>2017-11-19T10:14:37Z</time>
      </trkpt>
      <trkpt lat="45.93521" lon="4.73328">
        <ele>169</ele>
        <time>2017-11-19T10:14:38Z</time>
      </trkpt>
      <trkpt lat="45.93521" lon="4.73321">
        <ele>169</ele>
        <time>2017-11-19T10:14:39Z</time>
      </trkpt>
      <trkpt lat="45.93519" lon="4.73309">
        <ele>169</ele>
        <time>2017-11-19T10:14:41Z</time>
      </trkpt>
      <trkpt lat="45.93518" lon="4.73303">
        <ele>169</ele>
        <time>2017-11-19T10:14:42Z</time>
      </trkpt>
      <trkpt lat="45.93516" lon="4.73291">
        <ele>169</ele>
        <time>2017-11-19T10:14:44Z</time>
      </trkpt>
      <trkpt lat="45.93515" lon="4.73285">
        <ele>169</ele>
        <time>2017-11-19T10:14:45Z</time>
      </trkpt>
      <trkpt lat="45.93514" lon="4.73278">
        <ele>169</ele>
        <time>2017-11-19T10:14:46Z</time>
      </trkpt>
      <trkpt lat="45.93513" lon="4.73271">
        <ele>169</ele>
        <time>2017-11-19T10:14:47Z</time>
      </trkpt>
      <trkpt lat="45.9351" lon="4.7326">
        <ele>169</ele>
        <time>2017-11-19T10:14:49Z</time>
      </trkpt>
      <trkpt lat="45.93509" lon="4.73254">
        <ele>169</ele>
        <time>2017-11-19T10:14:50Z</time>
      </trkpt>
      <trkpt lat="45.93506" lon="4.73242">
        <ele>169</ele>
        <time>2017-11-19T10:14:52Z</time>
      </trkpt>
      <trkpt lat="45.93505" lon="4.73236">
        <ele>169</ele>
        <time>2017-11-19T10:14:53Z</time>
      </trkpt>
      <trkpt lat="45.93503" lon="4.73224">
        <ele>169</ele>
        <time>2017-11-19T10:14:55Z</time>
      </trkpt>
      <trkpt lat="45.93503" lon="4.73218">
        <ele>169</ele>
        <time>2017-11-19T10:14:56Z</time>
      </trkpt>
      <trkpt lat="45.935" lon="4.73207">
        <ele>169</ele>
        <time>2017-11-19T10:14:58Z</time>
      </trkpt>
      <trkpt lat="45.93499" lon="4.732">
        <ele>169</ele>
        <time>2017-11-19T10:14:59Z</time>
      </trkpt>
      <trkpt lat="45.93498" lon="4.73193">
        <ele>169</ele>
        <time>2017-11-19T10:15:00Z</time>
      </trkpt>
      <trkpt lat="45.93496" lon="4.73186">
        <ele>169</ele>
        <time>2017-11-19T10:15:01Z</time>
      </trkpt>
      <trkpt lat="45.93493" lon="4.73175">
        <ele>170</ele>
        <time>2017-11-19T10:15:03Z</time>
      </trkpt>
      <trkpt lat="45.93491" lon="4.7317">
        <ele>170</ele>
        <time>2017-11-19T10:15:04Z</time>
      </trkpt>
      <trkpt lat="45.93489" lon="4.7316">
        <ele>170</ele>
        <time>2017-11-19T10:15:06Z</time>
      </trkpt>
      <trkpt lat="45.93487" lon="4.73154">
        <ele>170</ele>
        <time>2017-11-19T10:15:07Z</time>
      </trkpt>
      <trkpt lat="45.93484" lon="4.73143">
        <ele>170</ele>
        <time>2017-11-19T10:15:09Z</time>
      </trkpt>
      <trkpt lat="45.93483" lon="4.73137">
        <ele>170</ele>
        <time>2017-11-19T10:15:10Z</time>
      </trkpt>
      <trkpt lat="45.93482" lon="4.73131">
        <ele>170</ele>
        <time>2017-11-19T10:15:11Z</time>
      </trkpt>
      <trkpt lat="45.93482" lon="4.73123">
        <ele>170</ele>
        <time>2017-11-19T10:15:12Z</time>
      </trkpt>
      <trkpt lat="45.93482" lon="4.73111">
        <ele>170</ele>
        <time>2017-11-19T10:15:14Z</time>
      </trkpt>
      <trkpt lat="45.93481" lon="4.73106">
        <ele>170</ele>
        <time>2017-11-19T10:15:15Z</time>
      </trkpt>
      <trkpt lat="45.93482" lon="4.73096">
        <ele>170</ele>
        <time>2017-11-19T10:15:17Z</time>
      </trkpt>
      <trkpt lat="45.93483" lon="4.7309">
        <ele>170</ele>
        <time>2017-11-19T10:15:18Z</time>
      </trkpt>
      <trkpt lat="45.93482" lon="4.73079">
        <ele>170</ele>
        <time>2017-11-19T10:15:20Z</time>
      </trkpt>
      <trkpt lat="45.93482" lon="4.73073">
        <ele>170</ele>
        <time>2017-11-19T10:15:21Z</time>
      </trkpt>
      <trkpt lat="45.93482" lon="4.73061">
        <ele>170</ele>
        <time>2017-11-19T10:15:23Z</time>
      </trkpt>
      <trkpt lat="45.93481" lon="4.73055">
        <ele>170</ele>
        <time>2017-11-19T10:15:24Z</time>
      </trkpt>
      <trkpt lat="45.93481" lon="4.73043">
        <ele>170</ele>
        <time>2017-11-19T10:15:26Z</time>
      </trkpt>
      <trkpt lat="45.93481" lon="4.73036">
        <ele>170</ele>
        <time>2017-11-19T10:15:27Z</time>
      </trkpt>
      <trkpt lat="45.93482" lon="4.7303">
        <ele>170</ele>
        <time>2017-11-19T10:15:28Z</time>
      </trkpt>
      <trkpt lat="45.93482" lon="4.73023">
        <ele>170</ele>
        <time>2017-11-19T10:15:29Z</time>
      </trkpt>
      <trkpt lat="45.93483" lon="4.7301">
        <ele>170</ele>
        <time>2017-11-19T10:15:31Z</time>
      </trkpt>
      <trkpt lat="45.93483" lon="4.73004">
        <ele>170</ele>
        <time>2017-11-19T10:15:32Z</time>
      </trkpt>
      <trkpt lat="45.93484" lon="4.72994">
        <ele>170</ele>
        <time>2017-11-19T10:15:34Z</time>
      </trkpt>
      <trkpt lat="45.93485" lon="4.72989">
        <ele>170</ele>
        <time>2017-11-19T10:15:35Z</time>
      </trkpt>
      <trkpt lat="45.93485" lon="4.72978">
        <ele>171</ele>
        <time>2017-11-19T10:15:37Z</time>
      </trkpt>
      <trkpt lat="45.93486" lon="4.72973">
        <ele>171</ele>
        <time>2017-11-19T10:15:38Z</time>
      </trkpt>
      <trkpt lat="45.93489" lon="4.72962">
        <ele>171</ele>
        <time>2017-11-19T10:15:40Z</time>
      </trkpt>
      <trkpt lat="45.9349" lon="4.72957">
        <ele>171</ele>
        <time>2017-11-19T10:15:41Z</time>
      </trkpt>
      <trkpt lat="45.93493" lon="4.72947">
        <ele>171</ele>
        <time>2017-11-19T10:15:43Z</time>
      </trkpt>
      <trkpt lat="45.93494" lon="4.72941">
        <ele>172</ele>
        <time>2017-11-19T10:15:44Z</time>
      </trkpt>
      <trkpt lat="45.93497" lon="4.7293">
        <ele>172</ele>
        <time>2017-11-19T10:15:46Z</time>
      </trkpt>
      <trkpt lat="45.93498" lon="4.72924">
        <ele>172</ele>
        <time>2017-11-19T10:15:47Z</time>
      </trkpt>
      <trkpt lat="45.93501" lon="4.72919">
        <ele>172</ele>
        <time>2017-11-19T10:15:48Z</time>
      </trkpt>
      <trkpt lat="45.93504" lon="4.72913">
        <ele>172</ele>
        <time>2017-11-19T10:15:49Z</time>
      </trkpt>
      <trkpt lat="45.93508" lon="4.72907">
        <ele>172</ele>
        <time>2017-11-19T10:15:50Z</time>
      </trkpt>
      <trkpt lat="45.93511" lon="4.72904">
        <ele>172</ele>
        <time>2017-11-19T10:15:51Z</time>
      </trkpt>
      <trkpt lat="45.93515" lon="4.72899">
        <ele>172</ele>
        <time>2017-11-19T10:15:52Z</time>
      </trkpt>
      <trkpt lat="45.93519" lon="4.72895">
        <ele>172</ele>
        <time>2017-11-19T10:15:53Z</time>
      </trkpt>
      <trkpt lat="45.93522" lon="4.72891">
        <ele>172</ele>
        <time>2017-11-19T10:15:54Z</time>
      </trkpt>
      <trkpt lat="45.93526" lon="4.72887">
        <ele>172</ele>
        <time>2017-11-19T10:15:55Z</time>
      </trkpt>
      <trkpt lat="45.93533" lon="4.7288">
        <ele>173</ele>
        <time>2017-11-19T10:15:57Z</time>
      </trkpt>
      <trkpt lat="45.93537" lon="4.72875">
        <ele>173</ele>
        <time>2017-11-19T10:15:58Z</time>
      </trkpt>
      <trkpt lat="45.93544" lon="4.7287">
        <ele>173</ele>
        <time>2017-11-19T10:16:00Z</time>
      </trkpt>
      <trkpt lat="45.93547" lon="4.72866">
        <ele>173</ele>
        <time>2017-11-19T10:16:01Z</time>
      </trkpt>
      <trkpt lat="45.93553" lon="4.72859">
        <ele>173</ele>
        <time>2017-11-19T10:16:03Z</time>
      </trkpt>
      <trkpt lat="45.93556" lon="4.72856">
        <ele>172</ele>
        <time>2017-11-19T10:16:04Z</time>
      </trkpt>
      <trkpt lat="45.93563" lon="4.72849">
        <ele>172</ele>
        <time>2017-11-19T10:16:06Z</time>
      </trkpt>
      <trkpt lat="45.93567" lon="4.72845">
        <ele>172</ele>
        <time>2017-11-19T10:16:07Z</time>
      </trkpt>
      <trkpt lat="45.93571" lon="4.72842">
        <ele>172</ele>
        <time>2017-11-19T10:16:08Z</time>
      </trkpt>
      <trkpt lat="45.93576" lon="4.72839">
        <ele>172</ele>
        <time>2017-11-19T10:16:09Z</time>
      </trkpt>
      <trkpt lat="45.93579" lon="4.72836">
        <ele>172</ele>
        <time>2017-11-19T10:16:10Z</time>
      </trkpt>
      <trkpt lat="45.93583" lon="4.72832">
        <ele>172</ele>
        <time>2017-11-19T10:16:11Z</time>
      </trkpt>
      <trkpt lat="45.93588" lon="4.72829">
        <ele>172</ele>
        <time>2017-11-19T10:16:12Z</time>
      </trkpt>
      <trkpt lat="45.93592" lon="4.72825">
        <ele>173</ele>
        <time>2017-11-19T10:16:13Z</time>
      </trkpt>
      <trkpt lat="45.93596" lon="4.72823">
        <ele>173</ele>
        <time>2017-11-19T10:16:14Z</time>
      </trkpt>
      <trkpt lat="45.936" lon="4.7282">
        <ele>173</ele>
        <time>2017-11-19T10:16:15Z</time>
      </trkpt>
      <trkpt lat="45.93608" lon="4.72814">
        <ele>173</ele>
        <time>2017-11-19T10:16:17Z</time>
      </trkpt>
      <trkpt lat="45.93611" lon="4.72812">
        <ele>173</ele>
        <time>2017-11-19T10:16:18Z</time>
      </trkpt>
      <trkpt lat="45.93615" lon="4.7281">
        <ele>173</ele>
        <time>2017-11-19T10:16:19Z</time>
      </trkpt>
      <trkpt lat="45.93619" lon="4.72806">
        <ele>173</ele>
        <time>2017-11-19T10:16:20Z</time>
      </trkpt>
      <trkpt lat="45.93626" lon="4.72801">
        <ele>173</ele>
        <time>2017-11-19T10:16:22Z</time>
      </trkpt>
      <trkpt lat="45.93631" lon="4.72797">
        <ele>173</ele>
        <time>2017-11-19T10:16:23Z</time>
      </trkpt>
      <trkpt lat="45.93635" lon="4.72794">
        <ele>173</ele>
        <time>2017-11-19T10:16:24Z</time>
      </trkpt>
      <trkpt lat="45.93639" lon="4.72791">
        <ele>173</ele>
        <time>2017-11-19T10:16:25Z</time>
      </trkpt>
      <trkpt lat="45.93647" lon="4.72785">
        <ele>173</ele>
        <time>2017-11-19T10:16:27Z</time>
      </trkpt>
      <trkpt lat="45.93651" lon="4.72783">
        <ele>174</ele>
        <time>2017-11-19T10:16:28Z</time>
      </trkpt>
      <trkpt lat="45.93658" lon="4.72777">
        <ele>174</ele>
        <time>2017-11-19T10:16:30Z</time>
      </trkpt>
      <trkpt lat="45.93662" lon="4.72775">
        <ele>174</ele>
        <time>2017-11-19T10:16:31Z</time>
      </trkpt>
      <trkpt lat="45.93669" lon="4.7277">
        <ele>173</ele>
        <time>2017-11-19T10:16:33Z</time>
      </trkpt>
      <trkpt lat="45.93672" lon="4.72767">
        <ele>173</ele>
        <time>2017-11-19T10:16:34Z</time>
      </trkpt>
      <trkpt lat="45.93676" lon="4.72763">
        <ele>173</ele>
        <time>2017-11-19T10:16:35Z</time>
      </trkpt>
      <trkpt lat="45.9368" lon="4.72759">
        <ele>173</ele>
        <time>2017-11-19T10:16:36Z</time>
      </trkpt>
      <trkpt lat="45.93683" lon="4.72756">
        <ele>173</ele>
        <time>2017-11-19T10:16:37Z</time>
      </trkpt>
      <trkpt lat="45.93688" lon="4.72752">
        <ele>172</ele>
        <time>2017-11-19T10:16:38Z</time>
      </trkpt>
      <trkpt lat="45.93693" lon="4.72748">
        <ele>173</ele>
        <time>2017-11-19T10:16:39Z</time>
      </trkpt>
      <trkpt lat="45.93698" lon="4.72743">
        <ele>173</ele>
        <time>2017-11-19T10:16:40Z</time>
      </trkpt>
      <trkpt lat="45.93703" lon="4.7274">
        <ele>173</ele>
        <time>2017-11-19T10:16:41Z</time>
      </trkpt>
      <trkpt lat="45.93707" lon="4.72735">
        <ele>173</ele>
        <time>2017-11-19T10:16:42Z</time>
      </trkpt>
      <trkpt lat="45.9371" lon="4.72732">
        <ele>173</ele>
        <time>2017-11-19T10:16:43Z</time>
      </trkpt>
      <trkpt lat="45.93715" lon="4.72727">
        <ele>173</ele>
        <time>2017-11-19T10:16:44Z</time>
      </trkpt>
      <trkpt lat="45.93722" lon="4.7272">
        <ele>173</ele>
        <time>2017-11-19T10:16:46Z</time>
      </trkpt>
      <trkpt lat="45.93725" lon="4.72717">
        <ele>173</ele>
        <time>2017-11-19T10:16:47Z</time>
      </trkpt>
      <trkpt lat="45.93732" lon="4.7271">
        <ele>173</ele>
        <time>2017-11-19T10:16:49Z</time>
      </trkpt>
      <trkpt lat="45.93736" lon="4.72706">
        <ele>173</ele>
        <time>2017-11-19T10:16:50Z</time>
      </trkpt>
      <trkpt lat="45.9374" lon="4.72701">
        <ele>173</ele>
        <time>2017-11-19T10:16:51Z</time>
      </trkpt>
      <trkpt lat="45.93744" lon="4.72698">
        <ele>173</ele>
        <time>2017-11-19T10:16:52Z</time>
      </trkpt>
      <trkpt lat="45.93751" lon="4.72692">
        <ele>172</ele>
        <time>2017-11-19T10:16:54Z</time>
      </trkpt>
      <trkpt lat="45.93755" lon="4.72688">
        <ele>173</ele>
        <time>2017-11-19T10:16:55Z</time>
      </trkpt>
      <trkpt lat="45.93761" lon="4.7268">
        <ele>173</ele>
        <time>2017-11-19T10:16:57Z</time>
      </trkpt>
      <trkpt lat="45.93764" lon="4.72677">
        <ele>173</ele>
        <time>2017-11-19T10:16:58Z</time>
      </trkpt>
      <trkpt lat="45.93769" lon="4.7267">
        <ele>173</ele>
        <time>2017-11-19T10:17:00Z</time>
      </trkpt>
      <trkpt lat="45.93772" lon="4.72667">
        <ele>173</ele>
        <time>2017-11-19T10:17:01Z</time>
      </trkpt>
      <trkpt lat="45.93779" lon="4.7266">
        <ele>173</ele>
        <time>2017-11-19T10:17:03Z</time>
      </trkpt>
      <trkpt lat="45.93782" lon="4.72656">
        <ele>173</ele>
        <time>2017-11-19T10:17:04Z</time>
      </trkpt>
      <trkpt lat="45.93785" lon="4.72651">
        <ele>173</ele>
        <time>2017-11-19T10:17:05Z</time>
      </trkpt>
      <trkpt lat="45.93789" lon="4.72647">
        <ele>173</ele>
        <time>2017-11-19T10:17:06Z</time>
      </trkpt>
      <trkpt lat="45.93793" lon="4.7264">
        <ele>173</ele>
        <time>2017-11-19T10:17:07Z</time>
      </trkpt>
      <trkpt lat="45.93796" lon="4.72635">
        <ele>173</ele>
        <time>2017-11-19T10:17:08Z</time>
      </trkpt>
      <trkpt lat="45.93802" lon="4.72626">
        <ele>173</ele>
        <time>2017-11-19T10:17:10Z</time>
      </trkpt>
      <trkpt lat="45.93805" lon="4.72622">
        <ele>173</ele>
        <time>2017-11-19T10:17:11Z</time>
      </trkpt>
      <trkpt lat="45.9381" lon="4.72613">
        <ele>173</ele>
        <time>2017-11-19T10:17:13Z</time>
      </trkpt>
      <trkpt lat="45.93812" lon="4.72609">
        <ele>173</ele>
        <time>2017-11-19T10:17:14Z</time>
      </trkpt>
      <trkpt lat="45.93813" lon="4.72597">
        <ele>174</ele>
        <time>2017-11-19T10:17:16Z</time>
      </trkpt>
      <trkpt lat="45.93811" lon="4.72592">
        <ele>174</ele>
        <time>2017-11-19T10:17:17Z</time>
      </trkpt>
      <trkpt lat="45.93805" lon="4.72583">
        <ele>174</ele>
        <time>2017-11-19T10:17:19Z</time>
      </trkpt>
      <trkpt lat="45.93802" lon="4.7258">
        <ele>174</ele>
        <time>2017-11-19T10:17:20Z</time>
      </trkpt>
      <trkpt lat="45.93798" lon="4.72576">
        <ele>174</ele>
        <time>2017-11-19T10:17:21Z</time>
      </trkpt>
      <trkpt lat="45.93794" lon="4.72571">
        <ele>174</ele>
        <time>2017-11-19T10:17:22Z</time>
      </trkpt>
      <trkpt lat="45.93787" lon="4.72564">
        <ele>174</ele>
        <time>2017-11-19T10:17:24Z</time>
      </trkpt>
      <trkpt lat="45.93784" lon="4.72563">
        <ele>174</ele>
        <time>2017-11-19T10:17:25Z</time>
      </trkpt>
      <trkpt lat="45.93777" lon="4.72559">
        <ele>174</ele>
        <time>2017-11-19T10:17:27Z</time>
      </trkpt>
      <trkpt lat="45.93774" lon="4.72558">
        <ele>174</ele>
        <time>2017-11-19T10:17:28Z</time>
      </trkpt>
      <trkpt lat="45.93771" lon="4.72551">
        <ele>173</ele>
        <time>2017-11-19T10:17:30Z</time>
      </trkpt>
      <trkpt lat="45.93765" lon="4.72545">
        <ele>173</ele>
        <time>2017-11-19T10:17:31Z</time>
      </trkpt>
      <trkpt lat="45.9376" lon="4.7254">
        <ele>173</ele>
        <time>2017-11-19T10:17:32Z</time>
      </trkpt>
      <trkpt lat="45.93757" lon="4.72536">
        <ele>173</ele>
        <time>2017-11-19T10:17:33Z</time>
      </trkpt>
      <trkpt lat="45.93752" lon="4.72532">
        <ele>173</ele>
        <time>2017-11-19T10:17:34Z</time>
      </trkpt>
      <trkpt lat="45.93748" lon="4.72527">
        <ele>172</ele>
        <time>2017-11-19T10:17:35Z</time>
      </trkpt>
      <trkpt lat="45.93741" lon="4.7252">
        <ele>171</ele>
        <time>2017-11-19T10:17:37Z</time>
      </trkpt>
      <trkpt lat="45.93738" lon="4.72518">
        <ele>171</ele>
        <time>2017-11-19T10:17:38Z</time>
      </trkpt>
      <trkpt lat="45.93733" lon="4.72512">
        <ele>171</ele>
        <time>2017-11-19T10:17:39Z</time>
      </trkpt>
      <trkpt lat="45.93729" lon="4.72508">
        <ele>171</ele>
        <time>2017-11-19T10:17:40Z</time>
      </trkpt>
      <trkpt lat="45.93724" lon="4.72504">
        <ele>171</ele>
        <time>2017-11-19T10:17:41Z</time>
      </trkpt>
      <trkpt lat="45.9372" lon="4.72499">
        <ele>171</ele>
        <time>2017-11-19T10:17:42Z</time>
      </trkpt>
      <trkpt lat="45.93715" lon="4.72496">
        <ele>171</ele>
        <time>2017-11-19T10:17:43Z</time>
      </trkpt>
      <trkpt lat="45.93711" lon="4.72492">
        <ele>171</ele>
        <time>2017-11-19T10:17:44Z</time>
      </trkpt>
      <trkpt lat="45.93706" lon="4.72488">
        <ele>171</ele>
        <time>2017-11-19T10:17:45Z</time>
      </trkpt>
      <trkpt lat="45.93702" lon="4.72486">
        <ele>171</ele>
        <time>2017-11-19T10:17:46Z</time>
      </trkpt>
      <trkpt lat="45.93695" lon="4.72478">
        <ele>171</ele>
        <time>2017-11-19T10:17:48Z</time>
      </trkpt>
      <trkpt lat="45.93692" lon="4.72475">
        <ele>171</ele>
        <time>2017-11-19T10:17:49Z</time>
      </trkpt>
      <trkpt lat="45.93684" lon="4.72469">
        <ele>171</ele>
        <time>2017-11-19T10:17:51Z</time>
      </trkpt>
      <trkpt lat="45.93681" lon="4.72466">
        <ele>171</ele>
        <time>2017-11-19T10:17:52Z</time>
      </trkpt>
      <trkpt lat="45.93675" lon="4.72459">
        <ele>171</ele>
        <time>2017-11-19T10:17:54Z</time>
      </trkpt>
      <trkpt lat="45.93671" lon="4.72456">
        <ele>171</ele>
        <time>2017-11-19T10:17:55Z</time>
      </trkpt>
      <trkpt lat="45.93663" lon="4.72451">
        <ele>172</ele>
        <time>2017-11-19T10:17:57Z</time>
      </trkpt>
      <trkpt lat="45.93661" lon="4.72447">
        <ele>172</ele>
        <time>2017-11-19T10:17:58Z</time>
      </trkpt>
      <trkpt lat="45.93657" lon="4.72437">
        <ele>172</ele>
        <time>2017-11-19T10:18:00Z</time>
      </trkpt>
      <trkpt lat="45.93655" lon="4.72432">
        <ele>172</ele>
        <time>2017-11-19T10:18:01Z</time>
      </trkpt>
      <trkpt lat="45.93651" lon="4.72426">
        <ele>172</ele>
        <time>2017-11-19T10:18:02Z</time>
      </trkpt>
      <trkpt lat="45.93648" lon="4.72421">
        <ele>172</ele>
        <time>2017-11-19T10:18:03Z</time>
      </trkpt>
      <trkpt lat="45.93642" lon="4.72415">
        <ele>172</ele>
        <time>2017-11-19T10:18:05Z</time>
      </trkpt>
      <trkpt lat="45.9364" lon="4.7241">
        <ele>172</ele>
        <time>2017-11-19T10:18:06Z</time>
      </trkpt>
      <trkpt lat="45.93635" lon="4.72403">
        <ele>172</ele>
        <time>2017-11-19T10:18:08Z</time>
      </trkpt>
      <trkpt lat="45.93633" lon="4.72399">
        <ele>172</ele>
        <time>2017-11-19T10:18:09Z</time>
      </trkpt>
      <trkpt lat="45.93628" lon="4.72391">
        <ele>172</ele>
        <time>2017-11-19T10:18:12Z</time>
      </trkpt>
      <trkpt lat="45.93625" lon="4.72388">
        <ele>172</ele>
        <time>2017-11-19T10:18:13Z</time>
      </trkpt>
      <trkpt lat="45.93619" lon="4.72381">
        <ele>172</ele>
        <time>2017-11-19T10:18:15Z</time>
      </trkpt>
      <trkpt lat="45.93616" lon="4.72378">
        <ele>172</ele>
        <time>2017-11-19T10:18:16Z</time>
      </trkpt>
      <trkpt lat="45.9361" lon="4.72372">
        <ele>172</ele>
        <time>2017-11-19T10:18:18Z</time>
      </trkpt>
      <trkpt lat="45.93608" lon="4.72368">
        <ele>172</ele>
        <time>2017-11-19T10:18:19Z</time>
      </trkpt>
      <trkpt lat="45.93603" lon="4.72362">
        <ele>172</ele>
        <time>2017-11-19T10:18:21Z</time>
      </trkpt>
      <trkpt lat="45.93601" lon="4.72359">
        <ele>172</ele>
        <time>2017-11-19T10:18:22Z</time>
      </trkpt>
      <trkpt lat="45.93593" lon="4.72352">
        <ele>172</ele>
        <time>2017-11-19T10:18:25Z</time>
      </trkpt>
      <trkpt lat="45.93591" lon="4.72349">
        <ele>172</ele>
        <time>2017-11-19T10:18:26Z</time>
      </trkpt>
      <trkpt lat="45.93585" lon="4.72344">
        <ele>173</ele>
        <time>2017-11-19T10:18:28Z</time>
      </trkpt>
      <trkpt lat="45.93581" lon="4.72342">
        <ele>173</ele>
        <time>2017-11-19T10:18:29Z</time>
      </trkpt>
      <trkpt lat="45.93576" lon="4.72337">
        <ele>173</ele>
        <time>2017-11-19T10:18:31Z</time>
      </trkpt>
      <trkpt lat="45.93573" lon="4.72335">
        <ele>173</ele>
        <time>2017-11-19T10:18:32Z</time>
      </trkpt>
      <trkpt lat="45.93567" lon="4.7233">
        <ele>173</ele>
        <time>2017-11-19T10:18:34Z</time>
      </trkpt>
      <trkpt lat="45.93565" lon="4.72329">
        <ele>173</ele>
        <time>2017-11-19T10:18:35Z</time>
      </trkpt>
      <trkpt lat="45.93558" lon="4.72326">
        <ele>173</ele>
        <time>2017-11-19T10:18:37Z</time>
      </trkpt>
      <trkpt lat="45.93556" lon="4.72324">
        <ele>173</ele>
        <time>2017-11-19T10:18:38Z</time>
      </trkpt>
      <trkpt lat="45.93548" lon="4.72318">
        <ele>173</ele>
        <time>2017-11-19T10:18:41Z</time>
      </trkpt>
      <trkpt lat="45.93546" lon="4.72317">
        <ele>173</ele>
        <time>2017-11-19T10:18:42Z</time>
      </trkpt>
      <trkpt lat="45.93538" lon="4.72314">
        <ele>173</ele>
        <time>2017-11-19T10:18:45Z</time>
      </trkpt>
      <trkpt lat="45.93536" lon="4.72313">
        <ele>173</ele>
        <time>2017-11-19T10:18:46Z</time>
      </trkpt>
      <trkpt lat="45.93528" lon="4.72314">
        <ele>173</ele>
        <time>2017-11-19T10:18:50Z</time>
      </trkpt>
      <trkpt lat="45.93525" lon="4.72316">
        <ele>173</ele>
        <time>2017-11-19T10:18:51Z</time>
      </trkpt>
      <trkpt lat="45.9352" lon="4.72324">
        <ele>173</ele>
        <time>2017-11-19T10:18:55Z</time>
      </trkpt>
      <trkpt lat="45.93518" lon="4.72325">
        <ele>173</ele>
        <time>2017-11-19T10:18:56Z</time>
      </trkpt>
      <trkpt lat="45.93511" lon="4.72329">
        <ele>173</ele>
        <time>2017-11-19T10:19:02Z</time>
      </trkpt>
      <trkpt lat="45.9351" lon="4.72328">
        <ele>173</ele>
        <time>2017-11-19T10:19:03Z</time>
      </trkpt>
      <trkpt lat="45.93513" lon="4.72318">
        <ele>173</ele>
        <time>2017-11-19T10:19:07Z</time>
      </trkpt>
      <trkpt lat="45.93515" lon="4.72316">
        <ele>173</ele>
        <time>2017-11-19T10:19:08Z</time>
      </trkpt>
      <trkpt lat="45.93519" lon="4.72307">
        <ele>173</ele>
        <time>2017-11-19T10:19:12Z</time>
      </trkpt>
      <trkpt lat="45.93521" lon="4.72303">
        <ele>173</ele>
        <time>2017-11-19T10:19:13Z</time>
      </trkpt>
      <trkpt lat="45.93525" lon="4.72293">
        <ele>172</ele>
        <time>2017-11-19T10:19:16Z</time>
      </trkpt>
      <trkpt lat="45.93527" lon="4.7229">
        <ele>172</ele>
        <time>2017-11-19T10:19:17Z</time>
      </trkpt>
      <trkpt lat="45.93531" lon="4.72281">
        <ele>172</ele>
        <time>2017-11-19T10:19:20Z</time>
      </trkpt>
      <trkpt lat="45.93532" lon="4.72279">
        <ele>172</ele>
        <time>2017-11-19T10:19:21Z</time>
      </trkpt>
      <trkpt lat="45.93535" lon="4.72269">
        <ele>172</ele>
        <time>2017-11-19T10:19:24Z</time>
      </trkpt>
      <trkpt lat="45.93537" lon="4.72266">
        <ele>172</ele>
        <time>2017-11-19T10:19:25Z</time>
      </trkpt>
      <trkpt lat="45.9354" lon="4.72256">
        <ele>172</ele>
        <time>2017-11-19T10:19:28Z</time>
      </trkpt>
      <trkpt lat="45.93541" lon="4.72253">
        <ele>172</ele>
        <time>2017-11-19T10:19:29Z</time>
      </trkpt>
      <trkpt lat="45.93546" lon="4.72243">
        <ele>172</ele>
        <time>2017-11-19T10:19:32Z</time>
      </trkpt>
      <trkpt lat="45.93547" lon="4.72239">
        <ele>172</ele>
        <time>2017-11-19T10:19:33Z</time>
      </trkpt>
      <trkpt lat="45.93553" lon="4.7223">
        <ele>173</ele>
        <time>2017-11-19T10:19:36Z</time>
      </trkpt>
      <trkpt lat="45.93556" lon="4.7223">
        <ele>173</ele>
        <time>2017-11-19T10:19:37Z</time>
      </trkpt>
      <trkpt lat="45.93565" lon="4.72234">
        <ele>173</ele>
        <time>2017-11-19T10:19:40Z</time>
      </trkpt>
      <trkpt lat="45.93567" lon="4.72236">
        <ele>173</ele>
        <time>2017-11-19T10:19:41Z</time>
      </trkpt>
      <trkpt lat="45.93574" lon="4.72241">
        <ele>173</ele>
        <time>2017-11-19T10:19:44Z</time>
      </trkpt>
      <trkpt lat="45.93575" lon="4.72242">
        <ele>173</ele>
        <time>2017-11-19T10:19:45Z</time>
      </trkpt>
      <trkpt lat="45.93582" lon="4.7225">
        <ele>173</ele>
        <time>2017-11-19T10:19:50Z</time>
      </trkpt>
      <trkpt lat="45.93585" lon="4.72253">
        <ele>173</ele>
        <time>2017-11-19T10:19:51Z</time>
      </trkpt>
      <trkpt lat="45.9359" lon="4.72257">
        <ele>173</ele>
        <time>2017-11-19T10:19:53Z</time>
      </trkpt>
      <trkpt lat="45.93593" lon="4.72259">
        <ele>173</ele>
        <time>2017-11-19T10:19:54Z</time>
      </trkpt>
      <trkpt lat="45.93598" lon="4.72264">
        <ele>173</ele>
        <time>2017-11-19T10:19:56Z</time>
      </trkpt>
      <trkpt lat="45.936" lon="4.72268">
        <ele>173</ele>
        <time>2017-11-19T10:19:57Z</time>
      </trkpt>
      <trkpt lat="45.93606" lon="4.72274">
        <ele>172</ele>
        <time>2017-11-19T10:19:59Z</time>
      </trkpt>
      <trkpt lat="45.93609" lon="4.72278">
        <ele>172</ele>
        <time>2017-11-19T10:20:00Z</time>
      </trkpt>
      <trkpt lat="45.93615" lon="4.72284">
        <ele>172</ele>
        <time>2017-11-19T10:20:02Z</time>
      </trkpt>
      <trkpt lat="45.93618" lon="4.72286">
        <ele>172</ele>
        <time>2017-11-19T10:20:03Z</time>
      </trkpt>
      <trkpt lat="45.93625" lon="4.7229">
        <ele>172</ele>
        <time>2017-11-19T10:20:05Z</time>
      </trkpt>
      <trkpt lat="45.93628" lon="4.72292">
        <ele>172</ele>
        <time>2017-11-19T10:20:06Z</time>
      </trkpt>
      <trkpt lat="45.93635" lon="4.72298">
        <ele>172</ele>
        <time>2017-11-19T10:20:08Z</time>
      </trkpt>
      <trkpt lat="45.9364" lon="4.72302">
        <ele>172</ele>
        <time>2017-11-19T10:20:09Z</time>
      </trkpt>
      <trkpt lat="45.93644" lon="4.72305">
        <ele>172</ele>
        <time>2017-11-19T10:20:10Z</time>
      </trkpt>
      <trkpt lat="45.93648" lon="4.7231">
        <ele>172</ele>
        <time>2017-11-19T10:20:11Z</time>
      </trkpt>
      <trkpt lat="45.93655" lon="4.72316">
        <ele>172</ele>
        <time>2017-11-19T10:20:13Z</time>
      </trkpt>
      <trkpt lat="45.93659" lon="4.72319">
        <ele>172</ele>
        <time>2017-11-19T10:20:14Z</time>
      </trkpt>
      <trkpt lat="45.93663" lon="4.72323">
        <ele>171</ele>
        <time>2017-11-19T10:20:15Z</time>
      </trkpt>
      <trkpt lat="45.93667" lon="4.72329">
        <ele>171</ele>
        <time>2017-11-19T10:20:16Z</time>
      </trkpt>
      <trkpt lat="45.93671" lon="4.72334">
        <ele>171</ele>
        <time>2017-11-19T10:20:17Z</time>
      </trkpt>
      <trkpt lat="45.93674" lon="4.72337">
        <ele>171</ele>
        <time>2017-11-19T10:20:18Z</time>
      </trkpt>
      <trkpt lat="45.93679" lon="4.72342">
        <ele>171</ele>
        <time>2017-11-19T10:20:19Z</time>
      </trkpt>
      <trkpt lat="45.93682" lon="4.72345">
        <ele>171</ele>
        <time>2017-11-19T10:20:20Z</time>
      </trkpt>
      <trkpt lat="45.93689" lon="4.72351">
        <ele>171</ele>
        <time>2017-11-19T10:20:22Z</time>
      </trkpt>
      <trkpt lat="45.93692" lon="4.72354">
        <ele>171</ele>
        <time>2017-11-19T10:20:23Z</time>
      </trkpt>
      <trkpt lat="45.93697" lon="4.72361">
        <ele>171</ele>
        <time>2017-11-19T10:20:25Z</time>
      </trkpt>
      <trkpt lat="45.937" lon="4.72365">
        <ele>171</ele>
        <time>2017-11-19T10:20:26Z</time>
      </trkpt>
      <trkpt lat="45.93706" lon="4.72369">
        <ele>171</ele>
        <time>2017-11-19T10:20:28Z</time>
      </trkpt>
      <trkpt lat="45.93708" lon="4.72371">
        <ele>171</ele>
        <time>2017-11-19T10:20:29Z</time>
      </trkpt>
      <trkpt lat="45.93713" lon="4.72376">
        <ele>171</ele>
        <time>2017-11-19T10:20:31Z</time>
      </trkpt>
      <trkpt lat="45.93716" lon="4.72378">
        <ele>171</ele>
        <time>2017-11-19T10:20:32Z</time>
      </trkpt>
      <trkpt lat="45.93723" lon="4.72382">
        <ele>171</ele>
        <time>2017-11-19T10:20:34Z</time>
      </trkpt>
      <trkpt lat="45.93726" lon="4.72384">
        <ele>171</ele>
        <time>2017-11-19T10:20:35Z</time>
      </trkpt>
      <trkpt lat="45.93732" lon="4.72389">
        <ele>171</ele>
        <time>2017-11-19T10:20:37Z</time>
      </trkpt>
      <trkpt lat="45.93736" lon="4.72393">
        <ele>171</ele>
        <time>2017-11-19T10:20:38Z</time>
      </trkpt>
      <trkpt lat="45.93743" lon="4.72399">
        <ele>171</ele>
        <time>2017-11-19T10:20:40Z</time>
      </trkpt>
      <trkpt lat="45.93747" lon="4.72403">
        <ele>171</ele>
        <time>2017-11-19T10:20:41Z</time>
      </trkpt>
      <trkpt lat="45.93754" lon="4.7241">
        <ele>171</ele>
        <time>2017-11-19T10:20:43Z</time>
      </trkpt>
      <trkpt lat="45.93757" lon="4.72413">
        <ele>171</ele>
        <time>2017-11-19T10:20:44Z</time>
      </trkpt>
      <trkpt lat="45.93763" lon="4.72419">
        <ele>171</ele>
        <time>2017-11-19T10:20:46Z</time>
      </trkpt>
      <trkpt lat="45.93767" lon="4.72423">
        <ele>171</ele>
        <time>2017-11-19T10:20:47Z</time>
      </trkpt>
      <trkpt lat="45.93771" lon="4.72426">
        <ele>171</ele>
        <time>2017-11-19T10:20:48Z</time>
      </trkpt>
      <trkpt lat="45.93775" lon="4.7243">
        <ele>171</ele>
        <time>2017-11-19T10:20:49Z</time>
      </trkpt>
      <trkpt lat="45.9378" lon="4.72435">
        <ele>172</ele>
        <time>2017-11-19T10:20:50Z</time>
      </trkpt>
      <trkpt lat="45.93784" lon="4.72439">
        <ele>172</ele>
        <time>2017-11-19T10:20:51Z</time>
      </trkpt>
      <trkpt lat="45.93787" lon="4.72442">
        <ele>172</ele>
        <time>2017-11-19T10:20:52Z</time>
      </trkpt>
      <trkpt lat="45.93792" lon="4.72445">
        <ele>172</ele>
        <time>2017-11-19T10:20:53Z</time>
      </trkpt>
      <trkpt lat="45.93796" lon="4.7245">
        <ele>172</ele>
        <time>2017-11-19T10:20:54Z</time>
      </trkpt>
      <trkpt lat="45.938" lon="4.72455">
        <ele>172</ele>
        <time>2017-11-19T10:20:55Z</time>
      </trkpt>
      <trkpt lat="45.93806" lon="4.72462">
        <ele>172</ele>
        <time>2017-11-19T10:20:56Z</time>
      </trkpt>
      <trkpt lat="45.9381" lon="4.72465">
        <ele>172</ele>
        <time>2017-11-19T10:20:57Z</time>
      </trkpt>
      <trkpt lat="45.93814" lon="4.72468">
        <ele>172</ele>
        <time>2017-11-19T10:20:58Z</time>
      </trkpt>
      <trkpt lat="45.93818" lon="4.72471">
        <ele>172</ele>
        <time>2017-11-19T10:20:59Z</time>
      </trkpt>
      <trkpt lat="45.93825" lon="4.72474">
        <ele>172</ele>
        <time>2017-11-19T10:21:03Z</time>
      </trkpt>
      <trkpt lat="45.93828" lon="4.72476">
        <ele>173</ele>
        <time>2017-11-19T10:21:04Z</time>
      </trkpt>
      <trkpt lat="45.9383" lon="4.72478">
        <ele>173</ele>
        <time>2017-11-19T10:21:06Z</time>
      </trkpt>
      <trkpt lat="45.9384" lon="4.72485">
        <ele>173</ele>
        <time>2017-11-19T10:21:07Z</time>
      </trkpt>
      <trkpt lat="45.93845" lon="4.72489">
        <ele>173</ele>
        <time>2017-11-19T10:21:08Z</time>
      </trkpt>
      <trkpt lat="45.9385" lon="4.72492">
        <ele>173</ele>
        <time>2017-11-19T10:21:09Z</time>
      </trkpt>
      <trkpt lat="45.93856" lon="4.72505">
        <ele>173</ele>
        <time>2017-11-19T10:21:10Z</time>
      </trkpt>
      <trkpt lat="45.93861" lon="4.72506">
        <ele>173</ele>
        <time>2017-11-19T10:21:11Z</time>
      </trkpt>
      <trkpt lat="45.9387" lon="4.72507">
        <ele>173</ele>
        <time>2017-11-19T10:21:12Z</time>
      </trkpt>
      <trkpt lat="45.93878" lon="4.72503">
        <ele>173</ele>
        <time>2017-11-19T10:21:14Z</time>
      </trkpt>
      <trkpt lat="45.93881" lon="4.72499">
        <ele>172</ele>
        <time>2017-11-19T10:21:15Z</time>
      </trkpt>
      <trkpt lat="45.93887" lon="4.72494">
        <ele>172</ele>
        <time>2017-11-19T10:21:17Z</time>
      </trkpt>
      <trkpt lat="45.9389" lon="4.72492">
        <ele>172</ele>
        <time>2017-11-19T10:21:18Z</time>
      </trkpt>
      <trkpt lat="45.93896" lon="4.72485">
        <ele>172</ele>
        <time>2017-11-19T10:21:20Z</time>
      </trkpt>
      <trkpt lat="45.939" lon="4.7248">
        <ele>172</ele>
        <time>2017-11-19T10:21:21Z</time>
      </trkpt>
      <trkpt lat="45.93904" lon="4.72476">
        <ele>172</ele>
        <time>2017-11-19T10:21:22Z</time>
      </trkpt>
      <trkpt lat="45.93909" lon="4.72472">
        <ele>172</ele>
        <time>2017-11-19T10:21:23Z</time>
      </trkpt>
      <trkpt lat="45.93913" lon="4.72467">
        <ele>172</ele>
        <time>2017-11-19T10:21:24Z</time>
      </trkpt>
      <trkpt lat="45.93917" lon="4.72464">
        <ele>171</ele>
        <time>2017-11-19T10:21:25Z</time>
      </trkpt>
      <trkpt lat="45.93921" lon="4.72459">
        <ele>171</ele>
        <time>2017-11-19T10:21:26Z</time>
      </trkpt>
      <trkpt lat="45.93926" lon="4.72454">
        <ele>171</ele>
        <time>2017-11-19T10:21:27Z</time>
      </trkpt>
      <trkpt lat="45.93931" lon="4.7245">
        <ele>171</ele>
        <time>2017-11-19T10:21:28Z</time>
      </trkpt>
      <trkpt lat="45.93935" lon="4.72445">
        <ele>171</ele>
        <time>2017-11-19T10:21:29Z</time>
      </trkpt>
      <trkpt lat="45.9394" lon="4.7244">
        <ele>171</ele>
        <time>2017-11-19T10:21:30Z</time>
      </trkpt>
      <trkpt lat="45.93944" lon="4.72434">
        <ele>171</ele>
        <time>2017-11-19T10:21:31Z</time>
      </trkpt>
      <trkpt lat="45.93948" lon="4.72428">
        <ele>171</ele>
        <time>2017-11-19T10:21:32Z</time>
      </trkpt>
      <trkpt lat="45.93951" lon="4.72423">
        <ele>171</ele>
        <time>2017-11-19T10:21:33Z</time>
      </trkpt>
      <trkpt lat="45.93956" lon="4.72418">
        <ele>171</ele>
        <time>2017-11-19T10:21:34Z</time>
      </trkpt>
      <trkpt lat="45.93959" lon="4.72413">
        <ele>171</ele>
        <time>2017-11-19T10:21:35Z</time>
      </trkpt>
      <trkpt lat="45.93964" lon="4.72409">
        <ele>171</ele>
        <time>2017-11-19T10:21:36Z</time>
      </trkpt>
      <trkpt lat="45.93968" lon="4.72405">
        <ele>171</ele>
        <time>2017-11-19T10:21:37Z</time>
      </trkpt>
      <trkpt lat="45.93972" lon="4.724">
        <ele>171</ele>
        <time>2017-11-19T10:21:38Z</time>
      </trkpt>
      <trkpt lat="45.93976" lon="4.72395">
        <ele>171</ele>
        <time>2017-11-19T10:21:39Z</time>
      </trkpt>
      <trkpt lat="45.93979" lon="4.72392">
        <ele>171</ele>
        <time>2017-11-19T10:21:40Z</time>
      </trkpt>
      <trkpt lat="45.93985" lon="4.72389">
        <ele>171</ele>
        <time>2017-11-19T10:21:41Z</time>
      </trkpt>
      <trkpt lat="45.93989" lon="4.72385">
        <ele>171</ele>
        <time>2017-11-19T10:21:42Z</time>
      </trkpt>
      <trkpt lat="45.93993" lon="4.7238">
        <ele>171</ele>
        <time>2017-11-19T10:21:43Z</time>
      </trkpt>
      <trkpt lat="45.93996" lon="4.72375">
        <ele>171</ele>
        <time>2017-11-19T10:21:44Z</time>
      </trkpt>
      <trkpt lat="45.94" lon="4.72371">
        <ele>171</ele>
        <time>2017-11-19T10:21:45Z</time>
      </trkpt>
      <trkpt lat="45.94003" lon="4.72366">
        <ele>171</ele>
        <time>2017-11-19T10:21:46Z</time>
      </trkpt>
      <trkpt lat="45.94007" lon="4.72361">
        <ele>171</ele>
        <time>2017-11-19T10:21:47Z</time>
      </trkpt>
      <trkpt lat="45.94011" lon="4.72356">
        <ele>171</ele>
        <time>2017-11-19T10:21:48Z</time>
      </trkpt>
      <trkpt lat="45.94014" lon="4.72351">
        <ele>171</ele>
        <time>2017-11-19T10:21:49Z</time>
      </trkpt>
      <trkpt lat="45.94021" lon="4.72343">
        <ele>171</ele>
        <time>2017-11-19T10:21:51Z</time>
      </trkpt>
      <trkpt lat="45.94023" lon="4.72339">
        <ele>171</ele>
        <time>2017-11-19T10:21:52Z</time>
      </trkpt>
      <trkpt lat="45.94028" lon="4.72332">
        <ele>171</ele>
        <time>2017-11-19T10:21:54Z</time>
      </trkpt>
      <trkpt lat="45.94031" lon="4.72328">
        <ele>171</ele>
        <time>2017-11-19T10:21:55Z</time>
      </trkpt>
      <trkpt lat="45.94035" lon="4.72323">
        <ele>171</ele>
        <time>2017-11-19T10:21:56Z</time>
      </trkpt>
      <trkpt lat="45.94038" lon="4.72319">
        <ele>171</ele>
        <time>2017-11-19T10:21:57Z</time>
      </trkpt>
      <trkpt lat="45.94045" lon="4.72312">
        <ele>171</ele>
        <time>2017-11-19T10:21:59Z</time>
      </trkpt>
      <trkpt lat="45.94048" lon="4.72308">
        <ele>171</ele>
        <time>2017-11-19T10:22:00Z</time>
      </trkpt>
      <trkpt lat="45.94052" lon="4.72304">
        <ele>171</ele>
        <time>2017-11-19T10:22:01Z</time>
      </trkpt>
      <trkpt lat="45.94056" lon="4.72299">
        <ele>171</ele>
        <time>2017-11-19T10:22:02Z</time>
      </trkpt>
      <trkpt lat="45.9406" lon="4.72294">
        <ele>171</ele>
        <time>2017-11-19T10:22:03Z</time>
      </trkpt>
      <trkpt lat="45.94063" lon="4.72289">
        <ele>171</ele>
        <time>2017-11-19T10:22:04Z</time>
      </trkpt>
      <trkpt lat="45.94066" lon="4.72284">
        <ele>171</ele>
        <time>2017-11-19T10:22:05Z</time>
      </trkpt>
      <trkpt lat="45.94071" lon="4.7228">
        <ele>171</ele>
        <time>2017-11-19T10:22:06Z</time>
      </trkpt>
      <trkpt lat="45.94078" lon="4.72274">
        <ele>171</ele>
        <time>2017-11-19T10:22:08Z</time>
      </trkpt>
      <trkpt lat="45.94082" lon="4.7227">
        <ele>171</ele>
        <time>2017-11-19T10:22:09Z</time>
      </trkpt>
      <trkpt lat="45.9409" lon="4.72268">
        <ele>171</ele>
        <time>2017-11-19T10:22:11Z</time>
      </trkpt>
      <trkpt lat="45.94095" lon="4.72266">
        <ele>171</ele>
        <time>2017-11-19T10:22:12Z</time>
      </trkpt>
      <trkpt lat="45.941" lon="4.72265">
        <ele>171</ele>
        <time>2017-11-19T10:22:13Z</time>
      </trkpt>
      <trkpt lat="45.94104" lon="4.72266">
        <ele>171</ele>
        <time>2017-11-19T10:22:14Z</time>
      </trkpt>
      <trkpt lat="45.94109" lon="4.72266">
        <ele>171</ele>
        <time>2017-11-19T10:22:15Z</time>
      </trkpt>
      <trkpt lat="45.94113" lon="4.72269">
        <ele>171</ele>
        <time>2017-11-19T10:22:16Z</time>
      </trkpt>
      <trkpt lat="45.94122" lon="4.72272">
        <ele>171</ele>
        <time>2017-11-19T10:22:18Z</time>
      </trkpt>
      <trkpt lat="45.94126" lon="4.72275">
        <ele>171</ele>
        <time>2017-11-19T10:22:19Z</time>
      </trkpt>
      <trkpt lat="45.94131" lon="4.72277">
        <ele>171</ele>
        <time>2017-11-19T10:22:20Z</time>
      </trkpt>
      <trkpt lat="45.94135" lon="4.72279">
        <ele>171</ele>
        <time>2017-11-19T10:22:21Z</time>
      </trkpt>
      <trkpt lat="45.9414" lon="4.72281">
        <ele>171</ele>
        <time>2017-11-19T10:22:22Z</time>
      </trkpt>
      <trkpt lat="45.94145" lon="4.72283">
        <ele>171</ele>
        <time>2017-11-19T10:22:23Z</time>
      </trkpt>
      <trkpt lat="45.9415" lon="4.72284">
        <ele>171</ele>
        <time>2017-11-19T10:22:24Z</time>
      </trkpt>
      <trkpt lat="45.94155" lon="4.72285">
        <ele>171</ele>
        <time>2017-11-19T10:22:25Z</time>
      </trkpt>
      <trkpt lat="45.9416" lon="4.72289">
        <ele>171</ele>
        <time>2017-11-19T10:22:26Z</time>
      </trkpt>
      <trkpt lat="45.94165" lon="4.72289">
        <ele>171</ele>
        <time>2017-11-19T10:22:27Z</time>
      </trkpt>
      <trkpt lat="45.94173" lon="4.7229">
        <ele>171</ele>
        <time>2017-11-19T10:22:29Z</time>
      </trkpt>
      <trkpt lat="45.94177" lon="4.7229">
        <ele>171</ele>
        <time>2017-11-19T10:22:30Z</time>
      </trkpt>
      <trkpt lat="45.94184" lon="4.72291">
        <ele>171</ele>
        <time>2017-11-19T10:22:32Z</time>
      </trkpt>
      <trkpt lat="45.94189" lon="4.72292">
        <ele>171</ele>
        <time>2017-11-19T10:22:33Z</time>
      </trkpt>
      <trkpt lat="45.94196" lon="4.72294">
        <ele>171</ele>
        <time>2017-11-19T10:22:35Z</time>
      </trkpt>
      <trkpt lat="45.942" lon="4.72293">
        <ele>171</ele>
        <time>2017-11-19T10:22:36Z</time>
      </trkpt>
      <trkpt lat="45.94208" lon="4.72293">
        <ele>171</ele>
        <time>2017-11-19T10:22:38Z</time>
      </trkpt>
      <trkpt lat="45.94211" lon="4.72293">
        <ele>171</ele>
        <time>2017-11-19T10:22:39Z</time>
      </trkpt>
      <trkpt lat="45.94219" lon="4.72292">
        <ele>171</ele>
        <time>2017-11-19T10:22:41Z</time>
      </trkpt>
      <trkpt lat="45.94223" lon="4.72291">
        <ele>171</ele>
        <time>2017-11-19T10:22:42Z</time>
      </trkpt>
      <trkpt lat="45.94231" lon="4.72289">
        <ele>171</ele>
        <time>2017-11-19T10:22:44Z</time>
      </trkpt>
      <trkpt lat="45.94235" lon="4.72288">
        <ele>171</ele>
        <time>2017-11-19T10:22:45Z</time>
      </trkpt>
      <trkpt lat="45.94244" lon="4.72285">
        <ele>171</ele>
        <time>2017-11-19T10:22:47Z</time>
      </trkpt>
      <trkpt lat="45.94248" lon="4.72282">
        <ele>171</ele>
        <time>2017-11-19T10:22:48Z</time>
      </trkpt>
      <trkpt lat="45.94256" lon="4.72277">
        <ele>171</ele>
        <time>2017-11-19T10:22:50Z</time>
      </trkpt>
      <trkpt lat="45.9426" lon="4.72275">
        <ele>171</ele>
        <time>2017-11-19T10:22:51Z</time>
      </trkpt>
      <trkpt lat="45.94267" lon="4.72272">
        <ele>171</ele>
        <time>2017-11-19T10:22:53Z</time>
      </trkpt>
      <trkpt lat="45.94271" lon="4.72273">
        <ele>171</ele>
        <time>2017-11-19T10:22:54Z</time>
      </trkpt>
      <trkpt lat="45.94276" lon="4.72279">
        <ele>171</ele>
        <time>2017-11-19T10:22:56Z</time>
      </trkpt>
      <trkpt lat="45.94278" lon="4.72283">
        <ele>171</ele>
        <time>2017-11-19T10:22:57Z</time>
      </trkpt>
      <trkpt lat="45.94281" lon="4.72292">
        <ele>171</ele>
        <time>2017-11-19T10:22:59Z</time>
      </trkpt>
      <trkpt lat="45.94283" lon="4.72297">
        <ele>171</ele>
        <time>2017-11-19T10:23:00Z</time>
      </trkpt>
      <trkpt lat="45.94288" lon="4.72307">
        <ele>171</ele>
        <time>2017-11-19T10:23:02Z</time>
      </trkpt>
      <trkpt lat="45.9429" lon="4.72313">
        <ele>171</ele>
        <time>2017-11-19T10:23:03Z</time>
      </trkpt>
      <trkpt lat="45.94292" lon="4.72318">
        <ele>171</ele>
        <time>2017-11-19T10:23:04Z</time>
      </trkpt>
      <trkpt lat="45.94295" lon="4.72323">
        <ele>171</ele>
        <time>2017-11-19T10:23:05Z</time>
      </trkpt>
      <trkpt lat="45.94297" lon="4.72329">
        <ele>171</ele>
        <time>2017-11-19T10:23:06Z</time>
      </trkpt>
      <trkpt lat="45.943" lon="4.72335">
        <ele>172</ele>
        <time>2017-11-19T10:23:07Z</time>
      </trkpt>
      <trkpt lat="45.94302" lon="4.7234">
        <ele>172</ele>
        <time>2017-11-19T10:23:08Z</time>
      </trkpt>
      <trkpt lat="45.94304" lon="4.72346">
        <ele>172</ele>
        <time>2017-11-19T10:23:09Z</time>
      </trkpt>
      <trkpt lat="45.94307" lon="4.72352">
        <ele>172</ele>
        <time>2017-11-19T10:23:10Z</time>
      </trkpt>
      <trkpt lat="45.9431" lon="4.72357">
        <ele>172</ele>
        <time>2017-11-19T10:23:11Z</time>
      </trkpt>
      <trkpt lat="45.94313" lon="4.72363">
        <ele>172</ele>
        <time>2017-11-19T10:23:12Z</time>
      </trkpt>
      <trkpt lat="45.94316" lon="4.72369">
        <ele>172</ele>
        <time>2017-11-19T10:23:13Z</time>
      </trkpt>
      <trkpt lat="45.94318" lon="4.72375">
        <ele>172</ele>
        <time>2017-11-19T10:23:14Z</time>
      </trkpt>
      <trkpt lat="45.94321" lon="4.72381">
        <ele>172</ele>
        <time>2017-11-19T10:23:15Z</time>
      </trkpt>
      <trkpt lat="45.94325" lon="4.7239">
        <ele>172</ele>
        <time>2017-11-19T10:23:17Z</time>
      </trkpt>
      <trkpt lat="45.94328" lon="4.72395">
        <ele>172</ele>
        <time>2017-11-19T10:23:18Z</time>
      </trkpt>
      <trkpt lat="45.94333" lon="4.72405">
        <ele>173</ele>
        <time>2017-11-19T10:23:20Z</time>
      </trkpt>
      <trkpt lat="45.94336" lon="4.72409">
        <ele>173</ele>
        <time>2017-11-19T10:23:21Z</time>
      </trkpt>
      <trkpt lat="45.9434" lon="4.72419">
        <ele>173</ele>
        <time>2017-11-19T10:23:23Z</time>
      </trkpt>
      <trkpt lat="45.94342" lon="4.72425">
        <ele>173</ele>
        <time>2017-11-19T10:23:24Z</time>
      </trkpt>
      <trkpt lat="45.94347" lon="4.72436">
        <ele>173</ele>
        <time>2017-11-19T10:23:26Z</time>
      </trkpt>
      <trkpt lat="45.9435" lon="4.72441">
        <ele>173</ele>
        <time>2017-11-19T10:23:27Z</time>
      </trkpt>
      <trkpt lat="45.94355" lon="4.72451">
        <ele>173</ele>
        <time>2017-11-19T10:23:29Z</time>
      </trkpt>
      <trkpt lat="45.94357" lon="4.72456">
        <ele>173</ele>
        <time>2017-11-19T10:23:30Z</time>
      </trkpt>
      <trkpt lat="45.9436" lon="4.72462">
        <ele>173</ele>
        <time>2017-11-19T10:23:31Z</time>
      </trkpt>
      <trkpt lat="45.94362" lon="4.72468">
        <ele>173</ele>
        <time>2017-11-19T10:23:32Z</time>
      </trkpt>
      <trkpt lat="45.94367" lon="4.72478">
        <ele>173</ele>
        <time>2017-11-19T10:23:34Z</time>
      </trkpt>
      <trkpt lat="45.94368" lon="4.72482">
        <ele>173</ele>
        <time>2017-11-19T10:23:35Z</time>
      </trkpt>
      <trkpt lat="45.9437" lon="4.72488">
        <ele>173</ele>
        <time>2017-11-19T10:23:36Z</time>
      </trkpt>
      <trkpt lat="45.94373" lon="4.72495">
        <ele>173</ele>
        <time>2017-11-19T10:23:37Z</time>
      </trkpt>
      <trkpt lat="45.94373" lon="4.72502">
        <ele>173</ele>
        <time>2017-11-19T10:23:38Z</time>
      </trkpt>
      <trkpt lat="45.94376" lon="4.72508">
        <ele>174</ele>
        <time>2017-11-19T10:23:39Z</time>
      </trkpt>
      <trkpt lat="45.94378" lon="4.72518">
        <ele>174</ele>
        <time>2017-11-19T10:23:41Z</time>
      </trkpt>
      <trkpt lat="45.94381" lon="4.72524">
        <ele>174</ele>
        <time>2017-11-19T10:23:42Z</time>
      </trkpt>
      <trkpt lat="45.94382" lon="4.72529">
        <ele>174</ele>
        <time>2017-11-19T10:23:43Z</time>
      </trkpt>
      <trkpt lat="45.94385" lon="4.72536">
        <ele>174</ele>
        <time>2017-11-19T10:23:44Z</time>
      </trkpt>
      <trkpt lat="45.94389" lon="4.72547">
        <ele>173</ele>
        <time>2017-11-19T10:23:46Z</time>
      </trkpt>
      <trkpt lat="45.9439" lon="4.72554">
        <ele>173</ele>
        <time>2017-11-19T10:23:47Z</time>
      </trkpt>
      <trkpt lat="45.94391" lon="4.72561">
        <ele>173</ele>
        <time>2017-11-19T10:23:48Z</time>
      </trkpt>
      <trkpt lat="45.94392" lon="4.72567">
        <ele>173</ele>
        <time>2017-11-19T10:23:49Z</time>
      </trkpt>
      <trkpt lat="45.94393" lon="4.72574">
        <ele>173</ele>
        <time>2017-11-19T10:23:50Z</time>
      </trkpt>
      <trkpt lat="45.94394" lon="4.72581">
        <ele>173</ele>
        <time>2017-11-19T10:23:51Z</time>
      </trkpt>
      <trkpt lat="45.94395" lon="4.72587">
        <ele>173</ele>
        <time>2017-11-19T10:23:52Z</time>
      </trkpt>
      <trkpt lat="45.94395" lon="4.72594">
        <ele>173</ele>
        <time>2017-11-19T10:23:53Z</time>
      </trkpt>
      <trkpt lat="45.94396" lon="4.72601">
        <ele>173</ele>
        <time>2017-11-19T10:23:54Z</time>
      </trkpt>
      <trkpt lat="45.94397" lon="4.72607">
        <ele>173</ele>
        <time>2017-11-19T10:23:55Z</time>
      </trkpt>
      <trkpt lat="45.94398" lon="4.72613">
        <ele>173</ele>
        <time>2017-11-19T10:23:56Z</time>
      </trkpt>
      <trkpt lat="45.94399" lon="4.7262">
        <ele>173</ele>
        <time>2017-11-19T10:23:57Z</time>
      </trkpt>
      <trkpt lat="45.944" lon="4.72632">
        <ele>174</ele>
        <time>2017-11-19T10:23:59Z</time>
      </trkpt>
      <trkpt lat="45.94401" lon="4.7264">
        <ele>174</ele>
        <time>2017-11-19T10:24:00Z</time>
      </trkpt>
      <trkpt lat="45.94402" lon="4.72646">
        <ele>174</ele>
        <time>2017-11-19T10:24:01Z</time>
      </trkpt>
      <trkpt lat="45.94402" lon="4.72654">
        <ele>174</ele>
        <time>2017-11-19T10:24:02Z</time>
      </trkpt>
      <trkpt lat="45.94403" lon="4.7266">
        <ele>174</ele>
        <time>2017-11-19T10:24:03Z</time>
      </trkpt>
      <trkpt lat="45.94404" lon="4.72667">
        <ele>174</ele>
        <time>2017-11-19T10:24:04Z</time>
      </trkpt>
      <trkpt lat="45.94405" lon="4.72674">
        <ele>173</ele>
        <time>2017-11-19T10:24:05Z</time>
      </trkpt>
      <trkpt lat="45.94406" lon="4.7268">
        <ele>173</ele>
        <time>2017-11-19T10:24:06Z</time>
      </trkpt>
      <trkpt lat="45.94407" lon="4.72686">
        <ele>173</ele>
        <time>2017-11-19T10:24:07Z</time>
      </trkpt>
      <trkpt lat="45.94408" lon="4.72694">
        <ele>173</ele>
        <time>2017-11-19T10:24:08Z</time>
      </trkpt>
      <trkpt lat="45.9441" lon="4.72705">
        <ele>172</ele>
        <time>2017-11-19T10:24:10Z</time>
      </trkpt>
      <trkpt lat="45.94411" lon="4.72711">
        <ele>172</ele>
        <time>2017-11-19T10:24:11Z</time>
      </trkpt>
      <trkpt lat="45.94412" lon="4.72723">
        <ele>172</ele>
        <time>2017-11-19T10:24:13Z</time>
      </trkpt>
      <trkpt lat="45.94412" lon="4.72729">
        <ele>172</ele>
        <time>2017-11-19T10:24:14Z</time>
      </trkpt>
      <trkpt lat="45.94414" lon="4.72736">
        <ele>171</ele>
        <time>2017-11-19T10:24:15Z</time>
      </trkpt>
      <trkpt lat="45.94415" lon="4.72742">
        <ele>171</ele>
        <time>2017-11-19T10:24:16Z</time>
      </trkpt>
      <trkpt lat="45.94417" lon="4.72754">
        <ele>171</ele>
        <time>2017-11-19T10:24:18Z</time>
      </trkpt>
      <trkpt lat="45.94417" lon="4.72759">
        <ele>170</ele>
        <time>2017-11-19T10:24:19Z</time>
      </trkpt>
      <trkpt lat="45.94419" lon="4.72769">
        <ele>169</ele>
        <time>2017-11-19T10:24:21Z</time>
      </trkpt>
      <trkpt lat="45.9442" lon="4.72775">
        <ele>169</ele>
        <time>2017-11-19T10:24:22Z</time>
      </trkpt>
      <trkpt lat="45.94421" lon="4.72786">
        <ele>168</ele>
        <time>2017-11-19T10:24:24Z</time>
      </trkpt>
      <trkpt lat="45.94422" lon="4.72791">
        <ele>168</ele>
        <time>2017-11-19T10:24:25Z</time>
      </trkpt>
      <trkpt lat="45.94423" lon="4.72802">
        <ele>167</ele>
        <time>2017-11-19T10:24:27Z</time>
      </trkpt>
      <trkpt lat="45.94424" lon="4.72807">
        <ele>167</ele>
        <time>2017-11-19T10:24:28Z</time>
      </trkpt>
      <trkpt lat="45.94425" lon="4.72817">
        <ele>167</ele>
        <time>2017-11-19T10:24:30Z</time>
      </trkpt>
      <trkpt lat="45.94426" lon="4.72821">
        <ele>167</ele>
        <time>2017-11-19T10:24:31Z</time>
      </trkpt>
      <trkpt lat="45.94427" lon="4.7283">
        <ele>166</ele>
        <time>2017-11-19T10:24:33Z</time>
      </trkpt>
      <trkpt lat="45.94428" lon="4.72835">
        <ele>166</ele>
        <time>2017-11-19T10:24:34Z</time>
      </trkpt>
      <trkpt lat="45.94429" lon="4.72844">
        <ele>166</ele>
        <time>2017-11-19T10:24:36Z</time>
      </trkpt>
      <trkpt lat="45.9443" lon="4.72849">
        <ele>166</ele>
        <time>2017-11-19T10:24:37Z</time>
      </trkpt>
      <trkpt lat="45.94431" lon="4.72859">
        <ele>166</ele>
        <time>2017-11-19T10:24:39Z</time>
      </trkpt>
      <trkpt lat="45.94431" lon="4.72863">
        <ele>166</ele>
        <time>2017-11-19T10:24:40Z</time>
      </trkpt>
      <trkpt lat="45.94432" lon="4.72872">
        <ele>166</ele>
        <time>2017-11-19T10:24:42Z</time>
      </trkpt>
      <trkpt lat="45.94433" lon="4.72876">
        <ele>166</ele>
        <time>2017-11-19T10:24:43Z</time>
      </trkpt>
      <trkpt lat="45.94434" lon="4.72885">
        <ele>166</ele>
        <time>2017-11-19T10:24:45Z</time>
      </trkpt>
      <trkpt lat="45.94434" lon="4.7289">
        <ele>166</ele>
        <time>2017-11-19T10:24:46Z</time>
      </trkpt>
      <trkpt lat="45.94435" lon="4.72898">
        <ele>166</ele>
        <time>2017-11-19T10:24:48Z</time>
      </trkpt>
      <trkpt lat="45.94435" lon="4.72903">
        <ele>166</ele>
        <time>2017-11-19T10:24:49Z</time>
      </trkpt>
      <trkpt lat="45.94436" lon="4.72913">
        <ele>166</ele>
        <time>2017-11-19T10:24:51Z</time>
      </trkpt>
      <trkpt lat="45.94437" lon="4.72919">
        <ele>167</ele>
        <time>2017-11-19T10:24:52Z</time>
      </trkpt>
      <trkpt lat="45.94438" lon="4.7293">
        <ele>167</ele>
        <time>2017-11-19T10:24:54Z</time>
      </trkpt>
      <trkpt lat="45.94438" lon="4.72935">
        <ele>167</ele>
        <time>2017-11-19T10:24:55Z</time>
      </trkpt>
      <trkpt lat="45.94439" lon="4.72946">
        <ele>167</ele>
        <time>2017-11-19T10:24:57Z</time>
      </trkpt>
      <trkpt lat="45.9444" lon="4.72952">
        <ele>167</ele>
        <time>2017-11-19T10:24:58Z</time>
      </trkpt>
      <trkpt lat="45.94442" lon="4.72964">
        <ele>167</ele>
        <time>2017-11-19T10:25:00Z</time>
      </trkpt>
      <trkpt lat="45.94442" lon="4.72971">
        <ele>167</ele>
        <time>2017-11-19T10:25:01Z</time>
      </trkpt>
      <trkpt lat="45.94443" lon="4.72978">
        <ele>167</ele>
        <time>2017-11-19T10:25:02Z</time>
      </trkpt>
      <trkpt lat="45.94443" lon="4.72984">
        <ele>167</ele>
        <time>2017-11-19T10:25:03Z</time>
      </trkpt>
      <trkpt lat="45.94444" lon="4.72991">
        <ele>167</ele>
        <time>2017-11-19T10:25:04Z</time>
      </trkpt>
      <trkpt lat="45.94446" lon="4.72998">
        <ele>167</ele>
        <time>2017-11-19T10:25:05Z</time>
      </trkpt>
      <trkpt lat="45.94446" lon="4.73005">
        <ele>169</ele>
        <time>2017-11-19T10:25:06Z</time>
      </trkpt>
      <trkpt lat="45.94448" lon="4.73012">
        <ele>169</ele>
        <time>2017-11-19T10:25:07Z</time>
      </trkpt>
      <trkpt lat="45.94448" lon="4.7302">
        <ele>169</ele>
        <time>2017-11-19T10:25:08Z</time>
      </trkpt>
      <trkpt lat="45.9445" lon="4.73027">
        <ele>169</ele>
        <time>2017-11-19T10:25:09Z</time>
      </trkpt>
      <trkpt lat="45.94451" lon="4.73034">
        <ele>169</ele>
        <time>2017-11-19T10:25:10Z</time>
      </trkpt>
      <trkpt lat="45.94452" lon="4.73041">
        <ele>169</ele>
        <time>2017-11-19T10:25:11Z</time>
      </trkpt>
      <trkpt lat="45.94452" lon="4.73047">
        <ele>169</ele>
        <time>2017-11-19T10:25:12Z</time>
      </trkpt>
      <trkpt lat="45.94453" lon="4.73054">
        <ele>170</ele>
        <time>2017-11-19T10:25:13Z</time>
      </trkpt>
      <trkpt lat="45.94454" lon="4.73061">
        <ele>170</ele>
        <time>2017-11-19T10:25:14Z</time>
      </trkpt>
      <trkpt lat="45.94455" lon="4.73067">
        <ele>170</ele>
        <time>2017-11-19T10:25:15Z</time>
      </trkpt>
      <trkpt lat="45.94457" lon="4.73077">
        <ele>170</ele>
        <time>2017-11-19T10:25:18Z</time>
      </trkpt>
      <trkpt lat="45.94459" lon="4.73079">
        <ele>170</ele>
        <time>2017-11-19T10:25:19Z</time>
      </trkpt>
      <trkpt lat="45.94465" lon="4.73079">
        <ele>170</ele>
        <time>2017-11-19T10:25:21Z</time>
      </trkpt>
      <trkpt lat="45.94469" lon="4.73079">
        <ele>170</ele>
        <time>2017-11-19T10:25:22Z</time>
      </trkpt>
      <trkpt lat="45.94478" lon="4.73082">
        <ele>171</ele>
        <time>2017-11-19T10:25:24Z</time>
      </trkpt>
      <trkpt lat="45.94482" lon="4.73085">
        <ele>172</ele>
        <time>2017-11-19T10:25:25Z</time>
      </trkpt>
      <trkpt lat="45.94487" lon="4.73087">
        <ele>172</ele>
        <time>2017-11-19T10:25:26Z</time>
      </trkpt>
      <trkpt lat="45.94493" lon="4.73092">
        <ele>172</ele>
        <time>2017-11-19T10:25:27Z</time>
      </trkpt>
      <trkpt lat="45.94498" lon="4.73094">
        <ele>172</ele>
        <time>2017-11-19T10:25:28Z</time>
      </trkpt>
      <trkpt lat="45.94503" lon="4.73097">
        <ele>172</ele>
        <time>2017-11-19T10:25:29Z</time>
      </trkpt>
      <trkpt lat="45.94507" lon="4.73098">
        <ele>172</ele>
        <time>2017-11-19T10:25:30Z</time>
      </trkpt>
      <trkpt lat="45.94512" lon="4.73099">
        <ele>172</ele>
        <time>2017-11-19T10:25:31Z</time>
      </trkpt>
      <trkpt lat="45.94519" lon="4.73101">
        <ele>173</ele>
        <time>2017-11-19T10:25:33Z</time>
      </trkpt>
      <trkpt lat="45.94522" lon="4.73103">
        <ele>173</ele>
        <time>2017-11-19T10:25:34Z</time>
      </trkpt>
      <trkpt lat="45.9453" lon="4.73106">
        <ele>173</ele>
        <time>2017-11-19T10:25:36Z</time>
      </trkpt>
      <trkpt lat="45.94534" lon="4.73107">
        <ele>173</ele>
        <time>2017-11-19T10:25:37Z</time>
      </trkpt>
      <trkpt lat="45.9454" lon="4.73111">
        <ele>173</ele>
        <time>2017-11-19T10:25:39Z</time>
      </trkpt>
      <trkpt lat="45.94543" lon="4.73112">
        <ele>173</ele>
        <time>2017-11-19T10:25:40Z</time>
      </trkpt>
      <trkpt lat="45.94546" lon="4.73101">
        <ele>173</ele>
        <time>2017-11-19T10:25:43Z</time>
      </trkpt>
      <trkpt lat="45.94545" lon="4.73095">
        <ele>173</ele>
        <time>2017-11-19T10:25:44Z</time>
      </trkpt>
      <trkpt lat="45.94544" lon="4.73085">
        <ele>172</ele>
        <time>2017-11-19T10:25:46Z</time>
      </trkpt>
      <trkpt lat="45.94544" lon="4.7308">
        <ele>172</ele>
        <time>2017-11-19T10:25:47Z</time>
      </trkpt>
      <trkpt lat="45.94544" lon="4.73072">
        <ele>172</ele>
        <time>2017-11-19T10:25:49Z</time>
      </trkpt>
      <trkpt lat="45.94544" lon="4.73067">
        <ele>172</ele>
        <time>2017-11-19T10:25:50Z</time>
      </trkpt>
      <trkpt lat="45.94545" lon="4.73058">
        <ele>172</ele>
        <time>2017-11-19T10:25:52Z</time>
      </trkpt>
      <trkpt lat="45.94545" lon="4.73053">
        <ele>172</ele>
        <time>2017-11-19T10:25:53Z</time>
      </trkpt>
      <trkpt lat="45.94545" lon="4.73041">
        <ele>171</ele>
        <time>2017-11-19T10:25:56Z</time>
      </trkpt>
      <trkpt lat="45.94545" lon="4.73037">
        <ele>171</ele>
        <time>2017-11-19T10:25:57Z</time>
      </trkpt>
      <trkpt lat="45.94539" lon="4.73028">
        <ele>171</ele>
        <time>2017-11-19T10:26:01Z</time>
      </trkpt>
      <trkpt lat="45.94537" lon="4.73026">
        <ele>171</ele>
        <time>2017-11-19T10:26:02Z</time>
      </trkpt>
      <trkpt lat="45.94532" lon="4.73019">
        <ele>171</ele>
        <time>2017-11-19T10:26:04Z</time>
      </trkpt>
      <trkpt lat="45.9453" lon="4.73017">
        <ele>171</ele>
        <time>2017-11-19T10:26:05Z</time>
      </trkpt>
      <trkpt lat="45.94522" lon="4.73014">
        <ele>171</ele>
        <time>2017-11-19T10:26:07Z</time>
      </trkpt>
      <trkpt lat="45.94518" lon="4.73014">
        <ele>171</ele>
        <time>2017-11-19T10:26:08Z</time>
      </trkpt>
      <trkpt lat="45.94513" lon="4.73015">
        <ele>171</ele>
        <time>2017-11-19T10:26:09Z</time>
      </trkpt>
      <trkpt lat="45.94508" lon="4.73015">
        <ele>171</ele>
        <time>2017-11-19T10:26:10Z</time>
      </trkpt>
      <trkpt lat="45.94499" lon="4.73016">
        <ele>170</ele>
        <time>2017-11-19T10:26:12Z</time>
      </trkpt>
      <trkpt lat="45.94495" lon="4.73015">
        <ele>170</ele>
        <time>2017-11-19T10:26:13Z</time>
      </trkpt>
      <trkpt lat="45.94487" lon="4.73017">
        <ele>170</ele>
        <time>2017-11-19T10:26:15Z</time>
      </trkpt>
      <trkpt lat="45.94483" lon="4.73017">
        <ele>170</ele>
        <time>2017-11-19T10:26:16Z</time>
      </trkpt>
      <trkpt lat="45.94475" lon="4.73015">
        <ele>170</ele>
        <time>2017-11-19T10:26:18Z</time>
      </trkpt>
      <trkpt lat="45.94472" lon="4.73015">
        <ele>170</ele>
        <time>2017-11-19T10:26:19Z</time>
      </trkpt>
      <trkpt lat="45.94464" lon="4.73016">
        <ele>169</ele>
        <time>2017-11-19T10:26:21Z</time>
      </trkpt>
      <trkpt lat="45.94461" lon="4.73016">
        <ele>169</ele>
        <time>2017-11-19T10:26:22Z</time>
      </trkpt>
      <trkpt lat="45.94454" lon="4.73016">
        <ele>169</ele>
        <time>2017-11-19T10:26:24Z</time>
      </trkpt>
      <trkpt lat="45.9445" lon="4.73017">
        <ele>169</ele>
        <time>2017-11-19T10:26:25Z</time>
      </trkpt>
      <trkpt lat="45.94442" lon="4.73021">
        <ele>169</ele>
        <time>2017-11-19T10:26:27Z</time>
      </trkpt>
      <trkpt lat="45.94439" lon="4.73024">
        <ele>169</ele>
        <time>2017-11-19T10:26:28Z</time>
      </trkpt>
      <trkpt lat="45.94434" lon="4.73032">
        <ele>169</ele>
        <time>2017-11-19T10:26:30Z</time>
      </trkpt>
      <trkpt lat="45.94431" lon="4.73035">
        <ele>169</ele>
        <time>2017-11-19T10:26:31Z</time>
      </trkpt>
      <trkpt lat="45.94425" lon="4.73042">
        <ele>169</ele>
        <time>2017-11-19T10:26:33Z</time>
      </trkpt>
      <trkpt lat="45.94423" lon="4.73046">
        <ele>169</ele>
        <time>2017-11-19T10:26:34Z</time>
      </trkpt>
      <trkpt lat="45.94417" lon="4.73053">
        <ele>169</ele>
        <time>2017-11-19T10:26:36Z</time>
      </trkpt>
      <trkpt lat="45.94413" lon="4.73057">
        <ele>167</ele>
        <time>2017-11-19T10:26:37Z</time>
      </trkpt>
      <trkpt lat="45.94406" lon="4.73065">
        <ele>168</ele>
        <time>2017-11-19T10:26:39Z</time>
      </trkpt>
      <trkpt lat="45.94404" lon="4.73068">
        <ele>168</ele>
        <time>2017-11-19T10:26:40Z</time>
      </trkpt>
      <trkpt lat="45.94398" lon="4.73075">
        <ele>168</ele>
        <time>2017-11-19T10:26:42Z</time>
      </trkpt>
      <trkpt lat="45.94395" lon="4.73078">
        <ele>168</ele>
        <time>2017-11-19T10:26:43Z</time>
      </trkpt>
      <trkpt lat="45.94387" lon="4.73082">
        <ele>167</ele>
        <time>2017-11-19T10:26:45Z</time>
      </trkpt>
      <trkpt lat="45.94383" lon="4.73085">
        <ele>169</ele>
        <time>2017-11-19T10:26:46Z</time>
      </trkpt>
      <trkpt lat="45.94376" lon="4.73091">
        <ele>169</ele>
        <time>2017-11-19T10:26:48Z</time>
      </trkpt>
      <trkpt lat="45.94373" lon="4.73094">
        <ele>169</ele>
        <time>2017-11-19T10:26:49Z</time>
      </trkpt>
      <trkpt lat="45.94366" lon="4.731">
        <ele>169</ele>
        <time>2017-11-19T10:26:51Z</time>
      </trkpt>
      <trkpt lat="45.94363" lon="4.73103">
        <ele>169</ele>
        <time>2017-11-19T10:26:52Z</time>
      </trkpt>
      <trkpt lat="45.94356" lon="4.73109">
        <ele>169</ele>
        <time>2017-11-19T10:26:54Z</time>
      </trkpt>
      <trkpt lat="45.94353" lon="4.73112">
        <ele>169</ele>
        <time>2017-11-19T10:26:55Z</time>
      </trkpt>
      <trkpt lat="45.94346" lon="4.7312">
        <ele>169</ele>
        <time>2017-11-19T10:26:57Z</time>
      </trkpt>
      <trkpt lat="45.94342" lon="4.73123">
        <ele>169</ele>
        <time>2017-11-19T10:26:58Z</time>
      </trkpt>
      <trkpt lat="45.94337" lon="4.73128">
        <ele>169</ele>
        <time>2017-11-19T10:26:59Z</time>
      </trkpt>
      <trkpt lat="45.94333" lon="4.73129">
        <ele>168</ele>
        <time>2017-11-19T10:27:00Z</time>
      </trkpt>
      <trkpt lat="45.94325" lon="4.73134">
        <ele>168</ele>
        <time>2017-11-19T10:27:02Z</time>
      </trkpt>
      <trkpt lat="45.94322" lon="4.73137">
        <ele>168</ele>
        <time>2017-11-19T10:27:03Z</time>
      </trkpt>
      <trkpt lat="45.94315" lon="4.73141">
        <ele>168</ele>
        <time>2017-11-19T10:27:05Z</time>
      </trkpt>
      <trkpt lat="45.94311" lon="4.73145">
        <ele>168</ele>
        <time>2017-11-19T10:27:06Z</time>
      </trkpt>
      <trkpt lat="45.94304" lon="4.73151">
        <ele>168</ele>
        <time>2017-11-19T10:27:08Z</time>
      </trkpt>
      <trkpt lat="45.94301" lon="4.73154">
        <ele>168</ele>
        <time>2017-11-19T10:27:09Z</time>
      </trkpt>
      <trkpt lat="45.94294" lon="4.7316">
        <ele>167</ele>
        <time>2017-11-19T10:27:11Z</time>
      </trkpt>
      <trkpt lat="45.94292" lon="4.73163">
        <ele>167</ele>
        <time>2017-11-19T10:27:12Z</time>
      </trkpt>
      <trkpt lat="45.94285" lon="4.73172">
        <ele>170</ele>
        <time>2017-11-19T10:27:15Z</time>
      </trkpt>
      <trkpt lat="45.94283" lon="4.73174">
        <ele>170</ele>
        <time>2017-11-19T10:27:16Z</time>
      </trkpt>
      <trkpt lat="45.94276" lon="4.73179">
        <ele>169</ele>
        <time>2017-11-19T10:27:21Z</time>
      </trkpt>
      <trkpt lat="45.94274" lon="4.7318">
        <ele>169</ele>
        <time>2017-11-19T10:27:22Z</time>
      </trkpt>
      <trkpt lat="45.94266" lon="4.73186">
        <ele>169</ele>
        <time>2017-11-19T10:27:25Z</time>
      </trkpt>
      <trkpt lat="45.94263" lon="4.73189">
        <ele>169</ele>
        <time>2017-11-19T10:27:26Z</time>
      </trkpt>
      <trkpt lat="45.94256" lon="4.73194">
        <ele>169</ele>
        <time>2017-11-19T10:27:28Z</time>
      </trkpt>
      <trkpt lat="45.94253" lon="4.73196">
        <ele>169</ele>
        <time>2017-11-19T10:27:29Z</time>
      </trkpt>
      <trkpt lat="45.94245" lon="4.73202">
        <ele>168</ele>
        <time>2017-11-19T10:27:31Z</time>
      </trkpt>
      <trkpt lat="45.94241" lon="4.73205">
        <ele>168</ele>
        <time>2017-11-19T10:27:32Z</time>
      </trkpt>
      <trkpt lat="45.94234" lon="4.7321">
        <ele>169</ele>
        <time>2017-11-19T10:27:34Z</time>
      </trkpt>
      <trkpt lat="45.94231" lon="4.73213">
        <ele>169</ele>
        <time>2017-11-19T10:27:35Z</time>
      </trkpt>
      <trkpt lat="45.94224" lon="4.73218">
        <ele>169</ele>
        <time>2017-11-19T10:27:37Z</time>
      </trkpt>
      <trkpt lat="45.94221" lon="4.73221">
        <ele>169</ele>
        <time>2017-11-19T10:27:38Z</time>
      </trkpt>
      <trkpt lat="45.94214" lon="4.73227">
        <ele>169</ele>
        <time>2017-11-19T10:27:40Z</time>
      </trkpt>
      <trkpt lat="45.9421" lon="4.7323">
        <ele>169</ele>
        <time>2017-11-19T10:27:41Z</time>
      </trkpt>
      <trkpt lat="45.94203" lon="4.73236">
        <ele>169</ele>
        <time>2017-11-19T10:27:43Z</time>
      </trkpt>
      <trkpt lat="45.94199" lon="4.73239">
        <ele>169</ele>
        <time>2017-11-19T10:27:44Z</time>
      </trkpt>
      <trkpt lat="45.94192" lon="4.73246">
        <ele>169</ele>
        <time>2017-11-19T10:27:46Z</time>
      </trkpt>
      <trkpt lat="45.94189" lon="4.7325">
        <ele>169</ele>
        <time>2017-11-19T10:27:47Z</time>
      </trkpt>
      <trkpt lat="45.94182" lon="4.73255">
        <ele>171</ele>
        <time>2017-11-19T10:27:49Z</time>
      </trkpt>
      <trkpt lat="45.94178" lon="4.73259">
        <ele>171</ele>
        <time>2017-11-19T10:27:50Z</time>
      </trkpt>
      <trkpt lat="45.94174" lon="4.73263">
        <ele>171</ele>
        <time>2017-11-19T10:27:51Z</time>
      </trkpt>
      <trkpt lat="45.94171" lon="4.73267">
        <ele>171</ele>
        <time>2017-11-19T10:27:52Z</time>
      </trkpt>
      <trkpt lat="45.94163" lon="4.73274">
        <ele>170</ele>
        <time>2017-11-19T10:27:54Z</time>
      </trkpt>
      <trkpt lat="45.94159" lon="4.73278">
        <ele>170</ele>
        <time>2017-11-19T10:27:55Z</time>
      </trkpt>
      <trkpt lat="45.94152" lon="4.73286">
        <ele>170</ele>
        <time>2017-11-19T10:27:57Z</time>
      </trkpt>
      <trkpt lat="45.94149" lon="4.7329">
        <ele>170</ele>
        <time>2017-11-19T10:27:58Z</time>
      </trkpt>
      <trkpt lat="45.94144" lon="4.73296">
        <ele>170</ele>
        <time>2017-11-19T10:28:00Z</time>
      </trkpt>
      <trkpt lat="45.94141" lon="4.733">
        <ele>170</ele>
        <time>2017-11-19T10:28:01Z</time>
      </trkpt>
      <trkpt lat="45.94136" lon="4.73308">
        <ele>171</ele>
        <time>2017-11-19T10:28:03Z</time>
      </trkpt>
      <trkpt lat="45.94133" lon="4.73313">
        <ele>171</ele>
        <time>2017-11-19T10:28:04Z</time>
      </trkpt>
      <trkpt lat="45.94128" lon="4.73319">
        <ele>171</ele>
        <time>2017-11-19T10:28:06Z</time>
      </trkpt>
      <trkpt lat="45.94124" lon="4.73322">
        <ele>171</ele>
        <time>2017-11-19T10:28:07Z</time>
      </trkpt>
      <trkpt lat="45.94118" lon="4.73329">
        <ele>171</ele>
        <time>2017-11-19T10:28:09Z</time>
      </trkpt>
      <trkpt lat="45.94115" lon="4.73334">
        <ele>173</ele>
        <time>2017-11-19T10:28:10Z</time>
      </trkpt>
      <trkpt lat="45.94109" lon="4.73342">
        <ele>173</ele>
        <time>2017-11-19T10:28:12Z</time>
      </trkpt>
      <trkpt lat="45.94107" lon="4.73346">
        <ele>173</ele>
        <time>2017-11-19T10:28:13Z</time>
      </trkpt>
      <trkpt lat="45.94101" lon="4.73355">
        <ele>173</ele>
        <time>2017-11-19T10:28:15Z</time>
      </trkpt>
      <trkpt lat="45.94098" lon="4.7336">
        <ele>173</ele>
        <time>2017-11-19T10:28:16Z</time>
      </trkpt>
      <trkpt lat="45.94093" lon="4.73369">
        <ele>173</ele>
        <time>2017-11-19T10:28:18Z</time>
      </trkpt>
      <trkpt lat="45.94091" lon="4.73374">
        <ele>173</ele>
        <time>2017-11-19T10:28:19Z</time>
      </trkpt>
      <trkpt lat="45.94086" lon="4.73383">
        <ele>174</ele>
        <time>2017-11-19T10:28:21Z</time>
      </trkpt>
      <trkpt lat="45.94083" lon="4.73387">
        <ele>171</ele>
        <time>2017-11-19T10:28:22Z</time>
      </trkpt>
      <trkpt lat="45.94078" lon="4.73396">
        <ele>171</ele>
        <time>2017-11-19T10:28:24Z</time>
      </trkpt>
      <trkpt lat="45.94075" lon="4.73401">
        <ele>172</ele>
        <time>2017-11-19T10:28:25Z</time>
      </trkpt>
      <trkpt lat="45.94069" lon="4.73411">
        <ele>172</ele>
        <time>2017-11-19T10:28:27Z</time>
      </trkpt>
      <trkpt lat="45.94067" lon="4.73416">
        <ele>172</ele>
        <time>2017-11-19T10:28:28Z</time>
      </trkpt>
      <trkpt lat="45.94062" lon="4.73424">
        <ele>172</ele>
        <time>2017-11-19T10:28:30Z</time>
      </trkpt>
      <trkpt lat="45.94059" lon="4.73428">
        <ele>172</ele>
        <time>2017-11-19T10:28:31Z</time>
      </trkpt>
      <trkpt lat="45.94055" lon="4.73436">
        <ele>172</ele>
        <time>2017-11-19T10:28:33Z</time>
      </trkpt>
      <trkpt lat="45.94052" lon="4.7344">
        <ele>172</ele>
        <time>2017-11-19T10:28:34Z</time>
      </trkpt>
      <trkpt lat="45.94047" lon="4.73448">
        <ele>171</ele>
        <time>2017-11-19T10:28:36Z</time>
      </trkpt>
      <trkpt lat="45.94044" lon="4.73453">
        <ele>171</ele>
        <time>2017-11-19T10:28:37Z</time>
      </trkpt>
      <trkpt lat="45.94039" lon="4.73461">
        <ele>171</ele>
        <time>2017-11-19T10:28:39Z</time>
      </trkpt>
      <trkpt lat="45.94037" lon="4.73466">
        <ele>171</ele>
        <time>2017-11-19T10:28:40Z</time>
      </trkpt>
      <trkpt lat="45.94032" lon="4.73476">
        <ele>171</ele>
        <time>2017-11-19T10:28:42Z</time>
      </trkpt>
      <trkpt lat="45.94029" lon="4.7348">
        <ele>171</ele>
        <time>2017-11-19T10:28:43Z</time>
      </trkpt>
      <trkpt lat="45.94024" lon="4.7349">
        <ele>170</ele>
        <time>2017-11-19T10:28:45Z</time>
      </trkpt>
      <trkpt lat="45.94021" lon="4.73495">
        <ele>170</ele>
        <time>2017-11-19T10:28:46Z</time>
      </trkpt>
      <trkpt lat="45.94018" lon="4.73505">
        <ele>171</ele>
        <time>2017-11-19T10:28:48Z</time>
      </trkpt>
      <trkpt lat="45.94015" lon="4.7351">
        <ele>171</ele>
        <time>2017-11-19T10:28:49Z</time>
      </trkpt>
      <trkpt lat="45.94011" lon="4.7352">
        <ele>171</ele>
        <time>2017-11-19T10:28:51Z</time>
      </trkpt>
      <trkpt lat="45.94008" lon="4.73525">
        <ele>171</ele>
        <time>2017-11-19T10:28:52Z</time>
      </trkpt>
      <trkpt lat="45.94003" lon="4.73534">
        <ele>171</ele>
        <time>2017-11-19T10:28:54Z</time>
      </trkpt>
      <trkpt lat="45.94001" lon="4.7354">
        <ele>171</ele>
        <time>2017-11-19T10:28:55Z</time>
      </trkpt>
      <trkpt lat="45.93998" lon="4.73547">
        <ele>168</ele>
        <time>2017-11-19T10:28:56Z</time>
      </trkpt>
      <trkpt lat="45.93996" lon="4.73552">
        <ele>168</ele>
        <time>2017-11-19T10:28:57Z</time>
      </trkpt>
      <trkpt lat="45.93991" lon="4.73563">
        <ele>168</ele>
        <time>2017-11-19T10:28:59Z</time>
      </trkpt>
      <trkpt lat="45.93989" lon="4.73569">
        <ele>168</ele>
        <time>2017-11-19T10:29:00Z</time>
      </trkpt>
      <trkpt lat="45.93986" lon="4.73578">
        <ele>168</ele>
        <time>2017-11-19T10:29:02Z</time>
      </trkpt>
      <trkpt lat="45.93985" lon="4.73583">
        <ele>168</ele>
        <time>2017-11-19T10:29:03Z</time>
      </trkpt>
      <trkpt lat="45.93981" lon="4.73592">
        <ele>169</ele>
        <time>2017-11-19T10:29:05Z</time>
      </trkpt>
      <trkpt lat="45.9398" lon="4.73596">
        <ele>169</ele>
        <time>2017-11-19T10:29:06Z</time>
      </trkpt>
      <trkpt lat="45.93977" lon="4.73606">
        <ele>169</ele>
        <time>2017-11-19T10:29:08Z</time>
      </trkpt>
      <trkpt lat="45.93975" lon="4.73611">
        <ele>170</ele>
        <time>2017-11-19T10:29:09Z</time>
      </trkpt>
      <trkpt lat="45.93973" lon="4.73622">
        <ele>170</ele>
        <time>2017-11-19T10:29:11Z</time>
      </trkpt>
      <trkpt lat="45.93972" lon="4.73629">
        <ele>170</ele>
        <time>2017-11-19T10:29:12Z</time>
      </trkpt>
      <trkpt lat="45.93969" lon="4.7364">
        <ele>170</ele>
        <time>2017-11-19T10:29:14Z</time>
      </trkpt>
      <trkpt lat="45.93967" lon="4.73646">
        <ele>170</ele>
        <time>2017-11-19T10:29:15Z</time>
      </trkpt>
      <trkpt lat="45.93965" lon="4.73657">
        <ele>171</ele>
        <time>2017-11-19T10:29:17Z</time>
      </trkpt>
      <trkpt lat="45.93964" lon="4.73662">
        <ele>171</ele>
        <time>2017-11-19T10:29:18Z</time>
      </trkpt>
      <trkpt lat="45.93962" lon="4.73672">
        <ele>172</ele>
        <time>2017-11-19T10:29:20Z</time>
      </trkpt>
      <trkpt lat="45.93961" lon="4.73678">
        <ele>172</ele>
        <time>2017-11-19T10:29:21Z</time>
      </trkpt>
      <trkpt lat="45.93959" lon="4.73688">
        <ele>172</ele>
        <time>2017-11-19T10:29:23Z</time>
      </trkpt>
      <trkpt lat="45.93958" lon="4.73694">
        <ele>172</ele>
        <time>2017-11-19T10:29:24Z</time>
      </trkpt>
      <trkpt lat="45.93956" lon="4.73705">
        <ele>172</ele>
        <time>2017-11-19T10:29:26Z</time>
      </trkpt>
      <trkpt lat="45.93955" lon="4.73711">
        <ele>172</ele>
        <time>2017-11-19T10:29:27Z</time>
      </trkpt>
      <trkpt lat="45.93954" lon="4.73721">
        <ele>172</ele>
        <time>2017-11-19T10:29:29Z</time>
      </trkpt>
      <trkpt lat="45.93954" lon="4.73726">
        <ele>172</ele>
        <time>2017-11-19T10:29:30Z</time>
      </trkpt>
      <trkpt lat="45.93954" lon="4.73738">
        <ele>172</ele>
        <time>2017-11-19T10:29:32Z</time>
      </trkpt>
      <trkpt lat="45.93955" lon="4.73744">
        <ele>172</ele>
        <time>2017-11-19T10:29:33Z</time>
      </trkpt>
      <trkpt lat="45.93954" lon="4.73756">
        <ele>172</ele>
        <time>2017-11-19T10:29:35Z</time>
      </trkpt>
      <trkpt lat="45.93954" lon="4.73762">
        <ele>172</ele>
        <time>2017-11-19T10:29:36Z</time>
      </trkpt>
      <trkpt lat="45.93953" lon="4.73769">
        <ele>172</ele>
        <time>2017-11-19T10:29:37Z</time>
      </trkpt>
      <trkpt lat="45.93952" lon="4.73776">
        <ele>172</ele>
        <time>2017-11-19T10:29:38Z</time>
      </trkpt>
      <trkpt lat="45.93951" lon="4.73789">
        <ele>172</ele>
        <time>2017-11-19T10:29:40Z</time>
      </trkpt>
      <trkpt lat="45.93952" lon="4.73795">
        <ele>172</ele>
        <time>2017-11-19T10:29:41Z</time>
      </trkpt>
      <trkpt lat="45.93951" lon="4.73806">
        <ele>172</ele>
        <time>2017-11-19T10:29:43Z</time>
      </trkpt>
      <trkpt lat="45.93951" lon="4.73812">
        <ele>172</ele>
        <time>2017-11-19T10:29:44Z</time>
      </trkpt>
      <trkpt lat="45.93949" lon="4.73822">
        <ele>172</ele>
        <time>2017-11-19T10:29:46Z</time>
      </trkpt>
      <trkpt lat="45.93948" lon="4.73827">
        <ele>172</ele>
        <time>2017-11-19T10:29:47Z</time>
      </trkpt>
      <trkpt lat="45.93946" lon="4.73838">
        <ele>172</ele>
        <time>2017-11-19T10:29:49Z</time>
      </trkpt>
      <trkpt lat="45.93945" lon="4.73844">
        <ele>172</ele>
        <time>2017-11-19T10:29:50Z</time>
      </trkpt>
      <trkpt lat="45.93944" lon="4.73855">
        <ele>172</ele>
        <time>2017-11-19T10:29:52Z</time>
      </trkpt>
      <trkpt lat="45.93944" lon="4.73861">
        <ele>172</ele>
        <time>2017-11-19T10:29:53Z</time>
      </trkpt>
      <trkpt lat="45.93944" lon="4.73872">
        <ele>172</ele>
        <time>2017-11-19T10:29:55Z</time>
      </trkpt>
      <trkpt lat="45.93944" lon="4.73877">
        <ele>172</ele>
        <time>2017-11-19T10:29:56Z</time>
      </trkpt>
      <trkpt lat="45.93942" lon="4.73888">
        <ele>172</ele>
        <time>2017-11-19T10:29:58Z</time>
      </trkpt>
      <trkpt lat="45.93942" lon="4.73893">
        <ele>172</ele>
        <time>2017-11-19T10:29:59Z</time>
      </trkpt>
      <trkpt lat="45.9394" lon="4.73903">
        <ele>172</ele>
        <time>2017-11-19T10:30:01Z</time>
      </trkpt>
      <trkpt lat="45.93939" lon="4.73908">
        <ele>172</ele>
        <time>2017-11-19T10:30:02Z</time>
      </trkpt>
      <trkpt lat="45.93938" lon="4.73919">
        <ele>172</ele>
        <time>2017-11-19T10:30:04Z</time>
      </trkpt>
      <trkpt lat="45.93936" lon="4.73925">
        <ele>172</ele>
        <time>2017-11-19T10:30:05Z</time>
      </trkpt>
      <trkpt lat="45.93935" lon="4.73936">
        <ele>172</ele>
        <time>2017-11-19T10:30:07Z</time>
      </trkpt>
      <trkpt lat="45.93934" lon="4.73941">
        <ele>172</ele>
        <time>2017-11-19T10:30:08Z</time>
      </trkpt>
      <trkpt lat="45.93932" lon="4.73953">
        <ele>172</ele>
        <time>2017-11-19T10:30:10Z</time>
      </trkpt>
      <trkpt lat="45.93931" lon="4.73959">
        <ele>172</ele>
        <time>2017-11-19T10:30:11Z</time>
      </trkpt>
      <trkpt lat="45.9393" lon="4.7397">
        <ele>172</ele>
        <time>2017-11-19T10:30:13Z</time>
      </trkpt>
      <trkpt lat="45.93929" lon="4.73976">
        <ele>172</ele>
        <time>2017-11-19T10:30:14Z</time>
      </trkpt>
      <trkpt lat="45.93927" lon="4.73986">
        <ele>172</ele>
        <time>2017-11-19T10:30:16Z</time>
      </trkpt>
      <trkpt lat="45.93927" lon="4.73991">
        <ele>172</ele>
        <time>2017-11-19T10:30:17Z</time>
      </trkpt>
      <trkpt lat="45.93926" lon="4.74002">
        <ele>172</ele>
        <time>2017-11-19T10:30:19Z</time>
      </trkpt>
      <trkpt lat="45.93925" lon="4.74007">
        <ele>172</ele>
        <time>2017-11-19T10:30:20Z</time>
      </trkpt>
      <trkpt lat="45.93924" lon="4.74018">
        <ele>171</ele>
        <time>2017-11-19T10:30:22Z</time>
      </trkpt>
      <trkpt lat="45.93923" lon="4.74023">
        <ele>171</ele>
        <time>2017-11-19T10:30:23Z</time>
      </trkpt>
      <trkpt lat="45.93922" lon="4.74034">
        <ele>171</ele>
        <time>2017-11-19T10:30:25Z</time>
      </trkpt>
      <trkpt lat="45.93921" lon="4.74039">
        <ele>171</ele>
        <time>2017-11-19T10:30:26Z</time>
      </trkpt>
      <trkpt lat="45.9392" lon="4.74048">
        <ele>171</ele>
        <time>2017-11-19T10:30:28Z</time>
      </trkpt>
      <trkpt lat="45.9392" lon="4.74053">
        <ele>171</ele>
        <time>2017-11-19T10:30:29Z</time>
      </trkpt>
      <trkpt lat="45.93919" lon="4.74063">
        <ele>170</ele>
        <time>2017-11-19T10:30:31Z</time>
      </trkpt>
      <trkpt lat="45.93919" lon="4.74068">
        <ele>170</ele>
        <time>2017-11-19T10:30:32Z</time>
      </trkpt>
      <trkpt lat="45.93918" lon="4.7408">
        <ele>170</ele>
        <time>2017-11-19T10:30:34Z</time>
      </trkpt>
      <trkpt lat="45.93918" lon="4.74085">
        <ele>170</ele>
        <time>2017-11-19T10:30:35Z</time>
      </trkpt>
      <trkpt lat="45.93916" lon="4.74097">
        <ele>170</ele>
        <time>2017-11-19T10:30:37Z</time>
      </trkpt>
      <trkpt lat="45.93916" lon="4.74103">
        <ele>170</ele>
        <time>2017-11-19T10:30:38Z</time>
      </trkpt>
      <trkpt lat="45.93914" lon="4.74115">
        <ele>170</ele>
        <time>2017-11-19T10:30:40Z</time>
      </trkpt>
      <trkpt lat="45.93913" lon="4.74121">
        <ele>170</ele>
        <time>2017-11-19T10:30:41Z</time>
      </trkpt>
      <trkpt lat="45.93912" lon="4.74132">
        <ele>170</ele>
        <time>2017-11-19T10:30:43Z</time>
      </trkpt>
      <trkpt lat="45.93911" lon="4.74139">
        <ele>169</ele>
        <time>2017-11-19T10:30:44Z</time>
      </trkpt>
      <trkpt lat="45.9391" lon="4.74151">
        <ele>169</ele>
        <time>2017-11-19T10:30:46Z</time>
      </trkpt>
      <trkpt lat="45.93909" lon="4.74157">
        <ele>169</ele>
        <time>2017-11-19T10:30:47Z</time>
      </trkpt>
      <trkpt lat="45.93908" lon="4.74168">
        <ele>169</ele>
        <time>2017-11-19T10:30:49Z</time>
      </trkpt>
      <trkpt lat="45.93907" lon="4.74173">
        <ele>169</ele>
        <time>2017-11-19T10:30:50Z</time>
      </trkpt>
      <trkpt lat="45.93907" lon="4.74185">
        <ele>169</ele>
        <time>2017-11-19T10:30:52Z</time>
      </trkpt>
      <trkpt lat="45.93907" lon="4.74191">
        <ele>169</ele>
        <time>2017-11-19T10:30:53Z</time>
      </trkpt>
      <trkpt lat="45.93905" lon="4.74202">
        <ele>169</ele>
        <time>2017-11-19T10:30:55Z</time>
      </trkpt>
      <trkpt lat="45.93905" lon="4.74207">
        <ele>169</ele>
        <time>2017-11-19T10:30:56Z</time>
      </trkpt>
      <trkpt lat="45.93904" lon="4.74218">
        <ele>169</ele>
        <time>2017-11-19T10:30:58Z</time>
      </trkpt>
      <trkpt lat="45.93903" lon="4.74224">
        <ele>170</ele>
        <time>2017-11-19T10:30:59Z</time>
      </trkpt>
      <trkpt lat="45.93903" lon="4.74234">
        <ele>170</ele>
        <time>2017-11-19T10:31:01Z</time>
      </trkpt>
      <trkpt lat="45.93903" lon="4.7424">
        <ele>170</ele>
        <time>2017-11-19T10:31:02Z</time>
      </trkpt>
      <trkpt lat="45.93902" lon="4.74251">
        <ele>170</ele>
        <time>2017-11-19T10:31:04Z</time>
      </trkpt>
      <trkpt lat="45.93902" lon="4.74256">
        <ele>170</ele>
        <time>2017-11-19T10:31:05Z</time>
      </trkpt>
      <trkpt lat="45.93902" lon="4.74268">
        <ele>170</ele>
        <time>2017-11-19T10:31:07Z</time>
      </trkpt>
      <trkpt lat="45.93902" lon="4.74274">
        <ele>170</ele>
        <time>2017-11-19T10:31:08Z</time>
      </trkpt>
      <trkpt lat="45.93901" lon="4.74285">
        <ele>170</ele>
        <time>2017-11-19T10:31:10Z</time>
      </trkpt>
      <trkpt lat="45.93901" lon="4.7429">
        <ele>170</ele>
        <time>2017-11-19T10:31:11Z</time>
      </trkpt>
      <trkpt lat="45.93901" lon="4.74301">
        <ele>170</ele>
        <time>2017-11-19T10:31:13Z</time>
      </trkpt>
      <trkpt lat="45.93901" lon="4.74307">
        <ele>170</ele>
        <time>2017-11-19T10:31:14Z</time>
      </trkpt>
      <trkpt lat="45.93901" lon="4.74318">
        <ele>170</ele>
        <time>2017-11-19T10:31:16Z</time>
      </trkpt>
      <trkpt lat="45.93901" lon="4.74323">
        <ele>170</ele>
        <time>2017-11-19T10:31:17Z</time>
      </trkpt>
      <trkpt lat="45.93901" lon="4.74333">
        <ele>170</ele>
        <time>2017-11-19T10:31:19Z</time>
      </trkpt>
      <trkpt lat="45.93901" lon="4.74339">
        <ele>171</ele>
        <time>2017-11-19T10:31:20Z</time>
      </trkpt>
      <trkpt lat="45.93901" lon="4.7435">
        <ele>171</ele>
        <time>2017-11-19T10:31:22Z</time>
      </trkpt>
      <trkpt lat="45.939" lon="4.74355">
        <ele>171</ele>
        <time>2017-11-19T10:31:23Z</time>
      </trkpt>
      <trkpt lat="45.93901" lon="4.74366">
        <ele>171</ele>
        <time>2017-11-19T10:31:25Z</time>
      </trkpt>
      <trkpt lat="45.93901" lon="4.74372">
        <ele>171</ele>
        <time>2017-11-19T10:31:26Z</time>
      </trkpt>
      <trkpt lat="45.93902" lon="4.74382">
        <ele>171</ele>
        <time>2017-11-19T10:31:28Z</time>
      </trkpt>
      <trkpt lat="45.93903" lon="4.74387">
        <ele>171</ele>
        <time>2017-11-19T10:31:29Z</time>
      </trkpt>
      <trkpt lat="45.93904" lon="4.74397">
        <ele>171</ele>
        <time>2017-11-19T10:31:31Z</time>
      </trkpt>
      <trkpt lat="45.93905" lon="4.74402">
        <ele>171</ele>
        <time>2017-11-19T10:31:32Z</time>
      </trkpt>
      <trkpt lat="45.93906" lon="4.74413">
        <ele>171</ele>
        <time>2017-11-19T10:31:34Z</time>
      </trkpt>
      <trkpt lat="45.93907" lon="4.74418">
        <ele>171</ele>
        <time>2017-11-19T10:31:35Z</time>
      </trkpt>
      <trkpt lat="45.93908" lon="4.74429">
        <ele>171</ele>
        <time>2017-11-19T10:31:37Z</time>
      </trkpt>
      <trkpt lat="45.93908" lon="4.74434">
        <ele>171</ele>
        <time>2017-11-19T10:31:38Z</time>
      </trkpt>
      <trkpt lat="45.93909" lon="4.74445">
        <ele>171</ele>
        <time>2017-11-19T10:31:41Z</time>
      </trkpt>
      <trkpt lat="45.9391" lon="4.7445">
        <ele>171</ele>
        <time>2017-11-19T10:31:42Z</time>
      </trkpt>
      <trkpt lat="45.93911" lon="4.7446">
        <ele>171</ele>
        <time>2017-11-19T10:31:44Z</time>
      </trkpt>
      <trkpt lat="45.93912" lon="4.74465">
        <ele>171</ele>
        <time>2017-11-19T10:31:45Z</time>
      </trkpt>
      <trkpt lat="45.93912" lon="4.74475">
        <ele>171</ele>
        <time>2017-11-19T10:31:47Z</time>
      </trkpt>
      <trkpt lat="45.93912" lon="4.7448">
        <ele>171</ele>
        <time>2017-11-19T10:31:48Z</time>
      </trkpt>
      <trkpt lat="45.93912" lon="4.74492">
        <ele>170</ele>
        <time>2017-11-19T10:31:50Z</time>
      </trkpt>
      <trkpt lat="45.93911" lon="4.74497">
        <ele>170</ele>
        <time>2017-11-19T10:31:51Z</time>
      </trkpt>
      <trkpt lat="45.93911" lon="4.74509">
        <ele>170</ele>
        <time>2017-11-19T10:31:53Z</time>
      </trkpt>
      <trkpt lat="45.9391" lon="4.74515">
        <ele>170</ele>
        <time>2017-11-19T10:31:54Z</time>
      </trkpt>
      <trkpt lat="45.93909" lon="4.74524">
        <ele>170</ele>
        <time>2017-11-19T10:31:56Z</time>
      </trkpt>
      <trkpt lat="45.93909" lon="4.74528">
        <ele>170</ele>
        <time>2017-11-19T10:31:57Z</time>
      </trkpt>
      <trkpt lat="45.93908" lon="4.74538">
        <ele>170</ele>
        <time>2017-11-19T10:31:59Z</time>
      </trkpt>
      <trkpt lat="45.93907" lon="4.74543">
        <ele>170</ele>
        <time>2017-11-19T10:32:00Z</time>
      </trkpt>
      <trkpt lat="45.93904" lon="4.74552">
        <ele>170</ele>
        <time>2017-11-19T10:32:02Z</time>
      </trkpt>
      <trkpt lat="45.93903" lon="4.74557">
        <ele>170</ele>
        <time>2017-11-19T10:32:03Z</time>
      </trkpt>
      <trkpt lat="45.939" lon="4.74567">
        <ele>170</ele>
        <time>2017-11-19T10:32:05Z</time>
      </trkpt>
      <trkpt lat="45.93899" lon="4.74572">
        <ele>170</ele>
        <time>2017-11-19T10:32:06Z</time>
      </trkpt>
      <trkpt lat="45.93896" lon="4.74581">
        <ele>170</ele>
        <time>2017-11-19T10:32:08Z</time>
      </trkpt>
      <trkpt lat="45.93895" lon="4.74586">
        <ele>170</ele>
        <time>2017-11-19T10:32:09Z</time>
      </trkpt>
      <trkpt lat="45.93891" lon="4.74596">
        <ele>170</ele>
        <time>2017-11-19T10:32:11Z</time>
      </trkpt>
      <trkpt lat="45.93889" lon="4.74602">
        <ele>170</ele>
        <time>2017-11-19T10:32:12Z</time>
      </trkpt>
      <trkpt lat="45.93886" lon="4.74613">
        <ele>170</ele>
        <time>2017-11-19T10:32:14Z</time>
      </trkpt>
      <trkpt lat="45.93884" lon="4.74619">
        <ele>170</ele>
        <time>2017-11-19T10:32:15Z</time>
      </trkpt>
      <trkpt lat="45.93882" lon="4.74628">
        <ele>170</ele>
        <time>2017-11-19T10:32:17Z</time>
      </trkpt>
      <trkpt lat="45.9388" lon="4.74633">
        <ele>170</ele>
        <time>2017-11-19T10:32:18Z</time>
      </trkpt>
      <trkpt lat="45.93877" lon="4.74642">
        <ele>170</ele>
        <time>2017-11-19T10:32:20Z</time>
      </trkpt>
      <trkpt lat="45.93876" lon="4.74648">
        <ele>170</ele>
        <time>2017-11-19T10:32:21Z</time>
      </trkpt>
      <trkpt lat="45.93873" lon="4.74659">
        <ele>170</ele>
        <time>2017-11-19T10:32:23Z</time>
      </trkpt>
      <trkpt lat="45.93871" lon="4.74664">
        <ele>170</ele>
        <time>2017-11-19T10:32:24Z</time>
      </trkpt>
      <trkpt lat="45.93868" lon="4.74675">
        <ele>170</ele>
        <time>2017-11-19T10:32:26Z</time>
      </trkpt>
      <trkpt lat="45.93866" lon="4.7468">
        <ele>170</ele>
        <time>2017-11-19T10:32:27Z</time>
      </trkpt>
      <trkpt lat="45.93864" lon="4.74689">
        <ele>170</ele>
        <time>2017-11-19T10:32:29Z</time>
      </trkpt>
      <trkpt lat="45.93862" lon="4.74693">
        <ele>170</ele>
        <time>2017-11-19T10:32:30Z</time>
      </trkpt>
      <trkpt lat="45.93859" lon="4.74702">
        <ele>169</ele>
        <time>2017-11-19T10:32:32Z</time>
      </trkpt>
      <trkpt lat="45.93858" lon="4.74707">
        <ele>169</ele>
        <time>2017-11-19T10:32:33Z</time>
      </trkpt>
      <trkpt lat="45.93855" lon="4.74716">
        <ele>169</ele>
        <time>2017-11-19T10:32:35Z</time>
      </trkpt>
      <trkpt lat="45.93854" lon="4.74721">
        <ele>169</ele>
        <time>2017-11-19T10:32:36Z</time>
      </trkpt>
      <trkpt lat="45.93851" lon="4.74731">
        <ele>169</ele>
        <time>2017-11-19T10:32:38Z</time>
      </trkpt>
      <trkpt lat="45.93849" lon="4.74736">
        <ele>169</ele>
        <time>2017-11-19T10:32:39Z</time>
      </trkpt>
      <trkpt lat="45.93843" lon="4.74745">
        <ele>168</ele>
        <time>2017-11-19T10:32:41Z</time>
      </trkpt>
      <trkpt lat="45.9384" lon="4.74749">
        <ele>168</ele>
        <time>2017-11-19T10:32:42Z</time>
      </trkpt>
      <trkpt lat="45.93836" lon="4.74757">
        <ele>168</ele>
        <time>2017-11-19T10:32:44Z</time>
      </trkpt>
      <trkpt lat="45.93834" lon="4.74762">
        <ele>168</ele>
        <time>2017-11-19T10:32:45Z</time>
      </trkpt>
      <trkpt lat="45.9383" lon="4.74771">
        <ele>167</ele>
        <time>2017-11-19T10:32:47Z</time>
      </trkpt>
      <trkpt lat="45.93829" lon="4.74775">
        <ele>167</ele>
        <time>2017-11-19T10:32:48Z</time>
      </trkpt>
      <trkpt lat="45.93825" lon="4.74782">
        <ele>167</ele>
        <time>2017-11-19T10:32:50Z</time>
      </trkpt>
      <trkpt lat="45.93823" lon="4.74785">
        <ele>167</ele>
        <time>2017-11-19T10:32:51Z</time>
      </trkpt>
      <trkpt lat="45.93818" lon="4.74794">
        <ele>167</ele>
        <time>2017-11-19T10:32:53Z</time>
      </trkpt>
      <trkpt lat="45.93816" lon="4.74799">
        <ele>167</ele>
        <time>2017-11-19T10:32:54Z</time>
      </trkpt>
      <trkpt lat="45.93811" lon="4.74809">
        <ele>167</ele>
        <time>2017-11-19T10:32:56Z</time>
      </trkpt>
      <trkpt lat="45.93808" lon="4.74815">
        <ele>167</ele>
        <time>2017-11-19T10:32:57Z</time>
      </trkpt>
      <trkpt lat="45.93804" lon="4.74825">
        <ele>167</ele>
        <time>2017-11-19T10:32:59Z</time>
      </trkpt>
      <trkpt lat="45.93802" lon="4.74829">
        <ele>167</ele>
        <time>2017-11-19T10:33:00Z</time>
      </trkpt>
      <trkpt lat="45.93798" lon="4.74836">
        <ele>168</ele>
        <time>2017-11-19T10:33:02Z</time>
      </trkpt>
      <trkpt lat="45.93796" lon="4.7484">
        <ele>168</ele>
        <time>2017-11-19T10:33:03Z</time>
      </trkpt>
      <trkpt lat="45.93792" lon="4.74847">
        <ele>168</ele>
        <time>2017-11-19T10:33:05Z</time>
      </trkpt>
      <trkpt lat="45.93789" lon="4.7485">
        <ele>168</ele>
        <time>2017-11-19T10:33:06Z</time>
      </trkpt>
      <trkpt lat="45.93783" lon="4.74858">
        <ele>168</ele>
        <time>2017-11-19T10:33:08Z</time>
      </trkpt>
      <trkpt lat="45.9378" lon="4.74861">
        <ele>168</ele>
        <time>2017-11-19T10:33:09Z</time>
      </trkpt>
      <trkpt lat="45.93775" lon="4.74871">
        <ele>168</ele>
        <time>2017-11-19T10:33:11Z</time>
      </trkpt>
      <trkpt lat="45.93773" lon="4.74876">
        <ele>169</ele>
        <time>2017-11-19T10:33:12Z</time>
      </trkpt>
      <trkpt lat="45.93768" lon="4.74886">
        <ele>169</ele>
        <time>2017-11-19T10:33:14Z</time>
      </trkpt>
      <trkpt lat="45.93766" lon="4.74891">
        <ele>169</ele>
        <time>2017-11-19T10:33:15Z</time>
      </trkpt>
      <trkpt lat="45.9376" lon="4.74899">
        <ele>170</ele>
        <time>2017-11-19T10:33:17Z</time>
      </trkpt>
      <trkpt lat="45.93757" lon="4.74904">
        <ele>170</ele>
        <time>2017-11-19T10:33:18Z</time>
      </trkpt>
      <trkpt lat="45.93751" lon="4.74914">
        <ele>171</ele>
        <time>2017-11-19T10:33:20Z</time>
      </trkpt>
      <trkpt lat="45.93749" lon="4.74919">
        <ele>171</ele>
        <time>2017-11-19T10:33:21Z</time>
      </trkpt>
      <trkpt lat="45.93745" lon="4.74928">
        <ele>170</ele>
        <time>2017-11-19T10:33:23Z</time>
      </trkpt>
      <trkpt lat="45.93743" lon="4.74933">
        <ele>170</ele>
        <time>2017-11-19T10:33:24Z</time>
      </trkpt>
      <trkpt lat="45.9374" lon="4.74941">
        <ele>169</ele>
        <time>2017-11-19T10:33:26Z</time>
      </trkpt>
      <trkpt lat="45.93738" lon="4.74945">
        <ele>169</ele>
        <time>2017-11-19T10:33:27Z</time>
      </trkpt>
      <trkpt lat="45.93734" lon="4.74953">
        <ele>169</ele>
        <time>2017-11-19T10:33:29Z</time>
      </trkpt>
      <trkpt lat="45.93731" lon="4.74958">
        <ele>169</ele>
        <time>2017-11-19T10:33:30Z</time>
      </trkpt>
      <trkpt lat="45.93728" lon="4.74967">
        <ele>168</ele>
        <time>2017-11-19T10:33:32Z</time>
      </trkpt>
      <trkpt lat="45.93726" lon="4.74971">
        <ele>168</ele>
        <time>2017-11-19T10:33:33Z</time>
      </trkpt>
      <trkpt lat="45.93721" lon="4.74981">
        <ele>168</ele>
        <time>2017-11-19T10:33:35Z</time>
      </trkpt>
      <trkpt lat="45.93719" lon="4.74986">
        <ele>168</ele>
        <time>2017-11-19T10:33:36Z</time>
      </trkpt>
      <trkpt lat="45.93716" lon="4.74994">
        <ele>168</ele>
        <time>2017-11-19T10:33:38Z</time>
      </trkpt>
      <trkpt lat="45.93714" lon="4.74998">
        <ele>168</ele>
        <time>2017-11-19T10:33:39Z</time>
      </trkpt>
      <trkpt lat="45.9371" lon="4.75007">
        <ele>167</ele>
        <time>2017-11-19T10:33:41Z</time>
      </trkpt>
      <trkpt lat="45.93709" lon="4.75012">
        <ele>167</ele>
        <time>2017-11-19T10:33:42Z</time>
      </trkpt>
      <trkpt lat="45.93704" lon="4.75022">
        <ele>167</ele>
        <time>2017-11-19T10:33:44Z</time>
      </trkpt>
      <trkpt lat="45.93702" lon="4.75027">
        <ele>167</ele>
        <time>2017-11-19T10:33:45Z</time>
      </trkpt>
      <trkpt lat="45.93697" lon="4.75037">
        <ele>167</ele>
        <time>2017-11-19T10:33:47Z</time>
      </trkpt>
      <trkpt lat="45.93695" lon="4.75042">
        <ele>167</ele>
        <time>2017-11-19T10:33:48Z</time>
      </trkpt>
      <trkpt lat="45.93691" lon="4.7505">
        <ele>167</ele>
        <time>2017-11-19T10:33:50Z</time>
      </trkpt>
      <trkpt lat="45.9369" lon="4.75054">
        <ele>167</ele>
        <time>2017-11-19T10:33:51Z</time>
      </trkpt>
      <trkpt lat="45.93686" lon="4.75063">
        <ele>167</ele>
        <time>2017-11-19T10:33:53Z</time>
      </trkpt>
      <trkpt lat="45.93684" lon="4.75067">
        <ele>167</ele>
        <time>2017-11-19T10:33:54Z</time>
      </trkpt>
      <trkpt lat="45.93682" lon="4.75075">
        <ele>167</ele>
        <time>2017-11-19T10:33:56Z</time>
      </trkpt>
      <trkpt lat="45.9368" lon="4.75079">
        <ele>167</ele>
        <time>2017-11-19T10:33:57Z</time>
      </trkpt>
      <trkpt lat="45.93677" lon="4.75091">
        <ele>168</ele>
        <time>2017-11-19T10:34:00Z</time>
      </trkpt>
      <trkpt lat="45.93675" lon="4.75095">
        <ele>168</ele>
        <time>2017-11-19T10:34:01Z</time>
      </trkpt>
      <trkpt lat="45.9367" lon="4.75106">
        <ele>168</ele>
        <time>2017-11-19T10:34:04Z</time>
      </trkpt>
      <trkpt lat="45.93668" lon="4.75109">
        <ele>168</ele>
        <time>2017-11-19T10:34:05Z</time>
      </trkpt>
      <trkpt lat="45.93665" lon="4.75117">
        <ele>168</ele>
        <time>2017-11-19T10:34:07Z</time>
      </trkpt>
      <trkpt lat="45.93663" lon="4.75121">
        <ele>168</ele>
        <time>2017-11-19T10:34:08Z</time>
      </trkpt>
      <trkpt lat="45.93659" lon="4.7513">
        <ele>168</ele>
        <time>2017-11-19T10:34:10Z</time>
      </trkpt>
      <trkpt lat="45.93657" lon="4.75135">
        <ele>168</ele>
        <time>2017-11-19T10:34:11Z</time>
      </trkpt>
      <trkpt lat="45.93653" lon="4.75146">
        <ele>168</ele>
        <time>2017-11-19T10:34:13Z</time>
      </trkpt>
      <trkpt lat="45.93651" lon="4.75152">
        <ele>168</ele>
        <time>2017-11-19T10:34:14Z</time>
      </trkpt>
      <trkpt lat="45.93649" lon="4.75157">
        <ele>168</ele>
        <time>2017-11-19T10:34:15Z</time>
      </trkpt>
      <trkpt lat="45.93645" lon="4.75163">
        <ele>168</ele>
        <time>2017-11-19T10:34:16Z</time>
      </trkpt>
      <trkpt lat="45.93642" lon="4.7517">
        <ele>168</ele>
        <time>2017-11-19T10:34:17Z</time>
      </trkpt>
      <trkpt lat="45.93639" lon="4.75176">
        <ele>168</ele>
        <time>2017-11-19T10:34:18Z</time>
      </trkpt>
      <trkpt lat="45.93637" lon="4.75181">
        <ele>168</ele>
        <time>2017-11-19T10:34:19Z</time>
      </trkpt>
      <trkpt lat="45.93634" lon="4.75189">
        <ele>168</ele>
        <time>2017-11-19T10:34:20Z</time>
      </trkpt>
      <trkpt lat="45.93632" lon="4.75195">
        <ele>168</ele>
        <time>2017-11-19T10:34:21Z</time>
      </trkpt>
      <trkpt lat="45.9363" lon="4.752">
        <ele>168</ele>
        <time>2017-11-19T10:34:22Z</time>
      </trkpt>
      <trkpt lat="45.93628" lon="4.75208">
        <ele>168</ele>
        <time>2017-11-19T10:34:23Z</time>
      </trkpt>
      <trkpt lat="45.93626" lon="4.75212">
        <ele>167</ele>
        <time>2017-11-19T10:34:24Z</time>
      </trkpt>
      <trkpt lat="45.93624" lon="4.75222">
        <ele>167</ele>
        <time>2017-11-19T10:34:26Z</time>
      </trkpt>
      <trkpt lat="45.93622" lon="4.75226">
        <ele>167</ele>
        <time>2017-11-19T10:34:27Z</time>
      </trkpt>
      <trkpt lat="45.93621" lon="4.75234">
        <ele>167</ele>
        <time>2017-11-19T10:34:29Z</time>
      </trkpt>
      <trkpt lat="45.93619" lon="4.75239">
        <ele>167</ele>
        <time>2017-11-19T10:34:30Z</time>
      </trkpt>
      <trkpt lat="45.93617" lon="4.75249">
        <ele>167</ele>
        <time>2017-11-19T10:34:32Z</time>
      </trkpt>
      <trkpt lat="45.93616" lon="4.75254">
        <ele>168</ele>
        <time>2017-11-19T10:34:33Z</time>
      </trkpt>
      <trkpt lat="45.93615" lon="4.75265">
        <ele>168</ele>
        <time>2017-11-19T10:34:35Z</time>
      </trkpt>
      <trkpt lat="45.93614" lon="4.7527">
        <ele>168</ele>
        <time>2017-11-19T10:34:36Z</time>
      </trkpt>
      <trkpt lat="45.93612" lon="4.75278">
        <ele>168</ele>
        <time>2017-11-19T10:34:38Z</time>
      </trkpt>
      <trkpt lat="45.93611" lon="4.75282">
        <ele>168</ele>
        <time>2017-11-19T10:34:39Z</time>
      </trkpt>
      <trkpt lat="45.93609" lon="4.75293">
        <ele>168</ele>
        <time>2017-11-19T10:34:41Z</time>
      </trkpt>
      <trkpt lat="45.93608" lon="4.75299">
        <ele>168</ele>
        <time>2017-11-19T10:34:42Z</time>
      </trkpt>
      <trkpt lat="45.93608" lon="4.7531">
        <ele>169</ele>
        <time>2017-11-19T10:34:44Z</time>
      </trkpt>
      <trkpt lat="45.93607" lon="4.75316">
        <ele>169</ele>
        <time>2017-11-19T10:34:45Z</time>
      </trkpt>
      <trkpt lat="45.93605" lon="4.75326">
        <ele>169</ele>
        <time>2017-11-19T10:34:47Z</time>
      </trkpt>
      <trkpt lat="45.93604" lon="4.75332">
        <ele>169</ele>
        <time>2017-11-19T10:34:48Z</time>
      </trkpt>
      <trkpt lat="45.93603" lon="4.75338">
        <ele>169</ele>
        <time>2017-11-19T10:34:49Z</time>
      </trkpt>
      <trkpt lat="45.936" lon="4.75345">
        <ele>169</ele>
        <time>2017-11-19T10:34:50Z</time>
      </trkpt>
      <trkpt lat="45.93599" lon="4.75352">
        <ele>169</ele>
        <time>2017-11-19T10:34:51Z</time>
      </trkpt>
      <trkpt lat="45.93598" lon="4.75358">
        <ele>169</ele>
        <time>2017-11-19T10:34:52Z</time>
      </trkpt>
      <trkpt lat="45.93596" lon="4.75369">
        <ele>169</ele>
        <time>2017-11-19T10:34:54Z</time>
      </trkpt>
      <trkpt lat="45.93594" lon="4.75374">
        <ele>169</ele>
        <time>2017-11-19T10:34:55Z</time>
      </trkpt>
      <trkpt lat="45.9359" lon="4.7538">
        <ele>169</ele>
        <time>2017-11-19T10:34:57Z</time>
      </trkpt>
      <trkpt lat="45.93589" lon="4.75385">
        <ele>169</ele>
        <time>2017-11-19T10:34:58Z</time>
      </trkpt>
      <trkpt lat="45.93587" lon="4.75393">
        <ele>169</ele>
        <time>2017-11-19T10:35:00Z</time>
      </trkpt>
      <trkpt lat="45.93587" lon="4.75399">
        <ele>169</ele>
        <time>2017-11-19T10:35:01Z</time>
      </trkpt>
      <trkpt lat="45.93585" lon="4.7541">
        <ele>168</ele>
        <time>2017-11-19T10:35:03Z</time>
      </trkpt>
      <trkpt lat="45.93585" lon="4.75415">
        <ele>168</ele>
        <time>2017-11-19T10:35:04Z</time>
      </trkpt>
      <trkpt lat="45.93583" lon="4.75425">
        <ele>168</ele>
        <time>2017-11-19T10:35:06Z</time>
      </trkpt>
      <trkpt lat="45.93582" lon="4.7543">
        <ele>168</ele>
        <time>2017-11-19T10:35:07Z</time>
      </trkpt>
      <trkpt lat="45.9358" lon="4.75441">
        <ele>168</ele>
        <time>2017-11-19T10:35:09Z</time>
      </trkpt>
      <trkpt lat="45.93579" lon="4.75446">
        <ele>168</ele>
        <time>2017-11-19T10:35:10Z</time>
      </trkpt>
      <trkpt lat="45.93576" lon="4.75457">
        <ele>168</ele>
        <time>2017-11-19T10:35:12Z</time>
      </trkpt>
      <trkpt lat="45.93575" lon="4.75462">
        <ele>168</ele>
        <time>2017-11-19T10:35:13Z</time>
      </trkpt>
      <trkpt lat="45.93573" lon="4.75472">
        <ele>168</ele>
        <time>2017-11-19T10:35:15Z</time>
      </trkpt>
      <trkpt lat="45.93573" lon="4.75478">
        <ele>168</ele>
        <time>2017-11-19T10:35:16Z</time>
      </trkpt>
      <trkpt lat="45.93571" lon="4.7549">
        <ele>169</ele>
        <time>2017-11-19T10:35:18Z</time>
      </trkpt>
      <trkpt lat="45.9357" lon="4.75496">
        <ele>169</ele>
        <time>2017-11-19T10:35:19Z</time>
      </trkpt>
      <trkpt lat="45.93569" lon="4.75502">
        <ele>169</ele>
        <time>2017-11-19T10:35:20Z</time>
      </trkpt>
      <trkpt lat="45.93569" lon="4.75509">
        <ele>169</ele>
        <time>2017-11-19T10:35:21Z</time>
      </trkpt>
      <trkpt lat="45.93568" lon="4.75516">
        <ele>169</ele>
        <time>2017-11-19T10:35:22Z</time>
      </trkpt>
      <trkpt lat="45.93567" lon="4.75523">
        <ele>169</ele>
        <time>2017-11-19T10:35:23Z</time>
      </trkpt>
      <trkpt lat="45.93566" lon="4.7553">
        <ele>169</ele>
        <time>2017-11-19T10:35:24Z</time>
      </trkpt>
      <trkpt lat="45.93565" lon="4.75537">
        <ele>169</ele>
        <time>2017-11-19T10:35:25Z</time>
      </trkpt>
      <trkpt lat="45.93562" lon="4.75549">
        <ele>169</ele>
        <time>2017-11-19T10:35:27Z</time>
      </trkpt>
      <trkpt lat="45.9356" lon="4.75554">
        <ele>169</ele>
        <time>2017-11-19T10:35:28Z</time>
      </trkpt>
      <trkpt lat="45.93559" lon="4.75564">
        <ele>169</ele>
        <time>2017-11-19T10:35:30Z</time>
      </trkpt>
      <trkpt lat="45.93558" lon="4.75568">
        <ele>169</ele>
        <time>2017-11-19T10:35:31Z</time>
      </trkpt>
      <trkpt lat="45.93557" lon="4.75578">
        <ele>169</ele>
        <time>2017-11-19T10:35:33Z</time>
      </trkpt>
      <trkpt lat="45.93556" lon="4.75583">
        <ele>169</ele>
        <time>2017-11-19T10:35:34Z</time>
      </trkpt>
      <trkpt lat="45.93553" lon="4.75593">
        <ele>170</ele>
        <time>2017-11-19T10:35:36Z</time>
      </trkpt>
      <trkpt lat="45.93552" lon="4.75598">
        <ele>170</ele>
        <time>2017-11-19T10:35:37Z</time>
      </trkpt>
      <trkpt lat="45.93549" lon="4.75608">
        <ele>170</ele>
        <time>2017-11-19T10:35:39Z</time>
      </trkpt>
      <trkpt lat="45.93549" lon="4.75614">
        <ele>170</ele>
        <time>2017-11-19T10:35:40Z</time>
      </trkpt>
      <trkpt lat="45.9355" lon="4.75622">
        <ele>170</ele>
        <time>2017-11-19T10:35:41Z</time>
      </trkpt>
      <trkpt lat="45.93549" lon="4.75627">
        <ele>170</ele>
        <time>2017-11-19T10:35:42Z</time>
      </trkpt>
      <trkpt lat="45.93546" lon="4.75639">
        <ele>170</ele>
        <time>2017-11-19T10:35:44Z</time>
      </trkpt>
      <trkpt lat="45.93545" lon="4.75646">
        <ele>170</ele>
        <time>2017-11-19T10:35:45Z</time>
      </trkpt>
      <trkpt lat="45.93543" lon="4.75656">
        <ele>170</ele>
        <time>2017-11-19T10:35:47Z</time>
      </trkpt>
      <trkpt lat="45.93542" lon="4.75662">
        <ele>170</ele>
        <time>2017-11-19T10:35:48Z</time>
      </trkpt>
      <trkpt lat="45.93542" lon="4.75673">
        <ele>170</ele>
        <time>2017-11-19T10:35:50Z</time>
      </trkpt>
      <trkpt lat="45.93541" lon="4.75677">
        <ele>170</ele>
        <time>2017-11-19T10:35:51Z</time>
      </trkpt>
      <trkpt lat="45.93539" lon="4.75686">
        <ele>170</ele>
        <time>2017-11-19T10:35:53Z</time>
      </trkpt>
      <trkpt lat="45.93539" lon="4.75691">
        <ele>170</ele>
        <time>2017-11-19T10:35:54Z</time>
      </trkpt>
      <trkpt lat="45.93537" lon="4.75701">
        <ele>170</ele>
        <time>2017-11-19T10:35:56Z</time>
      </trkpt>
      <trkpt lat="45.93537" lon="4.75707">
        <ele>170</ele>
        <time>2017-11-19T10:35:57Z</time>
      </trkpt>
      <trkpt lat="45.93536" lon="4.75713">
        <ele>170</ele>
        <time>2017-11-19T10:35:58Z</time>
      </trkpt>
      <trkpt lat="45.93535" lon="4.7572">
        <ele>170</ele>
        <time>2017-11-19T10:35:59Z</time>
      </trkpt>
      <trkpt lat="45.93535" lon="4.75727">
        <ele>170</ele>
        <time>2017-11-19T10:36:00Z</time>
      </trkpt>
      <trkpt lat="45.93534" lon="4.75733">
        <ele>170</ele>
        <time>2017-11-19T10:36:01Z</time>
      </trkpt>
      <trkpt lat="45.93534" lon="4.75739">
        <ele>169</ele>
        <time>2017-11-19T10:36:02Z</time>
      </trkpt>
      <trkpt lat="45.93535" lon="4.75747">
        <ele>169</ele>
        <time>2017-11-19T10:36:03Z</time>
      </trkpt>
      <trkpt lat="45.93532" lon="4.75757">
        <ele>169</ele>
        <time>2017-11-19T10:36:06Z</time>
      </trkpt>
      <trkpt lat="45.93532" lon="4.75764">
        <ele>169</ele>
        <time>2017-11-19T10:36:07Z</time>
      </trkpt>
      <trkpt lat="45.9353" lon="4.75774">
        <ele>169</ele>
        <time>2017-11-19T10:36:09Z</time>
      </trkpt>
      <trkpt lat="45.93531" lon="4.75779">
        <ele>169</ele>
        <time>2017-11-19T10:36:10Z</time>
      </trkpt>
      <trkpt lat="45.93532" lon="4.75791">
        <ele>169</ele>
        <time>2017-11-19T10:36:12Z</time>
      </trkpt>
      <trkpt lat="45.9353" lon="4.75794">
        <ele>169</ele>
        <time>2017-11-19T10:36:13Z</time>
      </trkpt>
      <trkpt lat="45.93531" lon="4.75805">
        <ele>169</ele>
        <time>2017-11-19T10:36:15Z</time>
      </trkpt>
      <trkpt lat="45.93532" lon="4.75812">
        <ele>169</ele>
        <time>2017-11-19T10:36:16Z</time>
      </trkpt>
      <trkpt lat="45.9353" lon="4.75824">
        <ele>169</ele>
        <time>2017-11-19T10:36:18Z</time>
      </trkpt>
      <trkpt lat="45.93531" lon="4.75828">
        <ele>169</ele>
        <time>2017-11-19T10:36:19Z</time>
      </trkpt>
      <trkpt lat="45.93534" lon="4.75839">
        <ele>169</ele>
        <time>2017-11-19T10:36:21Z</time>
      </trkpt>
      <trkpt lat="45.93534" lon="4.75845">
        <ele>169</ele>
        <time>2017-11-19T10:36:22Z</time>
      </trkpt>
      <trkpt lat="45.93536" lon="4.75855">
        <ele>169</ele>
        <time>2017-11-19T10:36:24Z</time>
      </trkpt>
      <trkpt lat="45.93535" lon="4.75862">
        <ele>169</ele>
        <time>2017-11-19T10:36:25Z</time>
      </trkpt>
      <trkpt lat="45.93537" lon="4.75868">
        <ele>169</ele>
        <time>2017-11-19T10:36:26Z</time>
      </trkpt>
      <trkpt lat="45.93539" lon="4.75875">
        <ele>169</ele>
        <time>2017-11-19T10:36:27Z</time>
      </trkpt>
      <trkpt lat="45.93541" lon="4.75885">
        <ele>169</ele>
        <time>2017-11-19T10:36:29Z</time>
      </trkpt>
      <trkpt lat="45.93543" lon="4.75891">
        <ele>169</ele>
        <time>2017-11-19T10:36:30Z</time>
      </trkpt>
      <trkpt lat="45.93545" lon="4.75902">
        <ele>169</ele>
        <time>2017-11-19T10:36:32Z</time>
      </trkpt>
      <trkpt lat="45.93546" lon="4.75907">
        <ele>169</ele>
        <time>2017-11-19T10:36:33Z</time>
      </trkpt>
      <trkpt lat="45.93549" lon="4.75915">
        <ele>169</ele>
        <time>2017-11-19T10:36:35Z</time>
      </trkpt>
      <trkpt lat="45.9355" lon="4.7592">
        <ele>169</ele>
        <time>2017-11-19T10:36:36Z</time>
      </trkpt>
      <trkpt lat="45.93554" lon="4.75928">
        <ele>169</ele>
        <time>2017-11-19T10:36:38Z</time>
      </trkpt>
      <trkpt lat="45.93555" lon="4.75933">
        <ele>169</ele>
        <time>2017-11-19T10:36:39Z</time>
      </trkpt>
      <trkpt lat="45.93558" lon="4.75942">
        <ele>169</ele>
        <time>2017-11-19T10:36:41Z</time>
      </trkpt>
      <trkpt lat="45.93559" lon="4.75945">
        <ele>169</ele>
        <time>2017-11-19T10:36:42Z</time>
      </trkpt>
      <trkpt lat="45.93563" lon="4.75953">
        <ele>169</ele>
        <time>2017-11-19T10:36:44Z</time>
      </trkpt>
      <trkpt lat="45.93564" lon="4.75958">
        <ele>169</ele>
        <time>2017-11-19T10:36:45Z</time>
      </trkpt>
      <trkpt lat="45.93566" lon="4.75966">
        <ele>169</ele>
        <time>2017-11-19T10:36:47Z</time>
      </trkpt>
      <trkpt lat="45.93568" lon="4.7597">
        <ele>169</ele>
        <time>2017-11-19T10:36:48Z</time>
      </trkpt>
      <trkpt lat="45.93571" lon="4.75982">
        <ele>170</ele>
        <time>2017-11-19T10:36:51Z</time>
      </trkpt>
      <trkpt lat="45.93572" lon="4.75987">
        <ele>170</ele>
        <time>2017-11-19T10:36:52Z</time>
      </trkpt>
      <trkpt lat="45.93575" lon="4.75997">
        <ele>171</ele>
        <time>2017-11-19T10:36:54Z</time>
      </trkpt>
      <trkpt lat="45.93577" lon="4.76002">
        <ele>171</ele>
        <time>2017-11-19T10:36:55Z</time>
      </trkpt>
      <trkpt lat="45.9358" lon="4.76012">
        <ele>171</ele>
        <time>2017-11-19T10:36:57Z</time>
      </trkpt>
      <trkpt lat="45.93581" lon="4.76016">
        <ele>170</ele>
        <time>2017-11-19T10:36:58Z</time>
      </trkpt>
      <trkpt lat="45.93584" lon="4.76025">
        <ele>171</ele>
        <time>2017-11-19T10:37:00Z</time>
      </trkpt>
      <trkpt lat="45.93585" lon="4.7603">
        <ele>170</ele>
        <time>2017-11-19T10:37:01Z</time>
      </trkpt>
      <trkpt lat="45.93588" lon="4.76041">
        <ele>170</ele>
        <time>2017-11-19T10:37:04Z</time>
      </trkpt>
      <trkpt lat="45.9359" lon="4.76046">
        <ele>170</ele>
        <time>2017-11-19T10:37:05Z</time>
      </trkpt>
      <trkpt lat="45.93593" lon="4.76054">
        <ele>170</ele>
        <time>2017-11-19T10:37:07Z</time>
      </trkpt>
      <trkpt lat="45.93594" lon="4.76059">
        <ele>170</ele>
        <time>2017-11-19T10:37:08Z</time>
      </trkpt>
      <trkpt lat="45.93598" lon="4.76067">
        <ele>170</ele>
        <time>2017-11-19T10:37:10Z</time>
      </trkpt>
      <trkpt lat="45.936" lon="4.76072">
        <ele>170</ele>
        <time>2017-11-19T10:37:11Z</time>
      </trkpt>
      <trkpt lat="45.93603" lon="4.76082">
        <ele>170</ele>
        <time>2017-11-19T10:37:13Z</time>
      </trkpt>
      <trkpt lat="45.93605" lon="4.76087">
        <ele>170</ele>
        <time>2017-11-19T10:37:14Z</time>
      </trkpt>
      <trkpt lat="45.93607" lon="4.76097">
        <ele>170</ele>
        <time>2017-11-19T10:37:16Z</time>
      </trkpt>
      <trkpt lat="45.93609" lon="4.76102">
        <ele>170</ele>
        <time>2017-11-19T10:37:17Z</time>
      </trkpt>
      <trkpt lat="45.93612" lon="4.76113">
        <ele>169</ele>
        <time>2017-11-19T10:37:19Z</time>
      </trkpt>
      <trkpt lat="45.93614" lon="4.76117">
        <ele>169</ele>
        <time>2017-11-19T10:37:20Z</time>
      </trkpt>
      <trkpt lat="45.93617" lon="4.76126">
        <ele>169</ele>
        <time>2017-11-19T10:37:22Z</time>
      </trkpt>
      <trkpt lat="45.93618" lon="4.76129">
        <ele>169</ele>
        <time>2017-11-19T10:37:23Z</time>
      </trkpt>
      <trkpt lat="45.93622" lon="4.76141">
        <ele>169</ele>
        <time>2017-11-19T10:37:26Z</time>
      </trkpt>
      <trkpt lat="45.93623" lon="4.76144">
        <ele>169</ele>
        <time>2017-11-19T10:37:27Z</time>
      </trkpt>
      <trkpt lat="45.93625" lon="4.76151">
        <ele>169</ele>
        <time>2017-11-19T10:37:29Z</time>
      </trkpt>
      <trkpt lat="45.93627" lon="4.76156">
        <ele>169</ele>
        <time>2017-11-19T10:37:30Z</time>
      </trkpt>
      <trkpt lat="45.93631" lon="4.76167">
        <ele>170</ele>
        <time>2017-11-19T10:37:32Z</time>
      </trkpt>
      <trkpt lat="45.93632" lon="4.76172">
        <ele>169</ele>
        <time>2017-11-19T10:37:33Z</time>
      </trkpt>
      <trkpt lat="45.93636" lon="4.76182">
        <ele>169</ele>
        <time>2017-11-19T10:37:35Z</time>
      </trkpt>
      <trkpt lat="45.93637" lon="4.76187">
        <ele>169</ele>
        <time>2017-11-19T10:37:36Z</time>
      </trkpt>
      <trkpt lat="45.93641" lon="4.76197">
        <ele>169</ele>
        <time>2017-11-19T10:37:38Z</time>
      </trkpt>
      <trkpt lat="45.93643" lon="4.76202">
        <ele>169</ele>
        <time>2017-11-19T10:37:39Z</time>
      </trkpt>
      <trkpt lat="45.93646" lon="4.76213">
        <ele>169</ele>
        <time>2017-11-19T10:37:41Z</time>
      </trkpt>
      <trkpt lat="45.93648" lon="4.76218">
        <ele>169</ele>
        <time>2017-11-19T10:37:42Z</time>
      </trkpt>
      <trkpt lat="45.9365" lon="4.76224">
        <ele>169</ele>
        <time>2017-11-19T10:37:43Z</time>
      </trkpt>
      <trkpt lat="45.93653" lon="4.7623">
        <ele>169</ele>
        <time>2017-11-19T10:37:44Z</time>
      </trkpt>
      <trkpt lat="45.93655" lon="4.76241">
        <ele>169</ele>
        <time>2017-11-19T10:37:46Z</time>
      </trkpt>
      <trkpt lat="45.93657" lon="4.76246">
        <ele>170</ele>
        <time>2017-11-19T10:37:47Z</time>
      </trkpt>
      <trkpt lat="45.93659" lon="4.76252">
        <ele>169</ele>
        <time>2017-11-19T10:37:48Z</time>
      </trkpt>
      <trkpt lat="45.9366" lon="4.76259">
        <ele>169</ele>
        <time>2017-11-19T10:37:49Z</time>
      </trkpt>
      <trkpt lat="45.93665" lon="4.7627">
        <ele>169</ele>
        <time>2017-11-19T10:37:51Z</time>
      </trkpt>
      <trkpt lat="45.93667" lon="4.76276">
        <ele>170</ele>
        <time>2017-11-19T10:37:52Z</time>
      </trkpt>
      <trkpt lat="45.93671" lon="4.76286">
        <ele>170</ele>
        <time>2017-11-19T10:37:54Z</time>
      </trkpt>
      <trkpt lat="45.93672" lon="4.76291">
        <ele>170</ele>
        <time>2017-11-19T10:37:55Z</time>
      </trkpt>
      <trkpt lat="45.93676" lon="4.76299">
        <ele>170</ele>
        <time>2017-11-19T10:37:57Z</time>
      </trkpt>
      <trkpt lat="45.93677" lon="4.76303">
        <ele>170</ele>
        <time>2017-11-19T10:37:58Z</time>
      </trkpt>
      <trkpt lat="45.93678" lon="4.76312">
        <ele>170</ele>
        <time>2017-11-19T10:38:00Z</time>
      </trkpt>
      <trkpt lat="45.93679" lon="4.76316">
        <ele>170</ele>
        <time>2017-11-19T10:38:01Z</time>
      </trkpt>
      <trkpt lat="45.93683" lon="4.76327">
        <ele>170</ele>
        <time>2017-11-19T10:38:04Z</time>
      </trkpt>
      <trkpt lat="45.93684" lon="4.7633">
        <ele>170</ele>
        <time>2017-11-19T10:38:05Z</time>
      </trkpt>
      <trkpt lat="45.93688" lon="4.76338">
        <ele>169</ele>
        <time>2017-11-19T10:38:07Z</time>
      </trkpt>
      <trkpt lat="45.9369" lon="4.76343">
        <ele>169</ele>
        <time>2017-11-19T10:38:08Z</time>
      </trkpt>
      <trkpt lat="45.93694" lon="4.76353">
        <ele>169</ele>
        <time>2017-11-19T10:38:10Z</time>
      </trkpt>
      <trkpt lat="45.93696" lon="4.76358">
        <ele>169</ele>
        <time>2017-11-19T10:38:11Z</time>
      </trkpt>
      <trkpt lat="45.937" lon="4.76367">
        <ele>169</ele>
        <time>2017-11-19T10:38:13Z</time>
      </trkpt>
      <trkpt lat="45.93702" lon="4.76372">
        <ele>169</ele>
        <time>2017-11-19T10:38:14Z</time>
      </trkpt>
      <trkpt lat="45.93705" lon="4.76382">
        <ele>169</ele>
        <time>2017-11-19T10:38:16Z</time>
      </trkpt>
      <trkpt lat="45.93707" lon="4.76387">
        <ele>169</ele>
        <time>2017-11-19T10:38:17Z</time>
      </trkpt>
      <trkpt lat="45.93709" lon="4.76397">
        <ele>169</ele>
        <time>2017-11-19T10:38:19Z</time>
      </trkpt>
      <trkpt lat="45.93711" lon="4.76401">
        <ele>169</ele>
        <time>2017-11-19T10:38:20Z</time>
      </trkpt>
      <trkpt lat="45.93713" lon="4.76411">
        <ele>169</ele>
        <time>2017-11-19T10:38:22Z</time>
      </trkpt>
      <trkpt lat="45.93715" lon="4.76416">
        <ele>169</ele>
        <time>2017-11-19T10:38:23Z</time>
      </trkpt>
      <trkpt lat="45.93718" lon="4.76427">
        <ele>169</ele>
        <time>2017-11-19T10:38:25Z</time>
      </trkpt>
      <trkpt lat="45.93719" lon="4.76432">
        <ele>169</ele>
        <time>2017-11-19T10:38:26Z</time>
      </trkpt>
      <trkpt lat="45.93722" lon="4.76441">
        <ele>169</ele>
        <time>2017-11-19T10:38:28Z</time>
      </trkpt>
      <trkpt lat="45.93724" lon="4.76445">
        <ele>169</ele>
        <time>2017-11-19T10:38:29Z</time>
      </trkpt>
      <trkpt lat="45.93727" lon="4.76454">
        <ele>169</ele>
        <time>2017-11-19T10:38:31Z</time>
      </trkpt>
      <trkpt lat="45.93729" lon="4.76459">
        <ele>169</ele>
        <time>2017-11-19T10:38:32Z</time>
      </trkpt>
      <trkpt lat="45.93731" lon="4.76468">
        <ele>169</ele>
        <time>2017-11-19T10:38:34Z</time>
      </trkpt>
      <trkpt lat="45.93733" lon="4.76473">
        <ele>169</ele>
        <time>2017-11-19T10:38:35Z</time>
      </trkpt>
      <trkpt lat="45.93736" lon="4.76482">
        <ele>169</ele>
        <time>2017-11-19T10:38:37Z</time>
      </trkpt>
      <trkpt lat="45.93738" lon="4.76487">
        <ele>169</ele>
        <time>2017-11-19T10:38:38Z</time>
      </trkpt>
      <trkpt lat="45.93742" lon="4.76499">
        <ele>170</ele>
        <time>2017-11-19T10:38:40Z</time>
      </trkpt>
      <trkpt lat="45.93744" lon="4.76504">
        <ele>169</ele>
        <time>2017-11-19T10:38:41Z</time>
      </trkpt>
      <trkpt lat="45.93747" lon="4.7651">
        <ele>169</ele>
        <time>2017-11-19T10:38:42Z</time>
      </trkpt>
      <trkpt lat="45.93748" lon="4.76515">
        <ele>169</ele>
        <time>2017-11-19T10:38:43Z</time>
      </trkpt>
      <trkpt lat="45.93753" lon="4.76526">
        <ele>170</ele>
        <time>2017-11-19T10:38:45Z</time>
      </trkpt>
      <trkpt lat="45.93755" lon="4.76531">
        <ele>170</ele>
        <time>2017-11-19T10:38:46Z</time>
      </trkpt>
      <trkpt lat="45.93757" lon="4.7654">
        <ele>170</ele>
        <time>2017-11-19T10:38:48Z</time>
      </trkpt>
      <trkpt lat="45.93759" lon="4.76544">
        <ele>170</ele>
        <time>2017-11-19T10:38:49Z</time>
      </trkpt>
      <trkpt lat="45.93762" lon="4.76553">
        <ele>170</ele>
        <time>2017-11-19T10:38:51Z</time>
      </trkpt>
      <trkpt lat="45.93764" lon="4.76558">
        <ele>170</ele>
        <time>2017-11-19T10:38:52Z</time>
      </trkpt>
      <trkpt lat="45.93767" lon="4.76566">
        <ele>170</ele>
        <time>2017-11-19T10:38:54Z</time>
      </trkpt>
      <trkpt lat="45.93769" lon="4.7657">
        <ele>170</ele>
        <time>2017-11-19T10:38:55Z</time>
      </trkpt>
      <trkpt lat="45.93772" lon="4.7658">
        <ele>170</ele>
        <time>2017-11-19T10:38:57Z</time>
      </trkpt>
      <trkpt lat="45.93774" lon="4.76585">
        <ele>169</ele>
        <time>2017-11-19T10:38:58Z</time>
      </trkpt>
      <trkpt lat="45.93776" lon="4.76592">
        <ele>169</ele>
        <time>2017-11-19T10:38:59Z</time>
      </trkpt>
      <trkpt lat="45.93778" lon="4.76598">
        <ele>169</ele>
        <time>2017-11-19T10:39:00Z</time>
      </trkpt>
      <trkpt lat="45.9378" lon="4.76604">
        <ele>169</ele>
        <time>2017-11-19T10:39:01Z</time>
      </trkpt>
      <trkpt lat="45.93782" lon="4.7661">
        <ele>169</ele>
        <time>2017-11-19T10:39:02Z</time>
      </trkpt>
      <trkpt lat="45.93785" lon="4.76617">
        <ele>169</ele>
        <time>2017-11-19T10:39:03Z</time>
      </trkpt>
      <trkpt lat="45.93788" lon="4.76622">
        <ele>169</ele>
        <time>2017-11-19T10:39:04Z</time>
      </trkpt>
      <trkpt lat="45.93793" lon="4.76632">
        <ele>169</ele>
        <time>2017-11-19T10:39:06Z</time>
      </trkpt>
      <trkpt lat="45.93794" lon="4.76636">
        <ele>169</ele>
        <time>2017-11-19T10:39:07Z</time>
      </trkpt>
      <trkpt lat="45.93798" lon="4.76645">
        <ele>169</ele>
        <time>2017-11-19T10:39:09Z</time>
      </trkpt>
      <trkpt lat="45.938" lon="4.76649">
        <ele>169</ele>
        <time>2017-11-19T10:39:10Z</time>
      </trkpt>
      <trkpt lat="45.93804" lon="4.76658">
        <ele>169</ele>
        <time>2017-11-19T10:39:12Z</time>
      </trkpt>
      <trkpt lat="45.93806" lon="4.76662">
        <ele>170</ele>
        <time>2017-11-19T10:39:13Z</time>
      </trkpt>
      <trkpt lat="45.93808" lon="4.76668">
        <ele>170</ele>
        <time>2017-11-19T10:39:14Z</time>
      </trkpt>
      <trkpt lat="45.93811" lon="4.76673">
        <ele>170</ele>
        <time>2017-11-19T10:39:15Z</time>
      </trkpt>
      <trkpt lat="45.93815" lon="4.76682">
        <ele>170</ele>
        <time>2017-11-19T10:39:17Z</time>
      </trkpt>
      <trkpt lat="45.93817" lon="4.76686">
        <ele>170</ele>
        <time>2017-11-19T10:39:18Z</time>
      </trkpt>
      <trkpt lat="45.93821" lon="4.76693">
        <ele>170</ele>
        <time>2017-11-19T10:39:20Z</time>
      </trkpt>
      <trkpt lat="45.93823" lon="4.76697">
        <ele>170</ele>
        <time>2017-11-19T10:39:21Z</time>
      </trkpt>
      <trkpt lat="45.93828" lon="4.76706">
        <ele>170</ele>
        <time>2017-11-19T10:39:23Z</time>
      </trkpt>
      <trkpt lat="45.93831" lon="4.76711">
        <ele>170</ele>
        <time>2017-11-19T10:39:24Z</time>
      </trkpt>
      <trkpt lat="45.93836" lon="4.76721">
        <ele>172</ele>
        <time>2017-11-19T10:39:26Z</time>
      </trkpt>
      <trkpt lat="45.93839" lon="4.76725">
        <ele>172</ele>
        <time>2017-11-19T10:39:27Z</time>
      </trkpt>
      <trkpt lat="45.93844" lon="4.76733">
        <ele>173</ele>
        <time>2017-11-19T10:39:29Z</time>
      </trkpt>
      <trkpt lat="45.93847" lon="4.76737">
        <ele>173</ele>
        <time>2017-11-19T10:39:30Z</time>
      </trkpt>
      <trkpt lat="45.93852" lon="4.76747">
        <ele>173</ele>
        <time>2017-11-19T10:39:32Z</time>
      </trkpt>
      <trkpt lat="45.93854" lon="4.76751">
        <ele>172</ele>
        <time>2017-11-19T10:39:33Z</time>
      </trkpt>
      <trkpt lat="45.93859" lon="4.76759">
        <ele>172</ele>
        <time>2017-11-19T10:39:35Z</time>
      </trkpt>
      <trkpt lat="45.93862" lon="4.76763">
        <ele>172</ele>
        <time>2017-11-19T10:39:36Z</time>
      </trkpt>
      <trkpt lat="45.93868" lon="4.7677">
        <ele>171</ele>
        <time>2017-11-19T10:39:38Z</time>
      </trkpt>
      <trkpt lat="45.9387" lon="4.76775">
        <ele>171</ele>
        <time>2017-11-19T10:39:39Z</time>
      </trkpt>
      <trkpt lat="45.93876" lon="4.76784">
        <ele>171</ele>
        <time>2017-11-19T10:39:41Z</time>
      </trkpt>
      <trkpt lat="45.93879" lon="4.76789">
        <ele>171</ele>
        <time>2017-11-19T10:39:42Z</time>
      </trkpt>
      <trkpt lat="45.93882" lon="4.76795">
        <ele>171</ele>
        <time>2017-11-19T10:39:43Z</time>
      </trkpt>
      <trkpt lat="45.93885" lon="4.768">
        <ele>171</ele>
        <time>2017-11-19T10:39:44Z</time>
      </trkpt>
      <trkpt lat="45.9389" lon="4.7681">
        <ele>171</ele>
        <time>2017-11-19T10:39:46Z</time>
      </trkpt>
      <trkpt lat="45.93892" lon="4.76815">
        <ele>171</ele>
        <time>2017-11-19T10:39:47Z</time>
      </trkpt>
      <trkpt lat="45.93896" lon="4.76822">
        <ele>171</ele>
        <time>2017-11-19T10:39:49Z</time>
      </trkpt>
      <trkpt lat="45.93898" lon="4.76826">
        <ele>172</ele>
        <time>2017-11-19T10:39:50Z</time>
      </trkpt>
      <trkpt lat="45.93904" lon="4.76833">
        <ele>171</ele>
        <time>2017-11-19T10:39:52Z</time>
      </trkpt>
      <trkpt lat="45.93907" lon="4.76838">
        <ele>172</ele>
        <time>2017-11-19T10:39:53Z</time>
      </trkpt>
      <trkpt lat="45.93912" lon="4.76845">
        <ele>171</ele>
        <time>2017-11-19T10:39:55Z</time>
      </trkpt>
      <trkpt lat="45.93914" lon="4.76849">
        <ele>171</ele>
        <time>2017-11-19T10:39:56Z</time>
      </trkpt>
      <trkpt lat="45.93918" lon="4.76856">
        <ele>172</ele>
        <time>2017-11-19T10:39:58Z</time>
      </trkpt>
      <trkpt lat="45.93919" lon="4.76859">
        <ele>172</ele>
        <time>2017-11-19T10:39:59Z</time>
      </trkpt>
      <trkpt lat="45.93925" lon="4.76868">
        <ele>172</ele>
        <time>2017-11-19T10:40:02Z</time>
      </trkpt>
      <trkpt lat="45.93927" lon="4.76871">
        <ele>172</ele>
        <time>2017-11-19T10:40:03Z</time>
      </trkpt>
      <trkpt lat="45.93932" lon="4.76881">
        <ele>172</ele>
        <time>2017-11-19T10:40:06Z</time>
      </trkpt>
      <trkpt lat="45.93933" lon="4.76883">
        <ele>172</ele>
        <time>2017-11-19T10:40:07Z</time>
      </trkpt>
      <trkpt lat="45.93939" lon="4.76893">
        <ele>172</ele>
        <time>2017-11-19T10:40:15Z</time>
      </trkpt>
      <trkpt lat="45.93939" lon="4.76894">
        <ele>172</ele>
        <time>2017-11-19T10:40:16Z</time>
      </trkpt>
      <trkpt lat="45.93938" lon="4.76898">
        <ele>172</ele>
        <time>2017-11-19T10:40:35Z</time>
      </trkpt>
      <trkpt lat="45.93938" lon="4.76898">
        <ele>172</ele>
        <time>2017-11-19T10:40:36Z</time>
      </trkpt>
      <trkpt lat="45.93939" lon="4.76897">
        <ele>172</ele>
        <time>2017-11-19T10:45:52Z</time>
      </trkpt>
      <trkpt lat="45.93938" lon="4.76896">
        <ele>172</ele>
        <time>2017-11-19T10:45:53Z</time>
      </trkpt>
      <trkpt lat="45.93936" lon="4.76896">
        <ele>172</ele>
        <time>2017-11-19T10:45:56Z</time>
      </trkpt>
      <trkpt lat="45.93935" lon="4.76896">
        <ele>172</ele>
        <time>2017-11-19T10:45:57Z</time>
      </trkpt>
      <trkpt lat="45.93933" lon="4.76896">
        <ele>172</ele>
        <time>2017-11-19T10:49:01Z</time>
      </trkpt>
      <trkpt lat="45.93934" lon="4.76897">
        <ele>172</ele>
        <time>2017-11-19T10:49:02Z</time>
      </trkpt>
      <trkpt lat="45.93941" lon="4.76899">
        <ele>172</ele>
        <time>2017-11-19T10:49:23Z</time>
      </trkpt>
      <trkpt lat="45.93943" lon="4.76901">
        <ele>172</ele>
        <time>2017-11-19T10:49:24Z</time>
      </trkpt>
      <trkpt lat="45.93945" lon="4.76911">
        <ele>172</ele>
        <time>2017-11-19T10:49:27Z</time>
      </trkpt>
      <trkpt lat="45.93945" lon="4.76915">
        <ele>172</ele>
        <time>2017-11-19T10:49:28Z</time>
      </trkpt>
      <trkpt lat="45.93943" lon="4.76924">
        <ele>171</ele>
        <time>2017-11-19T10:49:30Z</time>
      </trkpt>
      <trkpt lat="45.93942" lon="4.76928">
        <ele>171</ele>
        <time>2017-11-19T10:49:31Z</time>
      </trkpt>
      <trkpt lat="45.93941" lon="4.76939">
        <ele>171</ele>
        <time>2017-11-19T10:49:34Z</time>
      </trkpt>
      <trkpt lat="45.93942" lon="4.76943">
        <ele>170</ele>
        <time>2017-11-19T10:49:35Z</time>
      </trkpt>
      <trkpt lat="45.93945" lon="4.76952">
        <ele>170</ele>
        <time>2017-11-19T10:49:37Z</time>
      </trkpt>
      <trkpt lat="45.93947" lon="4.76957">
        <ele>170</ele>
        <time>2017-11-19T10:49:38Z</time>
      </trkpt>
      <trkpt lat="45.9395" lon="4.76966">
        <ele>170</ele>
        <time>2017-11-19T10:49:40Z</time>
      </trkpt>
      <trkpt lat="45.93952" lon="4.7697">
        <ele>170</ele>
        <time>2017-11-19T10:49:41Z</time>
      </trkpt>
      <trkpt lat="45.93955" lon="4.76978">
        <ele>170</ele>
        <time>2017-11-19T10:49:43Z</time>
      </trkpt>
      <trkpt lat="45.93956" lon="4.76982">
        <ele>170</ele>
        <time>2017-11-19T10:49:44Z</time>
      </trkpt>
      <trkpt lat="45.93959" lon="4.76991">
        <ele>170</ele>
        <time>2017-11-19T10:49:46Z</time>
      </trkpt>
      <trkpt lat="45.9396" lon="4.76996">
        <ele>170</ele>
        <time>2017-11-19T10:49:47Z</time>
      </trkpt>
      <trkpt lat="45.93963" lon="4.77007">
        <ele>169</ele>
        <time>2017-11-19T10:49:49Z</time>
      </trkpt>
      <trkpt lat="45.93965" lon="4.77012">
        <ele>169</ele>
        <time>2017-11-19T10:49:50Z</time>
      </trkpt>
      <trkpt lat="45.93968" lon="4.77021">
        <ele>169</ele>
        <time>2017-11-19T10:49:52Z</time>
      </trkpt>
      <trkpt lat="45.93969" lon="4.77025">
        <ele>169</ele>
        <time>2017-11-19T10:49:53Z</time>
      </trkpt>
      <trkpt lat="45.93971" lon="4.77034">
        <ele>169</ele>
        <time>2017-11-19T10:49:55Z</time>
      </trkpt>
      <trkpt lat="45.93973" lon="4.77039">
        <ele>169</ele>
        <time>2017-11-19T10:49:56Z</time>
      </trkpt>
      <trkpt lat="45.93975" lon="4.77048">
        <ele>169</ele>
        <time>2017-11-19T10:49:58Z</time>
      </trkpt>
      <trkpt lat="45.93977" lon="4.77053">
        <ele>169</ele>
        <time>2017-11-19T10:49:59Z</time>
      </trkpt>
      <trkpt lat="45.9398" lon="4.77065">
        <ele>170</ele>
        <time>2017-11-19T10:50:01Z</time>
      </trkpt>
      <trkpt lat="45.93981" lon="4.77071">
        <ele>170</ele>
        <time>2017-11-19T10:50:02Z</time>
      </trkpt>
      <trkpt lat="45.93984" lon="4.77082">
        <ele>170</ele>
        <time>2017-11-19T10:50:04Z</time>
      </trkpt>
      <trkpt lat="45.93985" lon="4.77087">
        <ele>171</ele>
        <time>2017-11-19T10:50:05Z</time>
      </trkpt>
      <trkpt lat="45.93988" lon="4.77095">
        <ele>171</ele>
        <time>2017-11-19T10:50:07Z</time>
      </trkpt>
      <trkpt lat="45.93989" lon="4.771">
        <ele>170</ele>
        <time>2017-11-19T10:50:08Z</time>
      </trkpt>
      <trkpt lat="45.93991" lon="4.77109">
        <ele>170</ele>
        <time>2017-11-19T10:50:10Z</time>
      </trkpt>
      <trkpt lat="45.93992" lon="4.77113">
        <ele>170</ele>
        <time>2017-11-19T10:50:11Z</time>
      </trkpt>
      <trkpt lat="45.93994" lon="4.77122">
        <ele>170</ele>
        <time>2017-11-19T10:50:13Z</time>
      </trkpt>
      <trkpt lat="45.93995" lon="4.77127">
        <ele>170</ele>
        <time>2017-11-19T10:50:14Z</time>
      </trkpt>
      <trkpt lat="45.93997" lon="4.77136">
        <ele>170</ele>
        <time>2017-11-19T10:50:16Z</time>
      </trkpt>
      <trkpt lat="45.93998" lon="4.77141">
        <ele>170</ele>
        <time>2017-11-19T10:50:17Z</time>
      </trkpt>
      <trkpt lat="45.93999" lon="4.77151">
        <ele>171</ele>
        <time>2017-11-19T10:50:19Z</time>
      </trkpt>
      <trkpt lat="45.93999" lon="4.77156">
        <ele>171</ele>
        <time>2017-11-19T10:50:20Z</time>
      </trkpt>
      <trkpt lat="45.94" lon="4.77166">
        <ele>172</ele>
        <time>2017-11-19T10:50:23Z</time>
      </trkpt>
      <trkpt lat="45.94" lon="4.7717">
        <ele>172</ele>
        <time>2017-11-19T10:50:24Z</time>
      </trkpt>
      <trkpt lat="45.94001" lon="4.77179">
        <ele>173</ele>
        <time>2017-11-19T10:50:26Z</time>
      </trkpt>
      <trkpt lat="45.94001" lon="4.77184">
        <ele>173</ele>
        <time>2017-11-19T10:50:27Z</time>
      </trkpt>
      <trkpt lat="45.94001" lon="4.77195">
        <ele>174</ele>
        <time>2017-11-19T10:50:29Z</time>
      </trkpt>
      <trkpt lat="45.94" lon="4.772">
        <ele>174</ele>
        <time>2017-11-19T10:50:30Z</time>
      </trkpt>
      <trkpt lat="45.94001" lon="4.77212">
        <ele>174</ele>
        <time>2017-11-19T10:50:33Z</time>
      </trkpt>
      <trkpt lat="45.94" lon="4.77216">
        <ele>173</ele>
        <time>2017-11-19T10:50:34Z</time>
      </trkpt>
      <trkpt lat="45.94" lon="4.77225">
        <ele>173</ele>
        <time>2017-11-19T10:50:36Z</time>
      </trkpt>
      <trkpt lat="45.94001" lon="4.77229">
        <ele>173</ele>
        <time>2017-11-19T10:50:37Z</time>
      </trkpt>
      <trkpt lat="45.9401" lon="4.7723">
        <ele>173</ele>
        <time>2017-11-19T10:50:42Z</time>
      </trkpt>
      <trkpt lat="45.9401" lon="4.77227">
        <ele>173</ele>
        <time>2017-11-19T10:50:43Z</time>
      </trkpt>
      <trkpt lat="45.9401" lon="4.77216">
        <ele>174</ele>
        <time>2017-11-19T10:50:46Z</time>
      </trkpt>
      <trkpt lat="45.9401" lon="4.77213">
        <ele>174</ele>
        <time>2017-11-19T10:50:47Z</time>
      </trkpt>
      <trkpt lat="45.94014" lon="4.77223">
        <ele>174</ele>
        <time>2017-11-19T10:50:57Z</time>
      </trkpt>
      <trkpt lat="45.94014" lon="4.77226">
        <ele>174</ele>
        <time>2017-11-19T10:50:58Z</time>
      </trkpt>
      <trkpt lat="45.94011" lon="4.77236">
        <ele>173</ele>
        <time>2017-11-19T10:51:01Z</time>
      </trkpt>
      <trkpt lat="45.9401" lon="4.77239">
        <ele>172</ele>
        <time>2017-11-19T10:51:02Z</time>
      </trkpt>
      <trkpt lat="45.94008" lon="4.77252">
        <ele>172</ele>
        <time>2017-11-19T10:51:09Z</time>
      </trkpt>
      <trkpt lat="45.94007" lon="4.77254">
        <ele>172</ele>
        <time>2017-11-19T10:51:10Z</time>
      </trkpt>
      <trkpt lat="45.94" lon="4.77253">
        <ele>170</ele>
        <time>2017-11-19T10:51:13Z</time>
      </trkpt>
      <trkpt lat="45.93998" lon="4.77251">
        <ele>170</ele>
        <time>2017-11-19T10:51:14Z</time>
      </trkpt>
      <trkpt lat="45.9399" lon="4.77249">
        <ele>170</ele>
        <time>2017-11-19T10:51:17Z</time>
      </trkpt>
      <trkpt lat="45.93988" lon="4.77249">
        <ele>169</ele>
        <time>2017-11-19T10:51:18Z</time>
      </trkpt>
      <trkpt lat="45.9398" lon="4.77249">
        <ele>169</ele>
        <time>2017-11-19T10:51:22Z</time>
      </trkpt>
      <trkpt lat="45.93979" lon="4.77249">
        <ele>169</ele>
        <time>2017-11-19T10:51:23Z</time>
      </trkpt>
      <trkpt lat="45.93972" lon="4.77247">
        <ele>169</ele>
        <time>2017-11-19T10:51:26Z</time>
      </trkpt>
      <trkpt lat="45.93969" lon="4.77247">
        <ele>169</ele>
        <time>2017-11-19T10:51:27Z</time>
      </trkpt>
      <trkpt lat="45.93961" lon="4.77245">
        <ele>168</ele>
        <time>2017-11-19T10:51:30Z</time>
      </trkpt>
      <trkpt lat="45.93958" lon="4.77244">
        <ele>168</ele>
        <time>2017-11-19T10:51:31Z</time>
      </trkpt>
      <trkpt lat="45.9395" lon="4.77243">
        <ele>168</ele>
        <time>2017-11-19T10:51:34Z</time>
      </trkpt>
      <trkpt lat="45.93947" lon="4.77243">
        <ele>168</ele>
        <time>2017-11-19T10:51:35Z</time>
      </trkpt>
      <trkpt lat="45.93938" lon="4.77241">
        <ele>168</ele>
        <time>2017-11-19T10:51:38Z</time>
      </trkpt>
      <trkpt lat="45.93935" lon="4.7724">
        <ele>167</ele>
        <time>2017-11-19T10:51:39Z</time>
      </trkpt>
      <trkpt lat="45.93927" lon="4.77239">
        <ele>167</ele>
        <time>2017-11-19T10:51:43Z</time>
      </trkpt>
      <trkpt lat="45.93926" lon="4.77239">
        <ele>167</ele>
        <time>2017-11-19T10:51:44Z</time>
      </trkpt>
      <trkpt lat="45.93918" lon="4.77237">
        <ele>167</ele>
        <time>2017-11-19T10:51:48Z</time>
      </trkpt>
      <trkpt lat="45.93916" lon="4.77236">
        <ele>167</ele>
        <time>2017-11-19T10:51:49Z</time>
      </trkpt>
      <trkpt lat="45.93911" lon="4.77234">
        <ele>167</ele>
        <time>2017-11-19T10:53:00Z</time>
      </trkpt>
      <trkpt lat="45.93911" lon="4.77234">
        <ele>167</ele>
        <time>2017-11-19T10:53:01Z</time>
      </trkpt>
      <trkpt lat="45.93911" lon="4.77234">
        <ele>167</ele>
        <time>2017-11-19T10:53:09Z</time>
      </trkpt>
      <trkpt lat="45.93911" lon="4.77234">
        <ele>167</ele>
        <time>2017-11-19T10:53:10Z</time>
      </trkpt>
      <trkpt lat="45.93911" lon="4.77235">
        <ele>167</ele>
        <time>2017-11-19T10:53:13Z</time>
      </trkpt>
      <trkpt lat="45.9391" lon="4.77236">
        <ele>167</ele>
        <time>2017-11-19T10:53:14Z</time>
      </trkpt>
      <trkpt lat="45.9391" lon="4.77234">
        <ele>167</ele>
        <time>2017-11-19T10:53:29Z</time>
      </trkpt>
      <trkpt lat="45.9391" lon="4.77234">
        <ele>167</ele>
        <time>2017-11-19T10:53:30Z</time>
      </trkpt>
      <trkpt lat="45.93903" lon="4.77232">
        <ele>167</ele>
        <time>2017-11-19T10:53:38Z</time>
      </trkpt>
      <trkpt lat="45.939" lon="4.77231">
        <ele>167</ele>
        <time>2017-11-19T10:53:39Z</time>
      </trkpt>
      <trkpt lat="45.93893" lon="4.77229">
        <ele>167</ele>
        <time>2017-11-19T10:53:42Z</time>
      </trkpt>
      <trkpt lat="45.93889" lon="4.77228">
        <ele>167</ele>
        <time>2017-11-19T10:53:43Z</time>
      </trkpt>
      <trkpt lat="45.93882" lon="4.77226">
        <ele>168</ele>
        <time>2017-11-19T10:53:45Z</time>
      </trkpt>
      <trkpt lat="45.93878" lon="4.77225">
        <ele>168</ele>
        <time>2017-11-19T10:53:46Z</time>
      </trkpt>
      <trkpt lat="45.9387" lon="4.77224">
        <ele>168</ele>
        <time>2017-11-19T10:53:48Z</time>
      </trkpt>
      <trkpt lat="45.93866" lon="4.77224">
        <ele>168</ele>
        <time>2017-11-19T10:53:49Z</time>
      </trkpt>
      <trkpt lat="45.93858" lon="4.77221">
        <ele>168</ele>
        <time>2017-11-19T10:53:51Z</time>
      </trkpt>
      <trkpt lat="45.93854" lon="4.77221">
        <ele>168</ele>
        <time>2017-11-19T10:53:52Z</time>
      </trkpt>
      <trkpt lat="45.93845" lon="4.7722">
        <ele>169</ele>
        <time>2017-11-19T10:53:55Z</time>
      </trkpt>
      <trkpt lat="45.93843" lon="4.77217">
        <ele>168</ele>
        <time>2017-11-19T10:53:56Z</time>
      </trkpt>
      <trkpt lat="45.93836" lon="4.77212">
        <ele>168</ele>
        <time>2017-11-19T10:53:59Z</time>
      </trkpt>
      <trkpt lat="45.93834" lon="4.77211">
        <ele>168</ele>
        <time>2017-11-19T10:54:00Z</time>
      </trkpt>
      <trkpt lat="45.93827" lon="4.7721">
        <ele>170</ele>
        <time>2017-11-19T10:54:02Z</time>
      </trkpt>
      <trkpt lat="45.93824" lon="4.7721">
        <ele>170</ele>
        <time>2017-11-19T10:54:03Z</time>
      </trkpt>
      <trkpt lat="45.93815" lon="4.77206">
        <ele>170</ele>
        <time>2017-11-19T10:54:05Z</time>
      </trkpt>
      <trkpt lat="45.93812" lon="4.77203">
        <ele>170</ele>
        <time>2017-11-19T10:54:06Z</time>
      </trkpt>
      <trkpt lat="45.93809" lon="4.77192">
        <ele>169</ele>
        <time>2017-11-19T10:54:08Z</time>
      </trkpt>
      <trkpt lat="45.93809" lon="4.77186">
        <ele>169</ele>
        <time>2017-11-19T10:54:09Z</time>
      </trkpt>
      <trkpt lat="45.9381" lon="4.77176">
        <ele>169</ele>
        <time>2017-11-19T10:54:11Z</time>
      </trkpt>
      <trkpt lat="45.9381" lon="4.7717">
        <ele>169</ele>
        <time>2017-11-19T10:54:12Z</time>
      </trkpt>
      <trkpt lat="45.93811" lon="4.77159">
        <ele>168</ele>
        <time>2017-11-19T10:54:14Z</time>
      </trkpt>
      <trkpt lat="45.9381" lon="4.77153">
        <ele>168</ele>
        <time>2017-11-19T10:54:15Z</time>
      </trkpt>
      <trkpt lat="45.93808" lon="4.77146">
        <ele>168</ele>
        <time>2017-11-19T10:54:16Z</time>
      </trkpt>
      <trkpt lat="45.93807" lon="4.77139">
        <ele>168</ele>
        <time>2017-11-19T10:54:17Z</time>
      </trkpt>
      <trkpt lat="45.93805" lon="4.77127">
        <ele>169</ele>
        <time>2017-11-19T10:54:19Z</time>
      </trkpt>
      <trkpt lat="45.93804" lon="4.77121">
        <ele>169</ele>
        <time>2017-11-19T10:54:20Z</time>
      </trkpt>
      <trkpt lat="45.93803" lon="4.7711">
        <ele>169</ele>
        <time>2017-11-19T10:54:22Z</time>
      </trkpt>
      <trkpt lat="45.93802" lon="4.77104">
        <ele>169</ele>
        <time>2017-11-19T10:54:23Z</time>
      </trkpt>
      <trkpt lat="45.93801" lon="4.77098">
        <ele>169</ele>
        <time>2017-11-19T10:54:24Z</time>
      </trkpt>
      <trkpt lat="45.93799" lon="4.77091">
        <ele>169</ele>
        <time>2017-11-19T10:54:25Z</time>
      </trkpt>
      <trkpt lat="45.93797" lon="4.77084">
        <ele>169</ele>
        <time>2017-11-19T10:54:26Z</time>
      </trkpt>
      <trkpt lat="45.93795" lon="4.77078">
        <ele>168</ele>
        <time>2017-11-19T10:54:27Z</time>
      </trkpt>
      <trkpt lat="45.93793" lon="4.77071">
        <ele>168</ele>
        <time>2017-11-19T10:54:28Z</time>
      </trkpt>
      <trkpt lat="45.9379" lon="4.77066">
        <ele>169</ele>
        <time>2017-11-19T10:54:29Z</time>
      </trkpt>
      <trkpt lat="45.93787" lon="4.7706">
        <ele>169</ele>
        <time>2017-11-19T10:54:30Z</time>
      </trkpt>
      <trkpt lat="45.93786" lon="4.77053">
        <ele>169</ele>
        <time>2017-11-19T10:54:31Z</time>
      </trkpt>
      <trkpt lat="45.93783" lon="4.77047">
        <ele>169</ele>
        <time>2017-11-19T10:54:32Z</time>
      </trkpt>
      <trkpt lat="45.93782" lon="4.7704">
        <ele>168</ele>
        <time>2017-11-19T10:54:33Z</time>
      </trkpt>
      <trkpt lat="45.9378" lon="4.77032">
        <ele>168</ele>
        <time>2017-11-19T10:54:34Z</time>
      </trkpt>
      <trkpt lat="45.93778" lon="4.77024">
        <ele>168</ele>
        <time>2017-11-19T10:54:35Z</time>
      </trkpt>
      <trkpt lat="45.93776" lon="4.77018">
        <ele>168</ele>
        <time>2017-11-19T10:54:36Z</time>
      </trkpt>
      <trkpt lat="45.93773" lon="4.77013">
        <ele>168</ele>
        <time>2017-11-19T10:54:37Z</time>
      </trkpt>
      <trkpt lat="45.93769" lon="4.77005">
        <ele>169</ele>
        <time>2017-11-19T10:54:39Z</time>
      </trkpt>
      <trkpt lat="45.93767" lon="4.77">
        <ele>169</ele>
        <time>2017-11-19T10:54:40Z</time>
      </trkpt>
      <trkpt lat="45.93765" lon="4.76991">
        <ele>168</ele>
        <time>2017-11-19T10:54:42Z</time>
      </trkpt>
      <trkpt lat="45.93763" lon="4.76987">
        <ele>168</ele>
        <time>2017-11-19T10:54:43Z</time>
      </trkpt>
      <trkpt lat="45.93759" lon="4.76979">
        <ele>168</ele>
        <time>2017-11-19T10:54:45Z</time>
      </trkpt>
      <trkpt lat="45.93757" lon="4.76975">
        <ele>168</ele>
        <time>2017-11-19T10:54:46Z</time>
      </trkpt>
      <trkpt lat="45.93753" lon="4.76964">
        <ele>168</ele>
        <time>2017-11-19T10:54:49Z</time>
      </trkpt>
      <trkpt lat="45.93751" lon="4.76959">
        <ele>168</ele>
        <time>2017-11-19T10:54:50Z</time>
      </trkpt>
      <trkpt lat="45.93746" lon="4.7695">
        <ele>169</ele>
        <time>2017-11-19T10:54:52Z</time>
      </trkpt>
      <trkpt lat="45.93744" lon="4.76945">
        <ele>169</ele>
        <time>2017-11-19T10:54:53Z</time>
      </trkpt>
      <trkpt lat="45.9374" lon="4.76937">
        <ele>169</ele>
        <time>2017-11-19T10:54:55Z</time>
      </trkpt>
      <trkpt lat="45.93738" lon="4.76933">
        <ele>169</ele>
        <time>2017-11-19T10:54:56Z</time>
      </trkpt>
      <trkpt lat="45.93734" lon="4.76923">
        <ele>169</ele>
        <time>2017-11-19T10:54:58Z</time>
      </trkpt>
      <trkpt lat="45.93731" lon="4.76919">
        <ele>169</ele>
        <time>2017-11-19T10:54:59Z</time>
      </trkpt>
      <trkpt lat="45.93726" lon="4.76911">
        <ele>168</ele>
        <time>2017-11-19T10:55:01Z</time>
      </trkpt>
      <trkpt lat="45.93723" lon="4.76906">
        <ele>168</ele>
        <time>2017-11-19T10:55:02Z</time>
      </trkpt>
      <trkpt lat="45.9372" lon="4.76899">
        <ele>168</ele>
        <time>2017-11-19T10:55:04Z</time>
      </trkpt>
      <trkpt lat="45.93718" lon="4.76895">
        <ele>168</ele>
        <time>2017-11-19T10:55:05Z</time>
      </trkpt>
      <trkpt lat="45.93713" lon="4.76885">
        <ele>167</ele>
        <time>2017-11-19T10:55:07Z</time>
      </trkpt>
      <trkpt lat="45.9371" lon="4.76879">
        <ele>167</ele>
        <time>2017-11-19T10:55:08Z</time>
      </trkpt>
      <trkpt lat="45.93704" lon="4.76869">
        <ele>167</ele>
        <time>2017-11-19T10:55:10Z</time>
      </trkpt>
      <trkpt lat="45.93701" lon="4.76865">
        <ele>167</ele>
        <time>2017-11-19T10:55:11Z</time>
      </trkpt>
      <trkpt lat="45.93696" lon="4.76858">
        <ele>167</ele>
        <time>2017-11-19T10:55:13Z</time>
      </trkpt>
      <trkpt lat="45.93694" lon="4.76854">
        <ele>167</ele>
        <time>2017-11-19T10:55:14Z</time>
      </trkpt>
      <trkpt lat="45.93691" lon="4.76847">
        <ele>167</ele>
        <time>2017-11-19T10:55:16Z</time>
      </trkpt>
      <trkpt lat="45.93689" lon="4.76843">
        <ele>167</ele>
        <time>2017-11-19T10:55:17Z</time>
      </trkpt>
      <trkpt lat="45.93683" lon="4.76835">
        <ele>167</ele>
        <time>2017-11-19T10:55:19Z</time>
      </trkpt>
      <trkpt lat="45.9368" lon="4.76832">
        <ele>166</ele>
        <time>2017-11-19T10:55:20Z</time>
      </trkpt>
      <trkpt lat="45.93675" lon="4.76823">
        <ele>166</ele>
        <time>2017-11-19T10:55:22Z</time>
      </trkpt>
      <trkpt lat="45.93672" lon="4.76818">
        <ele>166</ele>
        <time>2017-11-19T10:55:23Z</time>
      </trkpt>
      <trkpt lat="45.93665" lon="4.76809">
        <ele>167</ele>
        <time>2017-11-19T10:55:25Z</time>
      </trkpt>
      <trkpt lat="45.93662" lon="4.76805">
        <ele>167</ele>
        <time>2017-11-19T10:55:26Z</time>
      </trkpt>
      <trkpt lat="45.93658" lon="4.76796">
        <ele>167</ele>
        <time>2017-11-19T10:55:28Z</time>
      </trkpt>
      <trkpt lat="45.93656" lon="4.76792">
        <ele>167</ele>
        <time>2017-11-19T10:55:29Z</time>
      </trkpt>
      <trkpt lat="45.93651" lon="4.76783">
        <ele>167</ele>
        <time>2017-11-19T10:55:31Z</time>
      </trkpt>
      <trkpt lat="45.93648" lon="4.76779">
        <ele>167</ele>
        <time>2017-11-19T10:55:32Z</time>
      </trkpt>
      <trkpt lat="45.93643" lon="4.76772">
        <ele>168</ele>
        <time>2017-11-19T10:55:34Z</time>
      </trkpt>
      <trkpt lat="45.93641" lon="4.76768">
        <ele>168</ele>
        <time>2017-11-19T10:55:35Z</time>
      </trkpt>
      <trkpt lat="45.93637" lon="4.76764">
        <ele>168</ele>
        <time>2017-11-19T10:55:36Z</time>
      </trkpt>
      <trkpt lat="45.93631" lon="4.76758">
        <ele>168</ele>
        <time>2017-11-19T10:55:37Z</time>
      </trkpt>
      <trkpt lat="45.93629" lon="4.76753">
        <ele>168</ele>
        <time>2017-11-19T10:55:38Z</time>
      </trkpt>
      <trkpt lat="45.93627" lon="4.76746">
        <ele>168</ele>
        <time>2017-11-19T10:55:39Z</time>
      </trkpt>
      <trkpt lat="45.93623" lon="4.7674">
        <ele>169</ele>
        <time>2017-11-19T10:55:40Z</time>
      </trkpt>
      <trkpt lat="45.9362" lon="4.76736">
        <ele>169</ele>
        <time>2017-11-19T10:55:41Z</time>
      </trkpt>
      <trkpt lat="45.93614" lon="4.76728">
        <ele>169</ele>
        <time>2017-11-19T10:55:43Z</time>
      </trkpt>
      <trkpt lat="45.93612" lon="4.76724">
        <ele>169</ele>
        <time>2017-11-19T10:55:44Z</time>
      </trkpt>
      <trkpt lat="45.93608" lon="4.76717">
        <ele>169</ele>
        <time>2017-11-19T10:55:46Z</time>
      </trkpt>
      <trkpt lat="45.93606" lon="4.76712">
        <ele>169</ele>
        <time>2017-11-19T10:55:47Z</time>
      </trkpt>
      <trkpt lat="45.936" lon="4.76704">
        <ele>169</ele>
        <time>2017-11-19T10:55:49Z</time>
      </trkpt>
      <trkpt lat="45.93598" lon="4.767">
        <ele>169</ele>
        <time>2017-11-19T10:55:50Z</time>
      </trkpt>
      <trkpt lat="45.93593" lon="4.76692">
        <ele>169</ele>
        <time>2017-11-19T10:55:52Z</time>
      </trkpt>
      <trkpt lat="45.93591" lon="4.76688">
        <ele>170</ele>
        <time>2017-11-19T10:55:53Z</time>
      </trkpt>
      <trkpt lat="45.93588" lon="4.7668">
        <ele>170</ele>
        <time>2017-11-19T10:55:55Z</time>
      </trkpt>
      <trkpt lat="45.93586" lon="4.76676">
        <ele>170</ele>
        <time>2017-11-19T10:55:56Z</time>
      </trkpt>
      <trkpt lat="45.93581" lon="4.76667">
        <ele>171</ele>
        <time>2017-11-19T10:55:58Z</time>
      </trkpt>
      <trkpt lat="45.93578" lon="4.76663">
        <ele>171</ele>
        <time>2017-11-19T10:55:59Z</time>
      </trkpt>
      <trkpt lat="45.93571" lon="4.76655">
        <ele>170</ele>
        <time>2017-11-19T10:56:01Z</time>
      </trkpt>
      <trkpt lat="45.93569" lon="4.76651">
        <ele>170</ele>
        <time>2017-11-19T10:56:02Z</time>
      </trkpt>
      <trkpt lat="45.93565" lon="4.76644">
        <ele>170</ele>
        <time>2017-11-19T10:56:04Z</time>
      </trkpt>
      <trkpt lat="45.93562" lon="4.76641">
        <ele>170</ele>
        <time>2017-11-19T10:56:05Z</time>
      </trkpt>
      <trkpt lat="45.93557" lon="4.76632">
        <ele>170</ele>
        <time>2017-11-19T10:56:07Z</time>
      </trkpt>
      <trkpt lat="45.93554" lon="4.76627">
        <ele>169</ele>
        <time>2017-11-19T10:56:08Z</time>
      </trkpt>
      <trkpt lat="45.93548" lon="4.76619">
        <ele>169</ele>
        <time>2017-11-19T10:56:10Z</time>
      </trkpt>
      <trkpt lat="45.93545" lon="4.76615">
        <ele>169</ele>
        <time>2017-11-19T10:56:11Z</time>
      </trkpt>
      <trkpt lat="45.93539" lon="4.76606">
        <ele>169</ele>
        <time>2017-11-19T10:56:13Z</time>
      </trkpt>
      <trkpt lat="45.93536" lon="4.76601">
        <ele>169</ele>
        <time>2017-11-19T10:56:14Z</time>
      </trkpt>
      <trkpt lat="45.93531" lon="4.76591">
        <ele>169</ele>
        <time>2017-11-19T10:56:16Z</time>
      </trkpt>
      <trkpt lat="45.93528" lon="4.76586">
        <ele>169</ele>
        <time>2017-11-19T10:56:17Z</time>
      </trkpt>
      <trkpt lat="45.93522" lon="4.76578">
        <ele>168</ele>
        <time>2017-11-19T10:56:19Z</time>
      </trkpt>
      <trkpt lat="45.9352" lon="4.76575">
        <ele>168</ele>
        <time>2017-11-19T10:56:20Z</time>
      </trkpt>
      <trkpt lat="45.93515" lon="4.7657">
        <ele>168</ele>
        <time>2017-11-19T10:56:22Z</time>
      </trkpt>
      <trkpt lat="45.93512" lon="4.76567">
        <ele>168</ele>
        <time>2017-11-19T10:56:23Z</time>
      </trkpt>
      <trkpt lat="45.93507" lon="4.76559">
        <ele>168</ele>
        <time>2017-11-19T10:56:25Z</time>
      </trkpt>
      <trkpt lat="45.93504" lon="4.76555">
        <ele>168</ele>
        <time>2017-11-19T10:56:26Z</time>
      </trkpt>
      <trkpt lat="45.93497" lon="4.76547">
        <ele>168</ele>
        <time>2017-11-19T10:56:28Z</time>
      </trkpt>
      <trkpt lat="45.93494" lon="4.76543">
        <ele>168</ele>
        <time>2017-11-19T10:56:29Z</time>
      </trkpt>
      <trkpt lat="45.93489" lon="4.76536">
        <ele>168</ele>
        <time>2017-11-19T10:56:31Z</time>
      </trkpt>
      <trkpt lat="45.93486" lon="4.76533">
        <ele>168</ele>
        <time>2017-11-19T10:56:32Z</time>
      </trkpt>
      <trkpt lat="45.93481" lon="4.76523">
        <ele>168</ele>
        <time>2017-11-19T10:56:35Z</time>
      </trkpt>
      <trkpt lat="45.93479" lon="4.76521">
        <ele>168</ele>
        <time>2017-11-19T10:56:36Z</time>
      </trkpt>
      <trkpt lat="45.93472" lon="4.76515">
        <ele>168</ele>
        <time>2017-11-19T10:56:39Z</time>
      </trkpt>
      <trkpt lat="45.9347" lon="4.76513">
        <ele>168</ele>
        <time>2017-11-19T10:56:40Z</time>
      </trkpt>
      <trkpt lat="45.93464" lon="4.76503">
        <ele>168</ele>
        <time>2017-11-19T10:56:43Z</time>
      </trkpt>
      <trkpt lat="45.93462" lon="4.76499">
        <ele>167</ele>
        <time>2017-11-19T10:56:44Z</time>
      </trkpt>
      <trkpt lat="45.93457" lon="4.76491">
        <ele>167</ele>
        <time>2017-11-19T10:56:46Z</time>
      </trkpt>
      <trkpt lat="45.93454" lon="4.76488">
        <ele>167</ele>
        <time>2017-11-19T10:56:47Z</time>
      </trkpt>
      <trkpt lat="45.9345" lon="4.76481">
        <ele>167</ele>
        <time>2017-11-19T10:56:49Z</time>
      </trkpt>
      <trkpt lat="45.93448" lon="4.76477">
        <ele>167</ele>
        <time>2017-11-19T10:56:50Z</time>
      </trkpt>
      <trkpt lat="45.93443" lon="4.76468">
        <ele>167</ele>
        <time>2017-11-19T10:56:52Z</time>
      </trkpt>
      <trkpt lat="45.9344" lon="4.76464">
        <ele>167</ele>
        <time>2017-11-19T10:56:53Z</time>
      </trkpt>
      <trkpt lat="45.93433" lon="4.76456">
        <ele>167</ele>
        <time>2017-11-19T10:56:55Z</time>
      </trkpt>
      <trkpt lat="45.93427" lon="4.76452">
        <ele>167</ele>
        <time>2017-11-19T10:56:56Z</time>
      </trkpt>
      <trkpt lat="45.93424" lon="4.76447">
        <ele>167</ele>
        <time>2017-11-19T10:56:57Z</time>
      </trkpt>
      <trkpt lat="45.9342" lon="4.76441">
        <ele>167</ele>
        <time>2017-11-19T10:56:58Z</time>
      </trkpt>
      <trkpt lat="45.93415" lon="4.76436">
        <ele>167</ele>
        <time>2017-11-19T10:56:59Z</time>
      </trkpt>
      <trkpt lat="45.93412" lon="4.76433">
        <ele>167</ele>
        <time>2017-11-19T10:57:00Z</time>
      </trkpt>
      <trkpt lat="45.93406" lon="4.76425">
        <ele>167</ele>
        <time>2017-11-19T10:57:02Z</time>
      </trkpt>
      <trkpt lat="45.93403" lon="4.7642">
        <ele>167</ele>
        <time>2017-11-19T10:57:03Z</time>
      </trkpt>
      <trkpt lat="45.93397" lon="4.76413">
        <ele>167</ele>
        <time>2017-11-19T10:57:05Z</time>
      </trkpt>
      <trkpt lat="45.93394" lon="4.7641">
        <ele>167</ele>
        <time>2017-11-19T10:57:06Z</time>
      </trkpt>
      <trkpt lat="45.93389" lon="4.76403">
        <ele>167</ele>
        <time>2017-11-19T10:57:08Z</time>
      </trkpt>
      <trkpt lat="45.93385" lon="4.76398">
        <ele>168</ele>
        <time>2017-11-19T10:57:09Z</time>
      </trkpt>
      <trkpt lat="45.93381" lon="4.76392">
        <ele>168</ele>
        <time>2017-11-19T10:57:11Z</time>
      </trkpt>
      <trkpt lat="45.93378" lon="4.76388">
        <ele>168</ele>
        <time>2017-11-19T10:57:12Z</time>
      </trkpt>
      <trkpt lat="45.93373" lon="4.76381">
        <ele>168</ele>
        <time>2017-11-19T10:57:14Z</time>
      </trkpt>
      <trkpt lat="45.93371" lon="4.76379">
        <ele>168</ele>
        <time>2017-11-19T10:57:15Z</time>
      </trkpt>
      <trkpt lat="45.93366" lon="4.76369">
        <ele>168</ele>
        <time>2017-11-19T10:57:18Z</time>
      </trkpt>
      <trkpt lat="45.93364" lon="4.76365">
        <ele>168</ele>
        <time>2017-11-19T10:57:19Z</time>
      </trkpt>
      <trkpt lat="45.93359" lon="4.76357">
        <ele>168</ele>
        <time>2017-11-19T10:57:21Z</time>
      </trkpt>
      <trkpt lat="45.93356" lon="4.76353">
        <ele>168</ele>
        <time>2017-11-19T10:57:22Z</time>
      </trkpt>
      <trkpt lat="45.93351" lon="4.76346">
        <ele>168</ele>
        <time>2017-11-19T10:57:24Z</time>
      </trkpt>
      <trkpt lat="45.93348" lon="4.76343">
        <ele>168</ele>
        <time>2017-11-19T10:57:25Z</time>
      </trkpt>
      <trkpt lat="45.93343" lon="4.76336">
        <ele>169</ele>
        <time>2017-11-19T10:57:27Z</time>
      </trkpt>
      <trkpt lat="45.93341" lon="4.76332">
        <ele>169</ele>
        <time>2017-11-19T10:57:28Z</time>
      </trkpt>
      <trkpt lat="45.93337" lon="4.76324">
        <ele>169</ele>
        <time>2017-11-19T10:57:30Z</time>
      </trkpt>
      <trkpt lat="45.93334" lon="4.7632">
        <ele>169</ele>
        <time>2017-11-19T10:57:31Z</time>
      </trkpt>
      <trkpt lat="45.93328" lon="4.76316">
        <ele>168</ele>
        <time>2017-11-19T10:57:33Z</time>
      </trkpt>
      <trkpt lat="45.93325" lon="4.76314">
        <ele>168</ele>
        <time>2017-11-19T10:57:34Z</time>
      </trkpt>
      <trkpt lat="45.93319" lon="4.76309">
        <ele>168</ele>
        <time>2017-11-19T10:57:36Z</time>
      </trkpt>
      <trkpt lat="45.93316" lon="4.76307">
        <ele>168</ele>
        <time>2017-11-19T10:57:37Z</time>
      </trkpt>
      <trkpt lat="45.93309" lon="4.76302">
        <ele>168</ele>
        <time>2017-11-19T10:57:39Z</time>
      </trkpt>
      <trkpt lat="45.93306" lon="4.763">
        <ele>168</ele>
        <time>2017-11-19T10:57:40Z</time>
      </trkpt>
      <trkpt lat="45.93298" lon="4.76297">
        <ele>168</ele>
        <time>2017-11-19T10:57:42Z</time>
      </trkpt>
      <trkpt lat="45.93295" lon="4.76296">
        <ele>168</ele>
        <time>2017-11-19T10:57:43Z</time>
      </trkpt>
      <trkpt lat="45.93288" lon="4.76294">
        <ele>168</ele>
        <time>2017-11-19T10:57:45Z</time>
      </trkpt>
      <trkpt lat="45.93285" lon="4.76294">
        <ele>168</ele>
        <time>2017-11-19T10:57:46Z</time>
      </trkpt>
      <trkpt lat="45.93278" lon="4.76292">
        <ele>168</ele>
        <time>2017-11-19T10:57:48Z</time>
      </trkpt>
      <trkpt lat="45.93275" lon="4.76291">
        <ele>168</ele>
        <time>2017-11-19T10:57:49Z</time>
      </trkpt>
      <trkpt lat="45.93266" lon="4.76289">
        <ele>168</ele>
        <time>2017-11-19T10:57:52Z</time>
      </trkpt>
      <trkpt lat="45.93264" lon="4.7629">
        <ele>168</ele>
        <time>2017-11-19T10:57:53Z</time>
      </trkpt>
      <trkpt lat="45.93255" lon="4.76289">
        <ele>169</ele>
        <time>2017-11-19T10:57:56Z</time>
      </trkpt>
      <trkpt lat="45.93252" lon="4.76289">
        <ele>169</ele>
        <time>2017-11-19T10:57:57Z</time>
      </trkpt>
      <trkpt lat="45.93243" lon="4.76292">
        <ele>169</ele>
        <time>2017-11-19T10:58:00Z</time>
      </trkpt>
      <trkpt lat="45.93241" lon="4.76293">
        <ele>169</ele>
        <time>2017-11-19T10:58:01Z</time>
      </trkpt>
      <trkpt lat="45.93236" lon="4.76298">
        <ele>169</ele>
        <time>2017-11-19T10:58:03Z</time>
      </trkpt>
      <trkpt lat="45.93233" lon="4.76302">
        <ele>169</ele>
        <time>2017-11-19T10:58:04Z</time>
      </trkpt>
      <trkpt lat="45.93231" lon="4.76313">
        <ele>169</ele>
        <time>2017-11-19T10:58:06Z</time>
      </trkpt>
      <trkpt lat="45.9323" lon="4.76319">
        <ele>169</ele>
        <time>2017-11-19T10:58:07Z</time>
      </trkpt>
      <trkpt lat="45.93228" lon="4.7633">
        <ele>168</ele>
        <time>2017-11-19T10:58:09Z</time>
      </trkpt>
      <trkpt lat="45.93228" lon="4.76336">
        <ele>168</ele>
        <time>2017-11-19T10:58:10Z</time>
      </trkpt>
      <trkpt lat="45.93227" lon="4.76348">
        <ele>168</ele>
        <time>2017-11-19T10:58:12Z</time>
      </trkpt>
      <trkpt lat="45.93226" lon="4.76354">
        <ele>168</ele>
        <time>2017-11-19T10:58:13Z</time>
      </trkpt>
      <trkpt lat="45.93225" lon="4.76364">
        <ele>168</ele>
        <time>2017-11-19T10:58:15Z</time>
      </trkpt>
      <trkpt lat="45.93225" lon="4.7637">
        <ele>168</ele>
        <time>2017-11-19T10:58:16Z</time>
      </trkpt>
      <trkpt lat="45.93224" lon="4.76382">
        <ele>168</ele>
        <time>2017-11-19T10:58:18Z</time>
      </trkpt>
      <trkpt lat="45.93224" lon="4.76389">
        <ele>168</ele>
        <time>2017-11-19T10:58:19Z</time>
      </trkpt>
      <trkpt lat="45.93222" lon="4.76396">
        <ele>168</ele>
        <time>2017-11-19T10:58:20Z</time>
      </trkpt>
      <trkpt lat="45.93222" lon="4.76403">
        <ele>168</ele>
        <time>2017-11-19T10:58:21Z</time>
      </trkpt>
      <trkpt lat="45.93221" lon="4.76415">
        <ele>168</ele>
        <time>2017-11-19T10:58:23Z</time>
      </trkpt>
      <trkpt lat="45.93221" lon="4.7642">
        <ele>168</ele>
        <time>2017-11-19T10:58:24Z</time>
      </trkpt>
      <trkpt lat="45.93221" lon="4.76429">
        <ele>168</ele>
        <time>2017-11-19T10:58:26Z</time>
      </trkpt>
      <trkpt lat="45.9322" lon="4.76435">
        <ele>168</ele>
        <time>2017-11-19T10:58:27Z</time>
      </trkpt>
      <trkpt lat="45.93219" lon="4.76445">
        <ele>168</ele>
        <time>2017-11-19T10:58:29Z</time>
      </trkpt>
      <trkpt lat="45.93218" lon="4.76451">
        <ele>168</ele>
        <time>2017-11-19T10:58:30Z</time>
      </trkpt>
      <trkpt lat="45.93219" lon="4.76457">
        <ele>168</ele>
        <time>2017-11-19T10:58:31Z</time>
      </trkpt>
      <trkpt lat="45.93218" lon="4.76464">
        <ele>169</ele>
        <time>2017-11-19T10:58:32Z</time>
      </trkpt>
      <trkpt lat="45.93217" lon="4.76471">
        <ele>169</ele>
        <time>2017-11-19T10:58:33Z</time>
      </trkpt>
      <trkpt lat="45.93217" lon="4.76477">
        <ele>169</ele>
        <time>2017-11-19T10:58:34Z</time>
      </trkpt>
      <trkpt lat="45.93216" lon="4.76489">
        <ele>169</ele>
        <time>2017-11-19T10:58:36Z</time>
      </trkpt>
      <trkpt lat="45.93215" lon="4.76494">
        <ele>169</ele>
        <time>2017-11-19T10:58:37Z</time>
      </trkpt>
      <trkpt lat="45.93215" lon="4.76505">
        <ele>169</ele>
        <time>2017-11-19T10:58:39Z</time>
      </trkpt>
      <trkpt lat="45.93215" lon="4.7651">
        <ele>169</ele>
        <time>2017-11-19T10:58:40Z</time>
      </trkpt>
      <trkpt lat="45.93214" lon="4.76518">
        <ele>169</ele>
        <time>2017-11-19T10:58:42Z</time>
      </trkpt>
      <trkpt lat="45.93213" lon="4.76525">
        <ele>169</ele>
        <time>2017-11-19T10:58:43Z</time>
      </trkpt>
      <trkpt lat="45.93212" lon="4.76537">
        <ele>169</ele>
        <time>2017-11-19T10:58:45Z</time>
      </trkpt>
      <trkpt lat="45.93211" lon="4.76543">
        <ele>169</ele>
        <time>2017-11-19T10:58:46Z</time>
      </trkpt>
      <trkpt lat="45.93209" lon="4.76553">
        <ele>169</ele>
        <time>2017-11-19T10:58:48Z</time>
      </trkpt>
      <trkpt lat="45.93209" lon="4.76558">
        <ele>169</ele>
        <time>2017-11-19T10:58:49Z</time>
      </trkpt>
      <trkpt lat="45.93207" lon="4.76567">
        <ele>169</ele>
        <time>2017-11-19T10:58:51Z</time>
      </trkpt>
      <trkpt lat="45.93206" lon="4.76572">
        <ele>169</ele>
        <time>2017-11-19T10:58:52Z</time>
      </trkpt>
      <trkpt lat="45.93203" lon="4.7658">
        <ele>169</ele>
        <time>2017-11-19T10:58:54Z</time>
      </trkpt>
      <trkpt lat="45.93201" lon="4.76584">
        <ele>170</ele>
        <time>2017-11-19T10:58:55Z</time>
      </trkpt>
      <trkpt lat="45.93196" lon="4.76593">
        <ele>170</ele>
        <time>2017-11-19T10:58:58Z</time>
      </trkpt>
      <trkpt lat="45.93194" lon="4.76594">
        <ele>170</ele>
        <time>2017-11-19T10:58:59Z</time>
      </trkpt>
      <trkpt lat="45.93186" lon="4.76591">
        <ele>171</ele>
        <time>2017-11-19T10:59:02Z</time>
      </trkpt>
      <trkpt lat="45.93183" lon="4.76588">
        <ele>171</ele>
        <time>2017-11-19T10:59:03Z</time>
      </trkpt>
      <trkpt lat="45.93177" lon="4.76581">
        <ele>170</ele>
        <time>2017-11-19T10:59:05Z</time>
      </trkpt>
      <trkpt lat="45.93174" lon="4.76578">
        <ele>170</ele>
        <time>2017-11-19T10:59:06Z</time>
      </trkpt>
      <trkpt lat="45.93168" lon="4.76571">
        <ele>170</ele>
        <time>2017-11-19T10:59:08Z</time>
      </trkpt>
      <trkpt lat="45.93165" lon="4.76568">
        <ele>170</ele>
        <time>2017-11-19T10:59:09Z</time>
      </trkpt>
      <trkpt lat="45.93158" lon="4.76562">
        <ele>170</ele>
        <time>2017-11-19T10:59:11Z</time>
      </trkpt>
      <trkpt lat="45.93155" lon="4.76559">
        <ele>170</ele>
        <time>2017-11-19T10:59:12Z</time>
      </trkpt>
      <trkpt lat="45.93149" lon="4.76553">
        <ele>170</ele>
        <time>2017-11-19T10:59:14Z</time>
      </trkpt>
      <trkpt lat="45.93146" lon="4.76549">
        <ele>170</ele>
        <time>2017-11-19T10:59:15Z</time>
      </trkpt>
      <trkpt lat="45.93139" lon="4.76542">
        <ele>170</ele>
        <time>2017-11-19T10:59:17Z</time>
      </trkpt>
      <trkpt lat="45.93136" lon="4.76539">
        <ele>170</ele>
        <time>2017-11-19T10:59:18Z</time>
      </trkpt>
      <trkpt lat="45.93132" lon="4.76535">
        <ele>170</ele>
        <time>2017-11-19T10:59:19Z</time>
      </trkpt>
      <trkpt lat="45.93128" lon="4.7653">
        <ele>170</ele>
        <time>2017-11-19T10:59:20Z</time>
      </trkpt>
      <trkpt lat="45.93124" lon="4.76527">
        <ele>170</ele>
        <time>2017-11-19T10:59:21Z</time>
      </trkpt>
      <trkpt lat="45.9312" lon="4.76523">
        <ele>170</ele>
        <time>2017-11-19T10:59:22Z</time>
      </trkpt>
      <trkpt lat="45.93116" lon="4.76519">
        <ele>170</ele>
        <time>2017-11-19T10:59:23Z</time>
      </trkpt>
      <trkpt lat="45.93112" lon="4.76514">
        <ele>170</ele>
        <time>2017-11-19T10:59:24Z</time>
      </trkpt>
      <trkpt lat="45.93107" lon="4.76509">
        <ele>170</ele>
        <time>2017-11-19T10:59:25Z</time>
      </trkpt>
      <trkpt lat="45.93103" lon="4.76506">
        <ele>170</ele>
        <time>2017-11-19T10:59:26Z</time>
      </trkpt>
      <trkpt lat="45.93098" lon="4.76501">
        <ele>170</ele>
        <time>2017-11-19T10:59:27Z</time>
      </trkpt>
      <trkpt lat="45.93095" lon="4.76498">
        <ele>170</ele>
        <time>2017-11-19T10:59:28Z</time>
      </trkpt>
      <trkpt lat="45.93088" lon="4.76491">
        <ele>170</ele>
        <time>2017-11-19T10:59:30Z</time>
      </trkpt>
      <trkpt lat="45.93085" lon="4.76489">
        <ele>170</ele>
        <time>2017-11-19T10:59:31Z</time>
      </trkpt>
      <trkpt lat="45.93078" lon="4.76483">
        <ele>169</ele>
        <time>2017-11-19T10:59:33Z</time>
      </trkpt>
      <trkpt lat="45.93074" lon="4.76479">
        <ele>169</ele>
        <time>2017-11-19T10:59:34Z</time>
      </trkpt>
      <trkpt lat="45.93071" lon="4.76475">
        <ele>169</ele>
        <time>2017-11-19T10:59:35Z</time>
      </trkpt>
      <trkpt lat="45.93067" lon="4.76471">
        <ele>169</ele>
        <time>2017-11-19T10:59:36Z</time>
      </trkpt>
      <trkpt lat="45.93063" lon="4.76466">
        <ele>169</ele>
        <time>2017-11-19T10:59:37Z</time>
      </trkpt>
      <trkpt lat="45.93059" lon="4.76462">
        <ele>169</ele>
        <time>2017-11-19T10:59:38Z</time>
      </trkpt>
      <trkpt lat="45.93051" lon="4.76456">
        <ele>169</ele>
        <time>2017-11-19T10:59:40Z</time>
      </trkpt>
      <trkpt lat="45.93048" lon="4.76453">
        <ele>169</ele>
        <time>2017-11-19T10:59:41Z</time>
      </trkpt>
      <trkpt lat="45.93042" lon="4.76446">
        <ele>169</ele>
        <time>2017-11-19T10:59:43Z</time>
      </trkpt>
      <trkpt lat="45.93038" lon="4.76441">
        <ele>169</ele>
        <time>2017-11-19T10:59:44Z</time>
      </trkpt>
      <trkpt lat="45.93034" lon="4.76437">
        <ele>169</ele>
        <time>2017-11-19T10:59:45Z</time>
      </trkpt>
      <trkpt lat="45.9303" lon="4.76433">
        <ele>169</ele>
        <time>2017-11-19T10:59:46Z</time>
      </trkpt>
      <trkpt lat="45.93025" lon="4.76429">
        <ele>169</ele>
        <time>2017-11-19T10:59:47Z</time>
      </trkpt>
      <trkpt lat="45.93021" lon="4.76425">
        <ele>169</ele>
        <time>2017-11-19T10:59:48Z</time>
      </trkpt>
      <trkpt lat="45.93017" lon="4.7642">
        <ele>169</ele>
        <time>2017-11-19T10:59:49Z</time>
      </trkpt>
      <trkpt lat="45.93013" lon="4.76417">
        <ele>169</ele>
        <time>2017-11-19T10:59:50Z</time>
      </trkpt>
      <trkpt lat="45.93009" lon="4.76413">
        <ele>169</ele>
        <time>2017-11-19T10:59:51Z</time>
      </trkpt>
      <trkpt lat="45.93005" lon="4.76409">
        <ele>169</ele>
        <time>2017-11-19T10:59:52Z</time>
      </trkpt>
      <trkpt lat="45.92998" lon="4.76402">
        <ele>169</ele>
        <time>2017-11-19T10:59:54Z</time>
      </trkpt>
      <trkpt lat="45.92995" lon="4.76399">
        <ele>169</ele>
        <time>2017-11-19T10:59:55Z</time>
      </trkpt>
      <trkpt lat="45.92988" lon="4.76393">
        <ele>169</ele>
        <time>2017-11-19T10:59:57Z</time>
      </trkpt>
      <trkpt lat="45.92984" lon="4.76389">
        <ele>169</ele>
        <time>2017-11-19T10:59:58Z</time>
      </trkpt>
      <trkpt lat="45.92981" lon="4.76385">
        <ele>169</ele>
        <time>2017-11-19T10:59:59Z</time>
      </trkpt>
      <trkpt lat="45.92976" lon="4.76381">
        <ele>169</ele>
        <time>2017-11-19T11:00:00Z</time>
      </trkpt>
      <trkpt lat="45.92969" lon="4.76374">
        <ele>169</ele>
        <time>2017-11-19T11:00:02Z</time>
      </trkpt>
      <trkpt lat="45.92965" lon="4.7637">
        <ele>169</ele>
        <time>2017-11-19T11:00:03Z</time>
      </trkpt>
      <trkpt lat="45.92958" lon="4.76363">
        <ele>169</ele>
        <time>2017-11-19T11:00:05Z</time>
      </trkpt>
      <trkpt lat="45.92954" lon="4.7636">
        <ele>169</ele>
        <time>2017-11-19T11:00:06Z</time>
      </trkpt>
      <trkpt lat="45.92949" lon="4.76356">
        <ele>169</ele>
        <time>2017-11-19T11:00:07Z</time>
      </trkpt>
      <trkpt lat="45.92945" lon="4.76352">
        <ele>169</ele>
        <time>2017-11-19T11:00:08Z</time>
      </trkpt>
      <trkpt lat="45.92941" lon="4.76347">
        <ele>169</ele>
        <time>2017-11-19T11:00:09Z</time>
      </trkpt>
      <trkpt lat="45.92938" lon="4.76343">
        <ele>169</ele>
        <time>2017-11-19T11:00:10Z</time>
      </trkpt>
      <trkpt lat="45.9293" lon="4.76336">
        <ele>169</ele>
        <time>2017-11-19T11:00:12Z</time>
      </trkpt>
      <trkpt lat="45.92927" lon="4.76331">
        <ele>169</ele>
        <time>2017-11-19T11:00:13Z</time>
      </trkpt>
      <trkpt lat="45.92923" lon="4.76328">
        <ele>169</ele>
        <time>2017-11-19T11:00:14Z</time>
      </trkpt>
      <trkpt lat="45.92918" lon="4.76325">
        <ele>169</ele>
        <time>2017-11-19T11:00:15Z</time>
      </trkpt>
      <trkpt lat="45.92914" lon="4.76322">
        <ele>169</ele>
        <time>2017-11-19T11:00:16Z</time>
      </trkpt>
      <trkpt lat="45.9291" lon="4.76319">
        <ele>169</ele>
        <time>2017-11-19T11:00:17Z</time>
      </trkpt>
      <trkpt lat="45.92905" lon="4.76314">
        <ele>169</ele>
        <time>2017-11-19T11:00:18Z</time>
      </trkpt>
      <trkpt lat="45.92902" lon="4.7631">
        <ele>169</ele>
        <time>2017-11-19T11:00:19Z</time>
      </trkpt>
      <trkpt lat="45.92898" lon="4.76306">
        <ele>169</ele>
        <time>2017-11-19T11:00:20Z</time>
      </trkpt>
      <trkpt lat="45.92894" lon="4.76302">
        <ele>169</ele>
        <time>2017-11-19T11:00:21Z</time>
      </trkpt>
      <trkpt lat="45.92888" lon="4.76297">
        <ele>169</ele>
        <time>2017-11-19T11:00:23Z</time>
      </trkpt>
      <trkpt lat="45.92887" lon="4.76294">
        <ele>169</ele>
        <time>2017-11-19T11:00:24Z</time>
      </trkpt>
      <trkpt lat="45.9288" lon="4.76291">
        <ele>169</ele>
        <time>2017-11-19T11:00:28Z</time>
      </trkpt>
      <trkpt lat="45.92877" lon="4.76295">
        <ele>169</ele>
        <time>2017-11-19T11:00:29Z</time>
      </trkpt>
      <trkpt lat="45.92872" lon="4.76302">
        <ele>169</ele>
        <time>2017-11-19T11:00:31Z</time>
      </trkpt>
      <trkpt lat="45.92869" lon="4.76306">
        <ele>169</ele>
        <time>2017-11-19T11:00:32Z</time>
      </trkpt>
      <trkpt lat="45.92865" lon="4.7631">
        <ele>169</ele>
        <time>2017-11-19T11:00:33Z</time>
      </trkpt>
      <trkpt lat="45.92861" lon="4.76314">
        <ele>169</ele>
        <time>2017-11-19T11:00:34Z</time>
      </trkpt>
      <trkpt lat="45.92854" lon="4.76322">
        <ele>169</ele>
        <time>2017-11-19T11:00:36Z</time>
      </trkpt>
      <trkpt lat="45.92851" lon="4.76327">
        <ele>169</ele>
        <time>2017-11-19T11:00:37Z</time>
      </trkpt>
      <trkpt lat="45.92845" lon="4.76336">
        <ele>170</ele>
        <time>2017-11-19T11:00:39Z</time>
      </trkpt>
      <trkpt lat="45.92842" lon="4.76339">
        <ele>170</ele>
        <time>2017-11-19T11:00:40Z</time>
      </trkpt>
      <trkpt lat="45.92835" lon="4.76348">
        <ele>170</ele>
        <time>2017-11-19T11:00:42Z</time>
      </trkpt>
      <trkpt lat="45.92832" lon="4.76353">
        <ele>170</ele>
        <time>2017-11-19T11:00:43Z</time>
      </trkpt>
      <trkpt lat="45.92826" lon="4.76361">
        <ele>169</ele>
        <time>2017-11-19T11:00:45Z</time>
      </trkpt>
      <trkpt lat="45.92823" lon="4.76365">
        <ele>169</ele>
        <time>2017-11-19T11:00:46Z</time>
      </trkpt>
      <trkpt lat="45.92817" lon="4.76373">
        <ele>169</ele>
        <time>2017-11-19T11:00:48Z</time>
      </trkpt>
      <trkpt lat="45.92815" lon="4.76379">
        <ele>169</ele>
        <time>2017-11-19T11:00:49Z</time>
      </trkpt>
      <trkpt lat="45.92809" lon="4.76385">
        <ele>169</ele>
        <time>2017-11-19T11:00:51Z</time>
      </trkpt>
      <trkpt lat="45.92806" lon="4.76386">
        <ele>169</ele>
        <time>2017-11-19T11:00:52Z</time>
      </trkpt>
      <trkpt lat="45.928" lon="4.76386">
        <ele>169</ele>
        <time>2017-11-19T11:00:54Z</time>
      </trkpt>
      <trkpt lat="45.92796" lon="4.76385">
        <ele>169</ele>
        <time>2017-11-19T11:00:55Z</time>
      </trkpt>
      <trkpt lat="45.92788" lon="4.76381">
        <ele>169</ele>
        <time>2017-11-19T11:00:57Z</time>
      </trkpt>
      <trkpt lat="45.92783" lon="4.7638">
        <ele>169</ele>
        <time>2017-11-19T11:00:58Z</time>
      </trkpt>
      <trkpt lat="45.92778" lon="4.76379">
        <ele>169</ele>
        <time>2017-11-19T11:00:59Z</time>
      </trkpt>
      <trkpt lat="45.92773" lon="4.76377">
        <ele>169</ele>
        <time>2017-11-19T11:01:00Z</time>
      </trkpt>
      <trkpt lat="45.92769" lon="4.76375">
        <ele>169</ele>
        <time>2017-11-19T11:01:01Z</time>
      </trkpt>
      <trkpt lat="45.92765" lon="4.76373">
        <ele>169</ele>
        <time>2017-11-19T11:01:02Z</time>
      </trkpt>
      <trkpt lat="45.92757" lon="4.7637">
        <ele>169</ele>
        <time>2017-11-19T11:01:04Z</time>
      </trkpt>
      <trkpt lat="45.92753" lon="4.76368">
        <ele>169</ele>
        <time>2017-11-19T11:01:05Z</time>
      </trkpt>
      <trkpt lat="45.92746" lon="4.76366">
        <ele>169</ele>
        <time>2017-11-19T11:01:07Z</time>
      </trkpt>
      <trkpt lat="45.92743" lon="4.76365">
        <ele>169</ele>
        <time>2017-11-19T11:01:08Z</time>
      </trkpt>
      <trkpt lat="45.92735" lon="4.76363">
        <ele>169</ele>
        <time>2017-11-19T11:01:10Z</time>
      </trkpt>
      <trkpt lat="45.92732" lon="4.76361">
        <ele>169</ele>
        <time>2017-11-19T11:01:11Z</time>
      </trkpt>
      <trkpt lat="45.92724" lon="4.76359">
        <ele>169</ele>
        <time>2017-11-19T11:01:13Z</time>
      </trkpt>
      <trkpt lat="45.92721" lon="4.76358">
        <ele>169</ele>
        <time>2017-11-19T11:01:14Z</time>
      </trkpt>
      <trkpt lat="45.92714" lon="4.76355">
        <ele>169</ele>
        <time>2017-11-19T11:01:16Z</time>
      </trkpt>
      <trkpt lat="45.9271" lon="4.76354">
        <ele>169</ele>
        <time>2017-11-19T11:01:17Z</time>
      </trkpt>
      <trkpt lat="45.92702" lon="4.76351">
        <ele>168</ele>
        <time>2017-11-19T11:01:19Z</time>
      </trkpt>
      <trkpt lat="45.92698" lon="4.7635">
        <ele>168</ele>
        <time>2017-11-19T11:01:20Z</time>
      </trkpt>
      <trkpt lat="45.9269" lon="4.76347">
        <ele>168</ele>
        <time>2017-11-19T11:01:22Z</time>
      </trkpt>
      <trkpt lat="45.92686" lon="4.76345">
        <ele>168</ele>
        <time>2017-11-19T11:01:23Z</time>
      </trkpt>
      <trkpt lat="45.92682" lon="4.76344">
        <ele>168</ele>
        <time>2017-11-19T11:01:24Z</time>
      </trkpt>
      <trkpt lat="45.92677" lon="4.76343">
        <ele>168</ele>
        <time>2017-11-19T11:01:25Z</time>
      </trkpt>
      <trkpt lat="45.92672" lon="4.76341">
        <ele>168</ele>
        <time>2017-11-19T11:01:26Z</time>
      </trkpt>
      <trkpt lat="45.92667" lon="4.76339">
        <ele>168</ele>
        <time>2017-11-19T11:01:27Z</time>
      </trkpt>
      <trkpt lat="45.92663" lon="4.76336">
        <ele>168</ele>
        <time>2017-11-19T11:01:28Z</time>
      </trkpt>
      <trkpt lat="45.92658" lon="4.76334">
        <ele>168</ele>
        <time>2017-11-19T11:01:29Z</time>
      </trkpt>
      <trkpt lat="45.9265" lon="4.7633">
        <ele>168</ele>
        <time>2017-11-19T11:01:31Z</time>
      </trkpt>
      <trkpt lat="45.92646" lon="4.76328">
        <ele>168</ele>
        <time>2017-11-19T11:01:32Z</time>
      </trkpt>
      <trkpt lat="45.92639" lon="4.76324">
        <ele>168</ele>
        <time>2017-11-19T11:01:34Z</time>
      </trkpt>
      <trkpt lat="45.92636" lon="4.76322">
        <ele>168</ele>
        <time>2017-11-19T11:01:35Z</time>
      </trkpt>
      <trkpt lat="45.92629" lon="4.76318">
        <ele>168</ele>
        <time>2017-11-19T11:01:37Z</time>
      </trkpt>
      <trkpt lat="45.92625" lon="4.76315">
        <ele>168</ele>
        <time>2017-11-19T11:01:38Z</time>
      </trkpt>
      <trkpt lat="45.92617" lon="4.7631">
        <ele>167</ele>
        <time>2017-11-19T11:01:40Z</time>
      </trkpt>
      <trkpt lat="45.92613" lon="4.76308">
        <ele>167</ele>
        <time>2017-11-19T11:01:41Z</time>
      </trkpt>
      <trkpt lat="45.92608" lon="4.76305">
        <ele>167</ele>
        <time>2017-11-19T11:01:42Z</time>
      </trkpt>
      <trkpt lat="45.92604" lon="4.763">
        <ele>167</ele>
        <time>2017-11-19T11:01:43Z</time>
      </trkpt>
      <trkpt lat="45.92596" lon="4.76296">
        <ele>167</ele>
        <time>2017-11-19T11:01:45Z</time>
      </trkpt>
      <trkpt lat="45.92592" lon="4.76294">
        <ele>167</ele>
        <time>2017-11-19T11:01:46Z</time>
      </trkpt>
      <trkpt lat="45.92585" lon="4.7629">
        <ele>168</ele>
        <time>2017-11-19T11:01:48Z</time>
      </trkpt>
      <trkpt lat="45.92582" lon="4.76288">
        <ele>168</ele>
        <time>2017-11-19T11:01:49Z</time>
      </trkpt>
      <trkpt lat="45.92575" lon="4.76283">
        <ele>168</ele>
        <time>2017-11-19T11:01:51Z</time>
      </trkpt>
      <trkpt lat="45.9257" lon="4.76281">
        <ele>168</ele>
        <time>2017-11-19T11:01:52Z</time>
      </trkpt>
      <trkpt lat="45.92562" lon="4.76277">
        <ele>168</ele>
        <time>2017-11-19T11:01:54Z</time>
      </trkpt>
      <trkpt lat="45.92557" lon="4.76274">
        <ele>168</ele>
        <time>2017-11-19T11:01:55Z</time>
      </trkpt>
      <trkpt lat="45.9255" lon="4.7627">
        <ele>168</ele>
        <time>2017-11-19T11:01:57Z</time>
      </trkpt>
      <trkpt lat="45.92546" lon="4.76268">
        <ele>168</ele>
        <time>2017-11-19T11:01:58Z</time>
      </trkpt>
      <trkpt lat="45.92539" lon="4.76264">
        <ele>168</ele>
        <time>2017-11-19T11:02:00Z</time>
      </trkpt>
      <trkpt lat="45.92536" lon="4.76262">
        <ele>168</ele>
        <time>2017-11-19T11:02:01Z</time>
      </trkpt>
      <trkpt lat="45.92531" lon="4.7626">
        <ele>168</ele>
        <time>2017-11-19T11:02:02Z</time>
      </trkpt>
      <trkpt lat="45.92527" lon="4.76258">
        <ele>168</ele>
        <time>2017-11-19T11:02:03Z</time>
      </trkpt>
      <trkpt lat="45.92519" lon="4.76255">
        <ele>168</ele>
        <time>2017-11-19T11:02:05Z</time>
      </trkpt>
      <trkpt lat="45.92513" lon="4.76255">
        <ele>168</ele>
        <time>2017-11-19T11:02:06Z</time>
      </trkpt>
      <trkpt lat="45.92508" lon="4.76255">
        <ele>168</ele>
        <time>2017-11-19T11:02:07Z</time>
      </trkpt>
      <trkpt lat="45.92503" lon="4.76256">
        <ele>168</ele>
        <time>2017-11-19T11:02:08Z</time>
      </trkpt>
      <trkpt lat="45.92497" lon="4.76259">
        <ele>168</ele>
        <time>2017-11-19T11:02:09Z</time>
      </trkpt>
      <trkpt lat="45.92492" lon="4.7626">
        <ele>169</ele>
        <time>2017-11-19T11:02:10Z</time>
      </trkpt>
      <trkpt lat="45.92485" lon="4.76265">
        <ele>169</ele>
        <time>2017-11-19T11:02:12Z</time>
      </trkpt>
      <trkpt lat="45.92482" lon="4.76266">
        <ele>169</ele>
        <time>2017-11-19T11:02:13Z</time>
      </trkpt>
      <trkpt lat="45.92475" lon="4.76269">
        <ele>169</ele>
        <time>2017-11-19T11:02:15Z</time>
      </trkpt>
      <trkpt lat="45.92471" lon="4.76271">
        <ele>169</ele>
        <time>2017-11-19T11:02:16Z</time>
      </trkpt>
      <trkpt lat="45.92464" lon="4.76276">
        <ele>169</ele>
        <time>2017-11-19T11:02:18Z</time>
      </trkpt>
      <trkpt lat="45.92461" lon="4.76278">
        <ele>169</ele>
        <time>2017-11-19T11:02:19Z</time>
      </trkpt>
      <trkpt lat="45.92456" lon="4.76286">
        <ele>169</ele>
        <time>2017-11-19T11:02:21Z</time>
      </trkpt>
      <trkpt lat="45.92453" lon="4.76291">
        <ele>169</ele>
        <time>2017-11-19T11:02:22Z</time>
      </trkpt>
      <trkpt lat="45.92451" lon="4.76295">
        <ele>169</ele>
        <time>2017-11-19T11:02:23Z</time>
      </trkpt>
      <trkpt lat="45.92448" lon="4.76301">
        <ele>169</ele>
        <time>2017-11-19T11:02:24Z</time>
      </trkpt>
      <trkpt lat="45.92446" lon="4.76307">
        <ele>169</ele>
        <time>2017-11-19T11:02:25Z</time>
      </trkpt>
      <trkpt lat="45.92444" lon="4.76313">
        <ele>169</ele>
        <time>2017-11-19T11:02:26Z</time>
      </trkpt>
      <trkpt lat="45.9244" lon="4.76324">
        <ele>170</ele>
        <time>2017-11-19T11:02:28Z</time>
      </trkpt>
      <trkpt lat="45.92438" lon="4.76329">
        <ele>170</ele>
        <time>2017-11-19T11:02:29Z</time>
      </trkpt>
      <trkpt lat="45.92435" lon="4.76339">
        <ele>170</ele>
        <time>2017-11-19T11:02:31Z</time>
      </trkpt>
      <trkpt lat="45.92434" lon="4.76343">
        <ele>170</ele>
        <time>2017-11-19T11:02:32Z</time>
      </trkpt>
      <trkpt lat="45.92431" lon="4.76352">
        <ele>170</ele>
        <time>2017-11-19T11:02:34Z</time>
      </trkpt>
      <trkpt lat="45.92429" lon="4.76357">
        <ele>170</ele>
        <time>2017-11-19T11:02:35Z</time>
      </trkpt>
      <trkpt lat="45.92425" lon="4.76367">
        <ele>170</ele>
        <time>2017-11-19T11:02:37Z</time>
      </trkpt>
      <trkpt lat="45.92423" lon="4.76371">
        <ele>170</ele>
        <time>2017-11-19T11:02:38Z</time>
      </trkpt>
      <trkpt lat="45.92417" lon="4.7638">
        <ele>169</ele>
        <time>2017-11-19T11:02:41Z</time>
      </trkpt>
      <trkpt lat="45.92415" lon="4.76382">
        <ele>169</ele>
        <time>2017-11-19T11:02:42Z</time>
      </trkpt>
      <trkpt lat="45.92409" lon="4.76384">
        <ele>169</ele>
        <time>2017-11-19T11:02:44Z</time>
      </trkpt>
      <trkpt lat="45.92405" lon="4.76382">
        <ele>169</ele>
        <time>2017-11-19T11:02:45Z</time>
      </trkpt>
      <trkpt lat="45.92399" lon="4.76377">
        <ele>169</ele>
        <time>2017-11-19T11:02:47Z</time>
      </trkpt>
      <trkpt lat="45.92396" lon="4.76374">
        <ele>169</ele>
        <time>2017-11-19T11:02:48Z</time>
      </trkpt>
      <trkpt lat="45.92389" lon="4.76366">
        <ele>169</ele>
        <time>2017-11-19T11:02:51Z</time>
      </trkpt>
      <trkpt lat="45.92386" lon="4.76364">
        <ele>168</ele>
        <time>2017-11-19T11:02:52Z</time>
      </trkpt>
      <trkpt lat="45.92381" lon="4.76359">
        <ele>168</ele>
        <time>2017-11-19T11:02:54Z</time>
      </trkpt>
      <trkpt lat="45.92377" lon="4.76355">
        <ele>168</ele>
        <time>2017-11-19T11:02:55Z</time>
      </trkpt>
      <trkpt lat="45.9237" lon="4.76348">
        <ele>168</ele>
        <time>2017-11-19T11:02:57Z</time>
      </trkpt>
      <trkpt lat="45.92367" lon="4.76346">
        <ele>168</ele>
        <time>2017-11-19T11:02:58Z</time>
      </trkpt>
      <trkpt lat="45.9236" lon="4.76343">
        <ele>168</ele>
        <time>2017-11-19T11:03:00Z</time>
      </trkpt>
      <trkpt lat="45.92357" lon="4.76343">
        <ele>168</ele>
        <time>2017-11-19T11:03:01Z</time>
      </trkpt>
      <trkpt lat="45.9235" lon="4.76344">
        <ele>168</ele>
        <time>2017-11-19T11:03:03Z</time>
      </trkpt>
      <trkpt lat="45.92346" lon="4.76346">
        <ele>168</ele>
        <time>2017-11-19T11:03:04Z</time>
      </trkpt>
      <trkpt lat="45.9234" lon="4.76351">
        <ele>168</ele>
        <time>2017-11-19T11:03:06Z</time>
      </trkpt>
      <trkpt lat="45.92336" lon="4.76354">
        <ele>168</ele>
        <time>2017-11-19T11:03:07Z</time>
      </trkpt>
      <trkpt lat="45.92329" lon="4.76358">
        <ele>167</ele>
        <time>2017-11-19T11:03:09Z</time>
      </trkpt>
      <trkpt lat="45.92325" lon="4.76361">
        <ele>167</ele>
        <time>2017-11-19T11:03:10Z</time>
      </trkpt>
      <trkpt lat="45.92317" lon="4.76364">
        <ele>167</ele>
        <time>2017-11-19T11:03:12Z</time>
      </trkpt>
      <trkpt lat="45.92314" lon="4.76366">
        <ele>167</ele>
        <time>2017-11-19T11:03:13Z</time>
      </trkpt>
      <trkpt lat="45.92307" lon="4.76368">
        <ele>167</ele>
        <time>2017-11-19T11:03:15Z</time>
      </trkpt>
      <trkpt lat="45.92303" lon="4.7637">
        <ele>167</ele>
        <time>2017-11-19T11:03:16Z</time>
      </trkpt>
      <trkpt lat="45.92296" lon="4.76373">
        <ele>167</ele>
        <time>2017-11-19T11:03:18Z</time>
      </trkpt>
      <trkpt lat="45.92292" lon="4.76374">
        <ele>167</ele>
        <time>2017-11-19T11:03:19Z</time>
      </trkpt>
      <trkpt lat="45.92288" lon="4.76376">
        <ele>167</ele>
        <time>2017-11-19T11:03:20Z</time>
      </trkpt>
      <trkpt lat="45.92283" lon="4.76378">
        <ele>167</ele>
        <time>2017-11-19T11:03:21Z</time>
      </trkpt>
      <trkpt lat="45.92276" lon="4.7638">
        <ele>167</ele>
        <time>2017-11-19T11:03:23Z</time>
      </trkpt>
      <trkpt lat="45.92272" lon="4.76381">
        <ele>167</ele>
        <time>2017-11-19T11:03:24Z</time>
      </trkpt>
      <trkpt lat="45.92264" lon="4.76384">
        <ele>167</ele>
        <time>2017-11-19T11:03:26Z</time>
      </trkpt>
      <trkpt lat="45.9226" lon="4.76385">
        <ele>167</ele>
        <time>2017-11-19T11:03:27Z</time>
      </trkpt>
      <trkpt lat="45.92253" lon="4.76387">
        <ele>167</ele>
        <time>2017-11-19T11:03:29Z</time>
      </trkpt>
      <trkpt lat="45.92249" lon="4.76388">
        <ele>168</ele>
        <time>2017-11-19T11:03:30Z</time>
      </trkpt>
      <trkpt lat="45.92241" lon="4.76388">
        <ele>168</ele>
        <time>2017-11-19T11:03:32Z</time>
      </trkpt>
      <trkpt lat="45.92237" lon="4.76387">
        <ele>168</ele>
        <time>2017-11-19T11:03:33Z</time>
      </trkpt>
      <trkpt lat="45.9223" lon="4.76386">
        <ele>168</ele>
        <time>2017-11-19T11:03:35Z</time>
      </trkpt>
      <trkpt lat="45.92226" lon="4.76384">
        <ele>168</ele>
        <time>2017-11-19T11:03:36Z</time>
      </trkpt>
      <trkpt lat="45.92219" lon="4.7638">
        <ele>168</ele>
        <time>2017-11-19T11:03:38Z</time>
      </trkpt>
      <trkpt lat="45.92215" lon="4.76378">
        <ele>168</ele>
        <time>2017-11-19T11:03:39Z</time>
      </trkpt>
      <trkpt lat="45.92208" lon="4.76373">
        <ele>168</ele>
        <time>2017-11-19T11:03:41Z</time>
      </trkpt>
      <trkpt lat="45.92204" lon="4.7637">
        <ele>168</ele>
        <time>2017-11-19T11:03:42Z</time>
      </trkpt>
      <trkpt lat="45.92198" lon="4.76366">
        <ele>168</ele>
        <time>2017-11-19T11:03:44Z</time>
      </trkpt>
      <trkpt lat="45.92195" lon="4.76364">
        <ele>168</ele>
        <time>2017-11-19T11:03:45Z</time>
      </trkpt>
      <trkpt lat="45.92188" lon="4.76359">
        <ele>168</ele>
        <time>2017-11-19T11:03:47Z</time>
      </trkpt>
      <trkpt lat="45.92184" lon="4.76357">
        <ele>168</ele>
        <time>2017-11-19T11:03:48Z</time>
      </trkpt>
      <trkpt lat="45.92178" lon="4.76353">
        <ele>168</ele>
        <time>2017-11-19T11:03:50Z</time>
      </trkpt>
      <trkpt lat="45.92174" lon="4.76351">
        <ele>168</ele>
        <time>2017-11-19T11:03:51Z</time>
      </trkpt>
      <trkpt lat="45.92167" lon="4.76346">
        <ele>169</ele>
        <time>2017-11-19T11:03:53Z</time>
      </trkpt>
      <trkpt lat="45.92164" lon="4.76344">
        <ele>169</ele>
        <time>2017-11-19T11:03:54Z</time>
      </trkpt>
      <trkpt lat="45.92156" lon="4.76339">
        <ele>169</ele>
        <time>2017-11-19T11:03:56Z</time>
      </trkpt>
      <trkpt lat="45.92153" lon="4.76337">
        <ele>169</ele>
        <time>2017-11-19T11:03:57Z</time>
      </trkpt>
      <trkpt lat="45.92146" lon="4.76332">
        <ele>169</ele>
        <time>2017-11-19T11:03:59Z</time>
      </trkpt>
      <trkpt lat="45.92143" lon="4.7633">
        <ele>169</ele>
        <time>2017-11-19T11:04:00Z</time>
      </trkpt>
      <trkpt lat="45.92136" lon="4.76326">
        <ele>169</ele>
        <time>2017-11-19T11:04:02Z</time>
      </trkpt>
      <trkpt lat="45.92132" lon="4.76324">
        <ele>169</ele>
        <time>2017-11-19T11:04:03Z</time>
      </trkpt>
      <trkpt lat="45.92124" lon="4.76319">
        <ele>169</ele>
        <time>2017-11-19T11:04:05Z</time>
      </trkpt>
      <trkpt lat="45.9212" lon="4.76316">
        <ele>169</ele>
        <time>2017-11-19T11:04:06Z</time>
      </trkpt>
      <trkpt lat="45.92113" lon="4.76311">
        <ele>169</ele>
        <time>2017-11-19T11:04:08Z</time>
      </trkpt>
      <trkpt lat="45.92109" lon="4.76309">
        <ele>169</ele>
        <time>2017-11-19T11:04:09Z</time>
      </trkpt>
      <trkpt lat="45.92103" lon="4.76306">
        <ele>169</ele>
        <time>2017-11-19T11:04:11Z</time>
      </trkpt>
      <trkpt lat="45.921" lon="4.76304">
        <ele>169</ele>
        <time>2017-11-19T11:04:12Z</time>
      </trkpt>
      <trkpt lat="45.92093" lon="4.763">
        <ele>169</ele>
        <time>2017-11-19T11:04:14Z</time>
      </trkpt>
      <trkpt lat="45.9209" lon="4.76298">
        <ele>169</ele>
        <time>2017-11-19T11:04:15Z</time>
      </trkpt>
      <trkpt lat="45.92082" lon="4.76293">
        <ele>169</ele>
        <time>2017-11-19T11:04:17Z</time>
      </trkpt>
      <trkpt lat="45.92078" lon="4.76291">
        <ele>169</ele>
        <time>2017-11-19T11:04:18Z</time>
      </trkpt>
      <trkpt lat="45.92072" lon="4.76287">
        <ele>169</ele>
        <time>2017-11-19T11:04:20Z</time>
      </trkpt>
      <trkpt lat="45.92068" lon="4.76285">
        <ele>169</ele>
        <time>2017-11-19T11:04:21Z</time>
      </trkpt>
      <trkpt lat="45.92062" lon="4.76282">
        <ele>169</ele>
        <time>2017-11-19T11:04:23Z</time>
      </trkpt>
      <trkpt lat="45.92058" lon="4.7628">
        <ele>169</ele>
        <time>2017-11-19T11:04:24Z</time>
      </trkpt>
      <trkpt lat="45.92051" lon="4.76276">
        <ele>169</ele>
        <time>2017-11-19T11:04:26Z</time>
      </trkpt>
      <trkpt lat="45.92047" lon="4.76274">
        <ele>169</ele>
        <time>2017-11-19T11:04:27Z</time>
      </trkpt>
      <trkpt lat="45.92039" lon="4.76269">
        <ele>169</ele>
        <time>2017-11-19T11:04:29Z</time>
      </trkpt>
      <trkpt lat="45.92035" lon="4.76267">
        <ele>169</ele>
        <time>2017-11-19T11:04:30Z</time>
      </trkpt>
      <trkpt lat="45.92028" lon="4.76262">
        <ele>169</ele>
        <time>2017-11-19T11:04:32Z</time>
      </trkpt>
      <trkpt lat="45.92025" lon="4.7626">
        <ele>169</ele>
        <time>2017-11-19T11:04:33Z</time>
      </trkpt>
      <trkpt lat="45.92019" lon="4.76256">
        <ele>169</ele>
        <time>2017-11-19T11:04:35Z</time>
      </trkpt>
      <trkpt lat="45.92017" lon="4.76254">
        <ele>169</ele>
        <time>2017-11-19T11:04:36Z</time>
      </trkpt>
      <trkpt lat="45.9201" lon="4.76251">
        <ele>170</ele>
        <time>2017-11-19T11:04:38Z</time>
      </trkpt>
      <trkpt lat="45.92006" lon="4.76249">
        <ele>170</ele>
        <time>2017-11-19T11:04:39Z</time>
      </trkpt>
      <trkpt lat="45.91999" lon="4.76245">
        <ele>170</ele>
        <time>2017-11-19T11:04:41Z</time>
      </trkpt>
      <trkpt lat="45.91995" lon="4.76242">
        <ele>170</ele>
        <time>2017-11-19T11:04:42Z</time>
      </trkpt>
      <trkpt lat="45.91987" lon="4.76238">
        <ele>170</ele>
        <time>2017-11-19T11:04:44Z</time>
      </trkpt>
      <trkpt lat="45.91983" lon="4.76236">
        <ele>170</ele>
        <time>2017-11-19T11:04:45Z</time>
      </trkpt>
      <trkpt lat="45.91976" lon="4.76233">
        <ele>171</ele>
        <time>2017-11-19T11:04:47Z</time>
      </trkpt>
      <trkpt lat="45.91973" lon="4.76231">
        <ele>171</ele>
        <time>2017-11-19T11:04:48Z</time>
      </trkpt>
      <trkpt lat="45.91966" lon="4.76227">
        <ele>171</ele>
        <time>2017-11-19T11:04:50Z</time>
      </trkpt>
      <trkpt lat="45.91963" lon="4.76225">
        <ele>171</ele>
        <time>2017-11-19T11:04:51Z</time>
      </trkpt>
      <trkpt lat="45.91956" lon="4.76222">
        <ele>171</ele>
        <time>2017-11-19T11:04:53Z</time>
      </trkpt>
      <trkpt lat="45.91952" lon="4.7622">
        <ele>171</ele>
        <time>2017-11-19T11:04:54Z</time>
      </trkpt>
      <trkpt lat="45.91945" lon="4.76216">
        <ele>171</ele>
        <time>2017-11-19T11:04:56Z</time>
      </trkpt>
      <trkpt lat="45.91942" lon="4.76215">
        <ele>171</ele>
        <time>2017-11-19T11:04:57Z</time>
      </trkpt>
      <trkpt lat="45.91936" lon="4.76211">
        <ele>171</ele>
        <time>2017-11-19T11:04:59Z</time>
      </trkpt>
      <trkpt lat="45.91933" lon="4.7621">
        <ele>171</ele>
        <time>2017-11-19T11:05:00Z</time>
      </trkpt>
      <trkpt lat="45.91926" lon="4.76206">
        <ele>171</ele>
        <time>2017-11-19T11:05:02Z</time>
      </trkpt>
      <trkpt lat="45.91922" lon="4.76204">
        <ele>171</ele>
        <time>2017-11-19T11:05:03Z</time>
      </trkpt>
      <trkpt lat="45.91915" lon="4.762">
        <ele>172</ele>
        <time>2017-11-19T11:05:05Z</time>
      </trkpt>
      <trkpt lat="45.91911" lon="4.76198">
        <ele>172</ele>
        <time>2017-11-19T11:05:06Z</time>
      </trkpt>
      <trkpt lat="45.91904" lon="4.76194">
        <ele>172</ele>
        <time>2017-11-19T11:05:08Z</time>
      </trkpt>
      <trkpt lat="45.91901" lon="4.76191">
        <ele>172</ele>
        <time>2017-11-19T11:05:09Z</time>
      </trkpt>
      <trkpt lat="45.91893" lon="4.76187">
        <ele>172</ele>
        <time>2017-11-19T11:05:12Z</time>
      </trkpt>
      <trkpt lat="45.91891" lon="4.76186">
        <ele>172</ele>
        <time>2017-11-19T11:05:13Z</time>
      </trkpt>
      <trkpt lat="45.91884" lon="4.76181">
        <ele>172</ele>
        <time>2017-11-19T11:05:16Z</time>
      </trkpt>
      <trkpt lat="45.91881" lon="4.7618">
        <ele>172</ele>
        <time>2017-11-19T11:05:17Z</time>
      </trkpt>
      <trkpt lat="45.91874" lon="4.76175">
        <ele>172</ele>
        <time>2017-11-19T11:05:21Z</time>
      </trkpt>
      <trkpt lat="45.91872" lon="4.76174">
        <ele>172</ele>
        <time>2017-11-19T11:05:22Z</time>
      </trkpt>
      <trkpt lat="45.91864" lon="4.76172">
        <ele>172</ele>
        <time>2017-11-19T11:05:26Z</time>
      </trkpt>
      <trkpt lat="45.91862" lon="4.76173">
        <ele>172</ele>
        <time>2017-11-19T11:05:27Z</time>
      </trkpt>
      <trkpt lat="45.91858" lon="4.76182">
        <ele>172</ele>
        <time>2017-11-19T11:05:30Z</time>
      </trkpt>
      <trkpt lat="45.91856" lon="4.76185">
        <ele>172</ele>
        <time>2017-11-19T11:05:31Z</time>
      </trkpt>
      <trkpt lat="45.91854" lon="4.76194">
        <ele>172</ele>
        <time>2017-11-19T11:05:33Z</time>
      </trkpt>
      <trkpt lat="45.91852" lon="4.76198">
        <ele>172</ele>
        <time>2017-11-19T11:05:34Z</time>
      </trkpt>
      <trkpt lat="45.91848" lon="4.76207">
        <ele>172</ele>
        <time>2017-11-19T11:05:36Z</time>
      </trkpt>
      <trkpt lat="45.91846" lon="4.76211">
        <ele>172</ele>
        <time>2017-11-19T11:05:37Z</time>
      </trkpt>
      <trkpt lat="45.91842" lon="4.76221">
        <ele>172</ele>
        <time>2017-11-19T11:05:39Z</time>
      </trkpt>
      <trkpt lat="45.9184" lon="4.76225">
        <ele>172</ele>
        <time>2017-11-19T11:05:40Z</time>
      </trkpt>
      <trkpt lat="45.91837" lon="4.76237">
        <ele>173</ele>
        <time>2017-11-19T11:05:42Z</time>
      </trkpt>
      <trkpt lat="45.91835" lon="4.76243">
        <ele>173</ele>
        <time>2017-11-19T11:05:43Z</time>
      </trkpt>
      <trkpt lat="45.91832" lon="4.76254">
        <ele>173</ele>
        <time>2017-11-19T11:05:45Z</time>
      </trkpt>
      <trkpt lat="45.91831" lon="4.76259">
        <ele>174</ele>
        <time>2017-11-19T11:05:46Z</time>
      </trkpt>
      <trkpt lat="45.91829" lon="4.76269">
        <ele>174</ele>
        <time>2017-11-19T11:05:48Z</time>
      </trkpt>
      <trkpt lat="45.91828" lon="4.76274">
        <ele>174</ele>
        <time>2017-11-19T11:05:49Z</time>
      </trkpt>
      <trkpt lat="45.91825" lon="4.76286">
        <ele>174</ele>
        <time>2017-11-19T11:05:51Z</time>
      </trkpt>
      <trkpt lat="45.91824" lon="4.76291">
        <ele>174</ele>
        <time>2017-11-19T11:05:52Z</time>
      </trkpt>
      <trkpt lat="45.91821" lon="4.76301">
        <ele>174</ele>
        <time>2017-11-19T11:05:54Z</time>
      </trkpt>
      <trkpt lat="45.9182" lon="4.76306">
        <ele>174</ele>
        <time>2017-11-19T11:05:55Z</time>
      </trkpt>
      <trkpt lat="45.91818" lon="4.76315">
        <ele>174</ele>
        <time>2017-11-19T11:05:57Z</time>
      </trkpt>
      <trkpt lat="45.91817" lon="4.7632">
        <ele>174</ele>
        <time>2017-11-19T11:05:58Z</time>
      </trkpt>
      <trkpt lat="45.91812" lon="4.7633">
        <ele>174</ele>
        <time>2017-11-19T11:06:01Z</time>
      </trkpt>
      <trkpt lat="45.91809" lon="4.76331">
        <ele>174</ele>
        <time>2017-11-19T11:06:02Z</time>
      </trkpt>
      <trkpt lat="45.91801" lon="4.76329">
        <ele>174</ele>
        <time>2017-11-19T11:06:05Z</time>
      </trkpt>
      <trkpt lat="45.91799" lon="4.76327">
        <ele>174</ele>
        <time>2017-11-19T11:06:06Z</time>
      </trkpt>
      <trkpt lat="45.91791" lon="4.76322">
        <ele>175</ele>
        <time>2017-11-19T11:06:10Z</time>
      </trkpt>
      <trkpt lat="45.91789" lon="4.76322">
        <ele>175</ele>
        <time>2017-11-19T11:06:11Z</time>
      </trkpt>
      <trkpt lat="45.91782" lon="4.76321">
        <ele>175</ele>
        <time>2017-11-19T11:06:15Z</time>
      </trkpt>
      <trkpt lat="45.9178" lon="4.7632">
        <ele>175</ele>
        <time>2017-11-19T11:06:16Z</time>
      </trkpt>
      <trkpt lat="45.91772" lon="4.76318">
        <ele>175</ele>
        <time>2017-11-19T11:06:20Z</time>
      </trkpt>
      <trkpt lat="45.9177" lon="4.76317">
        <ele>175</ele>
        <time>2017-11-19T11:06:21Z</time>
      </trkpt>
      <trkpt lat="45.91763" lon="4.76316">
        <ele>175</ele>
        <time>2017-11-19T11:06:24Z</time>
      </trkpt>
      <trkpt lat="45.91761" lon="4.76315">
        <ele>175</ele>
        <time>2017-11-19T11:06:25Z</time>
      </trkpt>
      <trkpt lat="45.91752" lon="4.76317">
        <ele>175</ele>
        <time>2017-11-19T11:06:29Z</time>
      </trkpt>
      <trkpt lat="45.9175" lon="4.76318">
        <ele>176</ele>
        <time>2017-11-19T11:06:30Z</time>
      </trkpt>
      <trkpt lat="45.91742" lon="4.76323">
        <ele>177</ele>
        <time>2017-11-19T11:06:34Z</time>
      </trkpt>
      <trkpt lat="45.9174" lon="4.76324">
        <ele>177</ele>
        <time>2017-11-19T11:06:35Z</time>
      </trkpt>
      <trkpt lat="45.91732" lon="4.76327">
        <ele>177</ele>
        <time>2017-11-19T11:06:40Z</time>
      </trkpt>
      <trkpt lat="45.91731" lon="4.76328">
        <ele>177</ele>
        <time>2017-11-19T11:06:41Z</time>
      </trkpt>
      <trkpt lat="45.91724" lon="4.76333">
        <ele>177</ele>
        <time>2017-11-19T11:06:45Z</time>
      </trkpt>
      <trkpt lat="45.91722" lon="4.76335">
        <ele>176</ele>
        <time>2017-11-19T11:06:46Z</time>
      </trkpt>
      <trkpt lat="45.91714" lon="4.76339">
        <ele>176</ele>
        <time>2017-11-19T11:06:51Z</time>
      </trkpt>
      <trkpt lat="45.91713" lon="4.7634">
        <ele>176</ele>
        <time>2017-11-19T11:06:52Z</time>
      </trkpt>
      <trkpt lat="45.91705" lon="4.76343">
        <ele>177</ele>
        <time>2017-11-19T11:06:56Z</time>
      </trkpt>
      <trkpt lat="45.91703" lon="4.76344">
        <ele>177</ele>
        <time>2017-11-19T11:06:57Z</time>
      </trkpt>
      <trkpt lat="45.91695" lon="4.76348">
        <ele>177</ele>
        <time>2017-11-19T11:07:01Z</time>
      </trkpt>
      <trkpt lat="45.91692" lon="4.76349">
        <ele>177</ele>
        <time>2017-11-19T11:07:02Z</time>
      </trkpt>
      <trkpt lat="45.91683" lon="4.76352">
        <ele>177</ele>
        <time>2017-11-19T11:07:06Z</time>
      </trkpt>
      <trkpt lat="45.91681" lon="4.76351">
        <ele>177</ele>
        <time>2017-11-19T11:07:07Z</time>
      </trkpt>
      <trkpt lat="45.91674" lon="4.76349">
        <ele>177</ele>
        <time>2017-11-19T11:07:10Z</time>
      </trkpt>
      <trkpt lat="45.91671" lon="4.76348">
        <ele>177</ele>
        <time>2017-11-19T11:07:11Z</time>
      </trkpt>
      <trkpt lat="45.91663" lon="4.76346">
        <ele>177</ele>
        <time>2017-11-19T11:07:15Z</time>
      </trkpt>
      <trkpt lat="45.91661" lon="4.76345">
        <ele>177</ele>
        <time>2017-11-19T11:07:16Z</time>
      </trkpt>
      <trkpt lat="45.91653" lon="4.76342">
        <ele>177</ele>
        <time>2017-11-19T11:07:20Z</time>
      </trkpt>
      <trkpt lat="45.91651" lon="4.76342">
        <ele>177</ele>
        <time>2017-11-19T11:07:21Z</time>
      </trkpt>
      <trkpt lat="45.91644" lon="4.7634">
        <ele>177</ele>
        <time>2017-11-19T11:07:24Z</time>
      </trkpt>
      <trkpt lat="45.91641" lon="4.76339">
        <ele>177</ele>
        <time>2017-11-19T11:07:25Z</time>
      </trkpt>
      <trkpt lat="45.91635" lon="4.76336">
        <ele>176</ele>
        <time>2017-11-19T11:07:28Z</time>
      </trkpt>
      <trkpt lat="45.91632" lon="4.76335">
        <ele>176</ele>
        <time>2017-11-19T11:07:29Z</time>
      </trkpt>
      <trkpt lat="45.91624" lon="4.76333">
        <ele>177</ele>
        <time>2017-11-19T11:07:32Z</time>
      </trkpt>
      <trkpt lat="45.91622" lon="4.76332">
        <ele>177</ele>
        <time>2017-11-19T11:07:33Z</time>
      </trkpt>
      <trkpt lat="45.91615" lon="4.76329">
        <ele>177</ele>
        <time>2017-11-19T11:07:36Z</time>
      </trkpt>
      <trkpt lat="45.91612" lon="4.76328">
        <ele>176</ele>
        <time>2017-11-19T11:07:37Z</time>
      </trkpt>
      <trkpt lat="45.91605" lon="4.76327">
        <ele>176</ele>
        <time>2017-11-19T11:07:40Z</time>
      </trkpt>
      <trkpt lat="45.91602" lon="4.76326">
        <ele>176</ele>
        <time>2017-11-19T11:07:41Z</time>
      </trkpt>
      <trkpt lat="45.91594" lon="4.76324">
        <ele>176</ele>
        <time>2017-11-19T11:07:45Z</time>
      </trkpt>
      <trkpt lat="45.91592" lon="4.76323">
        <ele>176</ele>
        <time>2017-11-19T11:07:46Z</time>
      </trkpt>
      <trkpt lat="45.91583" lon="4.7632">
        <ele>176</ele>
        <time>2017-11-19T11:07:50Z</time>
      </trkpt>
      <trkpt lat="45.91581" lon="4.7632">
        <ele>176</ele>
        <time>2017-11-19T11:07:51Z</time>
      </trkpt>
      <trkpt lat="45.91574" lon="4.76318">
        <ele>176</ele>
        <time>2017-11-19T11:07:54Z</time>
      </trkpt>
      <trkpt lat="45.91572" lon="4.76317">
        <ele>176</ele>
        <time>2017-11-19T11:07:55Z</time>
      </trkpt>
      <trkpt lat="45.91565" lon="4.76316">
        <ele>176</ele>
        <time>2017-11-19T11:07:58Z</time>
      </trkpt>
      <trkpt lat="45.91562" lon="4.76315">
        <ele>176</ele>
        <time>2017-11-19T11:07:59Z</time>
      </trkpt>
      <trkpt lat="45.91555" lon="4.76313">
        <ele>177</ele>
        <time>2017-11-19T11:08:02Z</time>
      </trkpt>
      <trkpt lat="45.91552" lon="4.76313">
        <ele>177</ele>
        <time>2017-11-19T11:08:03Z</time>
      </trkpt>
      <trkpt lat="45.91545" lon="4.76312">
        <ele>177</ele>
        <time>2017-11-19T11:08:06Z</time>
      </trkpt>
      <trkpt lat="45.91543" lon="4.76311">
        <ele>177</ele>
        <time>2017-11-19T11:08:07Z</time>
      </trkpt>
      <trkpt lat="45.91542" lon="4.763">
        <ele>177</ele>
        <time>2017-11-19T11:08:11Z</time>
      </trkpt>
      <trkpt lat="45.91545" lon="4.76297">
        <ele>177</ele>
        <time>2017-11-19T11:08:12Z</time>
      </trkpt>
      <trkpt lat="45.91549" lon="4.76291">
        <ele>177</ele>
        <time>2017-11-19T11:08:14Z</time>
      </trkpt>
      <trkpt lat="45.91552" lon="4.76289">
        <ele>177</ele>
        <time>2017-11-19T11:08:15Z</time>
      </trkpt>
      <trkpt lat="45.91558" lon="4.7628">
        <ele>177</ele>
        <time>2017-11-19T11:08:18Z</time>
      </trkpt>
      <trkpt lat="45.9156" lon="4.76276">
        <ele>177</ele>
        <time>2017-11-19T11:08:19Z</time>
      </trkpt>
      <trkpt lat="45.91565" lon="4.76266">
        <ele>177</ele>
        <time>2017-11-19T11:08:22Z</time>
      </trkpt>
      <trkpt lat="45.91567" lon="4.76263">
        <ele>177</ele>
        <time>2017-11-19T11:08:23Z</time>
      </trkpt>
      <trkpt lat="45.91572" lon="4.76253">
        <ele>177</ele>
        <time>2017-11-19T11:08:26Z</time>
      </trkpt>
      <trkpt lat="45.91574" lon="4.76249">
        <ele>177</ele>
        <time>2017-11-19T11:08:27Z</time>
      </trkpt>
      <trkpt lat="45.91579" lon="4.7624">
        <ele>177</ele>
        <time>2017-11-19T11:08:30Z</time>
      </trkpt>
      <trkpt lat="45.91581" lon="4.76237">
        <ele>178</ele>
        <time>2017-11-19T11:08:31Z</time>
      </trkpt>
      <trkpt lat="45.91587" lon="4.76227">
        <ele>177</ele>
        <time>2017-11-19T11:08:34Z</time>
      </trkpt>
      <trkpt lat="45.91589" lon="4.76224">
        <ele>178</ele>
        <time>2017-11-19T11:08:35Z</time>
      </trkpt>
      <trkpt lat="45.91593" lon="4.76217">
        <ele>178</ele>
        <time>2017-11-19T11:08:37Z</time>
      </trkpt>
      <trkpt lat="45.91595" lon="4.76214">
        <ele>178</ele>
        <time>2017-11-19T11:08:38Z</time>
      </trkpt>
      <trkpt lat="45.91601" lon="4.76205">
        <ele>178</ele>
        <time>2017-11-19T11:08:41Z</time>
      </trkpt>
      <trkpt lat="45.91602" lon="4.76202">
        <ele>178</ele>
        <time>2017-11-19T11:08:42Z</time>
      </trkpt>
      <trkpt lat="45.91608" lon="4.76194">
        <ele>178</ele>
        <time>2017-11-19T11:08:45Z</time>
      </trkpt>
      <trkpt lat="45.9161" lon="4.76191">
        <ele>178</ele>
        <time>2017-11-19T11:08:46Z</time>
      </trkpt>
      <trkpt lat="45.91615" lon="4.76184">
        <ele>178</ele>
        <time>2017-11-19T11:08:48Z</time>
      </trkpt>
      <trkpt lat="45.91617" lon="4.7618">
        <ele>178</ele>
        <time>2017-11-19T11:08:49Z</time>
      </trkpt>
      <trkpt lat="45.91621" lon="4.76174">
        <ele>178</ele>
        <time>2017-11-19T11:08:51Z</time>
      </trkpt>
      <trkpt lat="45.91623" lon="4.76171">
        <ele>178</ele>
        <time>2017-11-19T11:08:52Z</time>
      </trkpt>
      <trkpt lat="45.91628" lon="4.76165">
        <ele>178</ele>
        <time>2017-11-19T11:08:54Z</time>
      </trkpt>
      <trkpt lat="45.9163" lon="4.76162">
        <ele>178</ele>
        <time>2017-11-19T11:08:55Z</time>
      </trkpt>
      <trkpt lat="45.91636" lon="4.76152">
        <ele>178</ele>
        <time>2017-11-19T11:08:57Z</time>
      </trkpt>
      <trkpt lat="45.91638" lon="4.76147">
        <ele>178</ele>
        <time>2017-11-19T11:08:58Z</time>
      </trkpt>
      <trkpt lat="45.91643" lon="4.76137">
        <ele>178</ele>
        <time>2017-11-19T11:09:00Z</time>
      </trkpt>
      <trkpt lat="45.91645" lon="4.76132">
        <ele>178</ele>
        <time>2017-11-19T11:09:01Z</time>
      </trkpt>
      <trkpt lat="45.91648" lon="4.76126">
        <ele>178</ele>
        <time>2017-11-19T11:09:02Z</time>
      </trkpt>
      <trkpt lat="45.91651" lon="4.76122">
        <ele>178</ele>
        <time>2017-11-19T11:09:03Z</time>
      </trkpt>
      <trkpt lat="45.91654" lon="4.76114">
        <ele>178</ele>
        <time>2017-11-19T11:09:05Z</time>
      </trkpt>
      <trkpt lat="45.91656" lon="4.7611">
        <ele>178</ele>
        <time>2017-11-19T11:09:06Z</time>
      </trkpt>
      <trkpt lat="45.91661" lon="4.76101">
        <ele>178</ele>
        <time>2017-11-19T11:09:08Z</time>
      </trkpt>
      <trkpt lat="45.91663" lon="4.76096">
        <ele>178</ele>
        <time>2017-11-19T11:09:09Z</time>
      </trkpt>
      <trkpt lat="45.91666" lon="4.76092">
        <ele>178</ele>
        <time>2017-11-19T11:09:10Z</time>
      </trkpt>
      <trkpt lat="45.9167" lon="4.76086">
        <ele>178</ele>
        <time>2017-11-19T11:09:11Z</time>
      </trkpt>
      <trkpt lat="45.91675" lon="4.76078">
        <ele>178</ele>
        <time>2017-11-19T11:09:13Z</time>
      </trkpt>
      <trkpt lat="45.91678" lon="4.76074">
        <ele>178</ele>
        <time>2017-11-19T11:09:14Z</time>
      </trkpt>
      <trkpt lat="45.91681" lon="4.76068">
        <ele>178</ele>
        <time>2017-11-19T11:09:16Z</time>
      </trkpt>
      <trkpt lat="45.91684" lon="4.76063">
        <ele>178</ele>
        <time>2017-11-19T11:09:17Z</time>
      </trkpt>
      <trkpt lat="45.91689" lon="4.76054">
        <ele>178</ele>
        <time>2017-11-19T11:09:19Z</time>
      </trkpt>
      <trkpt lat="45.91691" lon="4.7605">
        <ele>178</ele>
        <time>2017-11-19T11:09:20Z</time>
      </trkpt>
      <trkpt lat="45.91694" lon="4.76043">
        <ele>178</ele>
        <time>2017-11-19T11:09:21Z</time>
      </trkpt>
      <trkpt lat="45.91696" lon="4.76039">
        <ele>178</ele>
        <time>2017-11-19T11:09:22Z</time>
      </trkpt>
      <trkpt lat="45.91699" lon="4.76033">
        <ele>178</ele>
        <time>2017-11-19T11:09:23Z</time>
      </trkpt>
      <trkpt lat="45.91702" lon="4.76028">
        <ele>178</ele>
        <time>2017-11-19T11:09:24Z</time>
      </trkpt>
      <trkpt lat="45.91707" lon="4.7602">
        <ele>178</ele>
        <time>2017-11-19T11:09:26Z</time>
      </trkpt>
      <trkpt lat="45.9171" lon="4.76016">
        <ele>178</ele>
        <time>2017-11-19T11:09:27Z</time>
      </trkpt>
      <trkpt lat="45.91715" lon="4.76007">
        <ele>178</ele>
        <time>2017-11-19T11:09:29Z</time>
      </trkpt>
      <trkpt lat="45.91718" lon="4.76003">
        <ele>178</ele>
        <time>2017-11-19T11:09:30Z</time>
      </trkpt>
      <trkpt lat="45.91721" lon="4.75998">
        <ele>178</ele>
        <time>2017-11-19T11:09:31Z</time>
      </trkpt>
      <trkpt lat="45.91724" lon="4.75992">
        <ele>178</ele>
        <time>2017-11-19T11:09:32Z</time>
      </trkpt>
      <trkpt lat="45.91728" lon="4.75981">
        <ele>178</ele>
        <time>2017-11-19T11:09:34Z</time>
      </trkpt>
      <trkpt lat="45.9173" lon="4.75977">
        <ele>178</ele>
        <time>2017-11-19T11:09:35Z</time>
      </trkpt>
      <trkpt lat="45.91734" lon="4.75967">
        <ele>178</ele>
        <time>2017-11-19T11:09:37Z</time>
      </trkpt>
      <trkpt lat="45.91736" lon="4.75963">
        <ele>178</ele>
        <time>2017-11-19T11:09:38Z</time>
      </trkpt>
      <trkpt lat="45.91741" lon="4.75956">
        <ele>178</ele>
        <time>2017-11-19T11:09:40Z</time>
      </trkpt>
      <trkpt lat="45.91745" lon="4.75953">
        <ele>178</ele>
        <time>2017-11-19T11:09:41Z</time>
      </trkpt>
      <trkpt lat="45.9175" lon="4.75945">
        <ele>179</ele>
        <time>2017-11-19T11:09:43Z</time>
      </trkpt>
      <trkpt lat="45.91752" lon="4.75941">
        <ele>178</ele>
        <time>2017-11-19T11:09:44Z</time>
      </trkpt>
      <trkpt lat="45.91757" lon="4.75932">
        <ele>178</ele>
        <time>2017-11-19T11:09:46Z</time>
      </trkpt>
      <trkpt lat="45.91761" lon="4.75927">
        <ele>178</ele>
        <time>2017-11-19T11:09:47Z</time>
      </trkpt>
      <trkpt lat="45.91767" lon="4.75919">
        <ele>178</ele>
        <time>2017-11-19T11:09:49Z</time>
      </trkpt>
      <trkpt lat="45.9177" lon="4.75915">
        <ele>178</ele>
        <time>2017-11-19T11:09:50Z</time>
      </trkpt>
      <trkpt lat="45.91774" lon="4.75911">
        <ele>178</ele>
        <time>2017-11-19T11:09:51Z</time>
      </trkpt>
      <trkpt lat="45.91778" lon="4.75908">
        <ele>178</ele>
        <time>2017-11-19T11:09:52Z</time>
      </trkpt>
      <trkpt lat="45.91785" lon="4.759">
        <ele>178</ele>
        <time>2017-11-19T11:09:54Z</time>
      </trkpt>
      <trkpt lat="45.91788" lon="4.75896">
        <ele>178</ele>
        <time>2017-11-19T11:09:55Z</time>
      </trkpt>
      <trkpt lat="45.91792" lon="4.75891">
        <ele>178</ele>
        <time>2017-11-19T11:09:56Z</time>
      </trkpt>
      <trkpt lat="45.91795" lon="4.75886">
        <ele>178</ele>
        <time>2017-11-19T11:09:57Z</time>
      </trkpt>
      <trkpt lat="45.91799" lon="4.75882">
        <ele>178</ele>
        <time>2017-11-19T11:09:58Z</time>
      </trkpt>
      <trkpt lat="45.91803" lon="4.75878">
        <ele>178</ele>
        <time>2017-11-19T11:09:59Z</time>
      </trkpt>
      <trkpt lat="45.91807" lon="4.75874">
        <ele>177</ele>
        <time>2017-11-19T11:10:00Z</time>
      </trkpt>
      <trkpt lat="45.91811" lon="4.75869">
        <ele>177</ele>
        <time>2017-11-19T11:10:01Z</time>
      </trkpt>
      <trkpt lat="45.91815" lon="4.75864">
        <ele>177</ele>
        <time>2017-11-19T11:10:02Z</time>
      </trkpt>
      <trkpt lat="45.91819" lon="4.7586">
        <ele>177</ele>
        <time>2017-11-19T11:10:03Z</time>
      </trkpt>
      <trkpt lat="45.91823" lon="4.75856">
        <ele>177</ele>
        <time>2017-11-19T11:10:04Z</time>
      </trkpt>
      <trkpt lat="45.91826" lon="4.75852">
        <ele>177</ele>
        <time>2017-11-19T11:10:05Z</time>
      </trkpt>
      <trkpt lat="45.91831" lon="4.75847">
        <ele>177</ele>
        <time>2017-11-19T11:10:06Z</time>
      </trkpt>
      <trkpt lat="45.91834" lon="4.75842">
        <ele>175</ele>
        <time>2017-11-19T11:10:07Z</time>
      </trkpt>
      <trkpt lat="45.91841" lon="4.75835">
        <ele>176</ele>
        <time>2017-11-19T11:10:09Z</time>
      </trkpt>
      <trkpt lat="45.91845" lon="4.75831">
        <ele>176</ele>
        <time>2017-11-19T11:10:10Z</time>
      </trkpt>
      <trkpt lat="45.9185" lon="4.75821">
        <ele>176</ele>
        <time>2017-11-19T11:10:12Z</time>
      </trkpt>
      <trkpt lat="45.91853" lon="4.75816">
        <ele>175</ele>
        <time>2017-11-19T11:10:13Z</time>
      </trkpt>
      <trkpt lat="45.91858" lon="4.75806">
        <ele>175</ele>
        <time>2017-11-19T11:10:15Z</time>
      </trkpt>
      <trkpt lat="45.91862" lon="4.75801">
        <ele>175</ele>
        <time>2017-11-19T11:10:16Z</time>
      </trkpt>
      <trkpt lat="45.91867" lon="4.75792">
        <ele>175</ele>
        <time>2017-11-19T11:10:18Z</time>
      </trkpt>
      <trkpt lat="45.9187" lon="4.75787">
        <ele>175</ele>
        <time>2017-11-19T11:10:19Z</time>
      </trkpt>
      <trkpt lat="45.91873" lon="4.7578">
        <ele>175</ele>
        <time>2017-11-19T11:10:20Z</time>
      </trkpt>
      <trkpt lat="45.91876" lon="4.75772">
        <ele>175</ele>
        <time>2017-11-19T11:10:21Z</time>
      </trkpt>
      <trkpt lat="45.91879" lon="4.75766">
        <ele>175</ele>
        <time>2017-11-19T11:10:22Z</time>
      </trkpt>
      <trkpt lat="45.91882" lon="4.75761">
        <ele>175</ele>
        <time>2017-11-19T11:10:23Z</time>
      </trkpt>
      <trkpt lat="45.91885" lon="4.75755">
        <ele>175</ele>
        <time>2017-11-19T11:10:24Z</time>
      </trkpt>
      <trkpt lat="45.9189" lon="4.75747">
        <ele>176</ele>
        <time>2017-11-19T11:10:25Z</time>
      </trkpt>
      <trkpt lat="45.91895" lon="4.75737">
        <ele>176</ele>
        <time>2017-11-19T11:10:27Z</time>
      </trkpt>
      <trkpt lat="45.91897" lon="4.75733">
        <ele>176</ele>
        <time>2017-11-19T11:10:28Z</time>
      </trkpt>
      <trkpt lat="45.91901" lon="4.75723">
        <ele>176</ele>
        <time>2017-11-19T11:10:30Z</time>
      </trkpt>
      <trkpt lat="45.91904" lon="4.75719">
        <ele>176</ele>
        <time>2017-11-19T11:10:31Z</time>
      </trkpt>
      <trkpt lat="45.91908" lon="4.75708">
        <ele>176</ele>
        <time>2017-11-19T11:10:33Z</time>
      </trkpt>
      <trkpt lat="45.9191" lon="4.75705">
        <ele>176</ele>
        <time>2017-11-19T11:10:34Z</time>
      </trkpt>
      <trkpt lat="45.91914" lon="4.75696">
        <ele>176</ele>
        <time>2017-11-19T11:10:36Z</time>
      </trkpt>
      <trkpt lat="45.91915" lon="4.75692">
        <ele>177</ele>
        <time>2017-11-19T11:10:37Z</time>
      </trkpt>
      <trkpt lat="45.91919" lon="4.75681">
        <ele>176</ele>
        <time>2017-11-19T11:10:39Z</time>
      </trkpt>
      <trkpt lat="45.91921" lon="4.75676">
        <ele>177</ele>
        <time>2017-11-19T11:10:40Z</time>
      </trkpt>
      <trkpt lat="45.91926" lon="4.75666">
        <ele>177</ele>
        <time>2017-11-19T11:10:42Z</time>
      </trkpt>
      <trkpt lat="45.91928" lon="4.75662">
        <ele>177</ele>
        <time>2017-11-19T11:10:43Z</time>
      </trkpt>
      <trkpt lat="45.91931" lon="4.75657">
        <ele>177</ele>
        <time>2017-11-19T11:10:44Z</time>
      </trkpt>
      <trkpt lat="45.91934" lon="4.75652">
        <ele>177</ele>
        <time>2017-11-19T11:10:45Z</time>
      </trkpt>
      <trkpt lat="45.91939" lon="4.75642">
        <ele>177</ele>
        <time>2017-11-19T11:10:47Z</time>
      </trkpt>
      <trkpt lat="45.91942" lon="4.75637">
        <ele>177</ele>
        <time>2017-11-19T11:10:48Z</time>
      </trkpt>
      <trkpt lat="45.91946" lon="4.75627">
        <ele>177</ele>
        <time>2017-11-19T11:10:50Z</time>
      </trkpt>
      <trkpt lat="45.91949" lon="4.75622">
        <ele>177</ele>
        <time>2017-11-19T11:10:51Z</time>
      </trkpt>
      <trkpt lat="45.91952" lon="4.75616">
        <ele>177</ele>
        <time>2017-11-19T11:10:52Z</time>
      </trkpt>
      <trkpt lat="45.91954" lon="4.75611">
        <ele>177</ele>
        <time>2017-11-19T11:10:53Z</time>
      </trkpt>
      <trkpt lat="45.91958" lon="4.75605">
        <ele>177</ele>
        <time>2017-11-19T11:10:54Z</time>
      </trkpt>
      <trkpt lat="45.9196" lon="4.75601">
        <ele>177</ele>
        <time>2017-11-19T11:10:55Z</time>
      </trkpt>
      <trkpt lat="45.91965" lon="4.75592">
        <ele>177</ele>
        <time>2017-11-19T11:10:57Z</time>
      </trkpt>
      <trkpt lat="45.91968" lon="4.75588">
        <ele>177</ele>
        <time>2017-11-19T11:10:58Z</time>
      </trkpt>
      <trkpt lat="45.91972" lon="4.7558">
        <ele>177</ele>
        <time>2017-11-19T11:11:00Z</time>
      </trkpt>
      <trkpt lat="45.91974" lon="4.75576">
        <ele>177</ele>
        <time>2017-11-19T11:11:01Z</time>
      </trkpt>
      <trkpt lat="45.91979" lon="4.75569">
        <ele>177</ele>
        <time>2017-11-19T11:11:03Z</time>
      </trkpt>
      <trkpt lat="45.91982" lon="4.75566">
        <ele>177</ele>
        <time>2017-11-19T11:11:04Z</time>
      </trkpt>
      <trkpt lat="45.91988" lon="4.75564">
        <ele>177</ele>
        <time>2017-11-19T11:11:06Z</time>
      </trkpt>
      <trkpt lat="45.91992" lon="4.75563">
        <ele>177</ele>
        <time>2017-11-19T11:11:07Z</time>
      </trkpt>
      <trkpt lat="45.92001" lon="4.75563">
        <ele>176</ele>
        <time>2017-11-19T11:11:09Z</time>
      </trkpt>
      <trkpt lat="45.92005" lon="4.75563">
        <ele>176</ele>
        <time>2017-11-19T11:11:10Z</time>
      </trkpt>
      <trkpt lat="45.92009" lon="4.75563">
        <ele>176</ele>
        <time>2017-11-19T11:11:11Z</time>
      </trkpt>
      <trkpt lat="45.92014" lon="4.75563">
        <ele>176</ele>
        <time>2017-11-19T11:11:12Z</time>
      </trkpt>
      <trkpt lat="45.92023" lon="4.75564">
        <ele>176</ele>
        <time>2017-11-19T11:11:14Z</time>
      </trkpt>
      <trkpt lat="45.92027" lon="4.75564">
        <ele>176</ele>
        <time>2017-11-19T11:11:15Z</time>
      </trkpt>
      <trkpt lat="45.92031" lon="4.75565">
        <ele>176</ele>
        <time>2017-11-19T11:11:16Z</time>
      </trkpt>
      <trkpt lat="45.92036" lon="4.75565">
        <ele>175</ele>
        <time>2017-11-19T11:11:17Z</time>
      </trkpt>
      <trkpt lat="45.92041" lon="4.75564">
        <ele>175</ele>
        <time>2017-11-19T11:11:18Z</time>
      </trkpt>
      <trkpt lat="45.92046" lon="4.75566">
        <ele>175</ele>
        <time>2017-11-19T11:11:19Z</time>
      </trkpt>
      <trkpt lat="45.92054" lon="4.75567">
        <ele>175</ele>
        <time>2017-11-19T11:11:21Z</time>
      </trkpt>
      <trkpt lat="45.92056" lon="4.75566">
        <ele>175</ele>
        <time>2017-11-19T11:11:22Z</time>
      </trkpt>
      <trkpt lat="45.92062" lon="4.75564">
        <ele>175</ele>
        <time>2017-11-19T11:11:24Z</time>
      </trkpt>
      <trkpt lat="45.92065" lon="4.75563">
        <ele>175</ele>
        <time>2017-11-19T11:11:25Z</time>
      </trkpt>
      <trkpt lat="45.92073" lon="4.75565">
        <ele>175</ele>
        <time>2017-11-19T11:11:28Z</time>
      </trkpt>
      <trkpt lat="45.92076" lon="4.75566">
        <ele>175</ele>
        <time>2017-11-19T11:11:29Z</time>
      </trkpt>
      <trkpt lat="45.92082" lon="4.75567">
        <ele>175</ele>
        <time>2017-11-19T11:11:31Z</time>
      </trkpt>
      <trkpt lat="45.92086" lon="4.75567">
        <ele>174</ele>
        <time>2017-11-19T11:11:32Z</time>
      </trkpt>
      <trkpt lat="45.92092" lon="4.75567">
        <ele>174</ele>
        <time>2017-11-19T11:11:34Z</time>
      </trkpt>
      <trkpt lat="45.92095" lon="4.75566">
        <ele>174</ele>
        <time>2017-11-19T11:11:35Z</time>
      </trkpt>
      <trkpt lat="45.92101" lon="4.75563">
        <ele>174</ele>
        <time>2017-11-19T11:11:37Z</time>
      </trkpt>
      <trkpt lat="45.92104" lon="4.75561">
        <ele>174</ele>
        <time>2017-11-19T11:11:38Z</time>
      </trkpt>
      <trkpt lat="45.9211" lon="4.75557">
        <ele>174</ele>
        <time>2017-11-19T11:11:40Z</time>
      </trkpt>
      <trkpt lat="45.92113" lon="4.75554">
        <ele>174</ele>
        <time>2017-11-19T11:11:41Z</time>
      </trkpt>
      <trkpt lat="45.92117" lon="4.75544">
        <ele>174</ele>
        <time>2017-11-19T11:11:43Z</time>
      </trkpt>
      <trkpt lat="45.92119" lon="4.75539">
        <ele>174</ele>
        <time>2017-11-19T11:11:44Z</time>
      </trkpt>
      <trkpt lat="45.92123" lon="4.75529">
        <ele>174</ele>
        <time>2017-11-19T11:11:46Z</time>
      </trkpt>
      <trkpt lat="45.92126" lon="4.75525">
        <ele>174</ele>
        <time>2017-11-19T11:11:47Z</time>
      </trkpt>
      <trkpt lat="45.92132" lon="4.75518">
        <ele>174</ele>
        <time>2017-11-19T11:11:49Z</time>
      </trkpt>
      <trkpt lat="45.92135" lon="4.75514">
        <ele>174</ele>
        <time>2017-11-19T11:11:50Z</time>
      </trkpt>
      <trkpt lat="45.92139" lon="4.75506">
        <ele>174</ele>
        <time>2017-11-19T11:11:52Z</time>
      </trkpt>
      <trkpt lat="45.92141" lon="4.75501">
        <ele>175</ele>
        <time>2017-11-19T11:11:53Z</time>
      </trkpt>
      <trkpt lat="45.92145" lon="4.75492">
        <ele>176</ele>
        <time>2017-11-19T11:11:55Z</time>
      </trkpt>
      <trkpt lat="45.92147" lon="4.75487">
        <ele>176</ele>
        <time>2017-11-19T11:11:56Z</time>
      </trkpt>
      <trkpt lat="45.92151" lon="4.75478">
        <ele>176</ele>
        <time>2017-11-19T11:11:58Z</time>
      </trkpt>
      <trkpt lat="45.92153" lon="4.75473">
        <ele>176</ele>
        <time>2017-11-19T11:11:59Z</time>
      </trkpt>
      <trkpt lat="45.92156" lon="4.75462">
        <ele>176</ele>
        <time>2017-11-19T11:12:01Z</time>
      </trkpt>
      <trkpt lat="45.92158" lon="4.75456">
        <ele>176</ele>
        <time>2017-11-19T11:12:02Z</time>
      </trkpt>
      <trkpt lat="45.92162" lon="4.75446">
        <ele>177</ele>
        <time>2017-11-19T11:12:04Z</time>
      </trkpt>
      <trkpt lat="45.92164" lon="4.75442">
        <ele>177</ele>
        <time>2017-11-19T11:12:05Z</time>
      </trkpt>
      <trkpt lat="45.92168" lon="4.75434">
        <ele>177</ele>
        <time>2017-11-19T11:12:07Z</time>
      </trkpt>
      <trkpt lat="45.92169" lon="4.75429">
        <ele>177</ele>
        <time>2017-11-19T11:12:08Z</time>
      </trkpt>
      <trkpt lat="45.92171" lon="4.75424">
        <ele>177</ele>
        <time>2017-11-19T11:12:10Z</time>
      </trkpt>
      <trkpt lat="45.92173" lon="4.75417">
        <ele>178</ele>
        <time>2017-11-19T11:12:11Z</time>
      </trkpt>
      <trkpt lat="45.92177" lon="4.75406">
        <ele>177</ele>
        <time>2017-11-19T11:12:13Z</time>
      </trkpt>
      <trkpt lat="45.9218" lon="4.75401">
        <ele>177</ele>
        <time>2017-11-19T11:12:14Z</time>
      </trkpt>
      <trkpt lat="45.92183" lon="4.75392">
        <ele>177</ele>
        <time>2017-11-19T11:12:16Z</time>
      </trkpt>
      <trkpt lat="45.92185" lon="4.75388">
        <ele>177</ele>
        <time>2017-11-19T11:12:17Z</time>
      </trkpt>
      <trkpt lat="45.92189" lon="4.7538">
        <ele>177</ele>
        <time>2017-11-19T11:12:19Z</time>
      </trkpt>
      <trkpt lat="45.9219" lon="4.75375">
        <ele>177</ele>
        <time>2017-11-19T11:12:20Z</time>
      </trkpt>
      <trkpt lat="45.92194" lon="4.75364">
        <ele>177</ele>
        <time>2017-11-19T11:12:22Z</time>
      </trkpt>
      <trkpt lat="45.92196" lon="4.7536">
        <ele>177</ele>
        <time>2017-11-19T11:12:23Z</time>
      </trkpt>
      <trkpt lat="45.92198" lon="4.7535">
        <ele>177</ele>
        <time>2017-11-19T11:12:25Z</time>
      </trkpt>
      <trkpt lat="45.922" lon="4.75346">
        <ele>177</ele>
        <time>2017-11-19T11:12:26Z</time>
      </trkpt>
      <trkpt lat="45.92203" lon="4.75335">
        <ele>177</ele>
        <time>2017-11-19T11:12:28Z</time>
      </trkpt>
      <trkpt lat="45.92204" lon="4.7533">
        <ele>176</ele>
        <time>2017-11-19T11:12:29Z</time>
      </trkpt>
      <trkpt lat="45.92206" lon="4.75321">
        <ele>176</ele>
        <time>2017-11-19T11:12:31Z</time>
      </trkpt>
      <trkpt lat="45.92206" lon="4.75315">
        <ele>176</ele>
        <time>2017-11-19T11:12:32Z</time>
      </trkpt>
      <trkpt lat="45.92207" lon="4.75305">
        <ele>176</ele>
        <time>2017-11-19T11:12:34Z</time>
      </trkpt>
      <trkpt lat="45.92207" lon="4.75299">
        <ele>176</ele>
        <time>2017-11-19T11:12:35Z</time>
      </trkpt>
      <trkpt lat="45.92208" lon="4.75287">
        <ele>176</ele>
        <time>2017-11-19T11:12:37Z</time>
      </trkpt>
      <trkpt lat="45.92208" lon="4.75282">
        <ele>176</ele>
        <time>2017-11-19T11:12:38Z</time>
      </trkpt>
      <trkpt lat="45.92208" lon="4.75271">
        <ele>176</ele>
        <time>2017-11-19T11:12:40Z</time>
      </trkpt>
      <trkpt lat="45.92208" lon="4.75265">
        <ele>176</ele>
        <time>2017-11-19T11:12:41Z</time>
      </trkpt>
      <trkpt lat="45.92208" lon="4.75255">
        <ele>175</ele>
        <time>2017-11-19T11:12:43Z</time>
      </trkpt>
      <trkpt lat="45.92209" lon="4.75251">
        <ele>175</ele>
        <time>2017-11-19T11:12:44Z</time>
      </trkpt>
      <trkpt lat="45.92209" lon="4.75241">
        <ele>175</ele>
        <time>2017-11-19T11:12:46Z</time>
      </trkpt>
      <trkpt lat="45.9221" lon="4.75236">
        <ele>175</ele>
        <time>2017-11-19T11:12:47Z</time>
      </trkpt>
      <trkpt lat="45.9221" lon="4.75226">
        <ele>175</ele>
        <time>2017-11-19T11:12:49Z</time>
      </trkpt>
      <trkpt lat="45.9221" lon="4.75221">
        <ele>175</ele>
        <time>2017-11-19T11:12:50Z</time>
      </trkpt>
      <trkpt lat="45.92209" lon="4.75212">
        <ele>175</ele>
        <time>2017-11-19T11:12:52Z</time>
      </trkpt>
      <trkpt lat="45.92208" lon="4.75206">
        <ele>175</ele>
        <time>2017-11-19T11:12:53Z</time>
      </trkpt>
      <trkpt lat="45.9221" lon="4.752">
        <ele>175</ele>
        <time>2017-11-19T11:12:54Z</time>
      </trkpt>
      <trkpt lat="45.92212" lon="4.75194">
        <ele>175</ele>
        <time>2017-11-19T11:12:55Z</time>
      </trkpt>
      <trkpt lat="45.92213" lon="4.75188">
        <ele>175</ele>
        <time>2017-11-19T11:12:56Z</time>
      </trkpt>
      <trkpt lat="45.92214" lon="4.75181">
        <ele>175</ele>
        <time>2017-11-19T11:12:57Z</time>
      </trkpt>
      <trkpt lat="45.92218" lon="4.75171">
        <ele>175</ele>
        <time>2017-11-19T11:12:59Z</time>
      </trkpt>
      <trkpt lat="45.92222" lon="4.75165">
        <ele>174</ele>
        <time>2017-11-19T11:13:00Z</time>
      </trkpt>
      <trkpt lat="45.92227" lon="4.75155">
        <ele>174</ele>
        <time>2017-11-19T11:13:02Z</time>
      </trkpt>
      <trkpt lat="45.92229" lon="4.75152">
        <ele>174</ele>
        <time>2017-11-19T11:13:03Z</time>
      </trkpt>
      <trkpt lat="45.92234" lon="4.75143">
        <ele>174</ele>
        <time>2017-11-19T11:13:05Z</time>
      </trkpt>
      <trkpt lat="45.92236" lon="4.7514">
        <ele>174</ele>
        <time>2017-11-19T11:13:06Z</time>
      </trkpt>
      <trkpt lat="45.92241" lon="4.75131">
        <ele>174</ele>
        <time>2017-11-19T11:13:08Z</time>
      </trkpt>
      <trkpt lat="45.92244" lon="4.75127">
        <ele>174</ele>
        <time>2017-11-19T11:13:09Z</time>
      </trkpt>
      <trkpt lat="45.92249" lon="4.7512">
        <ele>174</ele>
        <time>2017-11-19T11:13:11Z</time>
      </trkpt>
      <trkpt lat="45.92252" lon="4.75117">
        <ele>174</ele>
        <time>2017-11-19T11:13:12Z</time>
      </trkpt>
      <trkpt lat="45.92257" lon="4.75111">
        <ele>174</ele>
        <time>2017-11-19T11:13:14Z</time>
      </trkpt>
      <trkpt lat="45.92259" lon="4.75108">
        <ele>174</ele>
        <time>2017-11-19T11:13:15Z</time>
      </trkpt>
      <trkpt lat="45.92263" lon="4.75103">
        <ele>173</ele>
        <time>2017-11-19T11:13:17Z</time>
      </trkpt>
      <trkpt lat="45.92266" lon="4.751">
        <ele>173</ele>
        <time>2017-11-19T11:13:18Z</time>
      </trkpt>
      <trkpt lat="45.92271" lon="4.75093">
        <ele>173</ele>
        <time>2017-11-19T11:13:20Z</time>
      </trkpt>
      <trkpt lat="45.92274" lon="4.7509">
        <ele>173</ele>
        <time>2017-11-19T11:13:21Z</time>
      </trkpt>
      <trkpt lat="45.9228" lon="4.75083">
        <ele>172</ele>
        <time>2017-11-19T11:13:23Z</time>
      </trkpt>
      <trkpt lat="45.92283" lon="4.7508">
        <ele>172</ele>
        <time>2017-11-19T11:13:24Z</time>
      </trkpt>
      <trkpt lat="45.9229" lon="4.75072">
        <ele>172</ele>
        <time>2017-11-19T11:13:27Z</time>
      </trkpt>
      <trkpt lat="45.92292" lon="4.75069">
        <ele>172</ele>
        <time>2017-11-19T11:13:28Z</time>
      </trkpt>
      <trkpt lat="45.92298" lon="4.75064">
        <ele>172</ele>
        <time>2017-11-19T11:13:30Z</time>
      </trkpt>
      <trkpt lat="45.92301" lon="4.75061">
        <ele>172</ele>
        <time>2017-11-19T11:13:31Z</time>
      </trkpt>
      <trkpt lat="45.92307" lon="4.75055">
        <ele>172</ele>
        <time>2017-11-19T11:13:33Z</time>
      </trkpt>
      <trkpt lat="45.9231" lon="4.75051">
        <ele>172</ele>
        <time>2017-11-19T11:13:34Z</time>
      </trkpt>
      <trkpt lat="45.92314" lon="4.75043">
        <ele>172</ele>
        <time>2017-11-19T11:13:36Z</time>
      </trkpt>
      <trkpt lat="45.9231" lon="4.75037">
        <ele>172</ele>
        <time>2017-11-19T11:13:37Z</time>
      </trkpt>
      <trkpt lat="45.92304" lon="4.75033">
        <ele>172</ele>
        <time>2017-11-19T11:13:39Z</time>
      </trkpt>
      <trkpt lat="45.92301" lon="4.7503">
        <ele>172</ele>
        <time>2017-11-19T11:13:40Z</time>
      </trkpt>
      <trkpt lat="45.92295" lon="4.75023">
        <ele>172</ele>
        <time>2017-11-19T11:13:42Z</time>
      </trkpt>
      <trkpt lat="45.92292" lon="4.7502">
        <ele>172</ele>
        <time>2017-11-19T11:13:43Z</time>
      </trkpt>
      <trkpt lat="45.92285" lon="4.75013">
        <ele>172</ele>
        <time>2017-11-19T11:13:45Z</time>
      </trkpt>
      <trkpt lat="45.92281" lon="4.7501">
        <ele>172</ele>
        <time>2017-11-19T11:13:46Z</time>
      </trkpt>
      <trkpt lat="45.92278" lon="4.75005">
        <ele>172</ele>
        <time>2017-11-19T11:13:47Z</time>
      </trkpt>
      <trkpt lat="45.92274" lon="4.75">
        <ele>172</ele>
        <time>2017-11-19T11:13:48Z</time>
      </trkpt>
      <trkpt lat="45.9227" lon="4.74996">
        <ele>172</ele>
        <time>2017-11-19T11:13:49Z</time>
      </trkpt>
      <trkpt lat="45.92267" lon="4.74991">
        <ele>172</ele>
        <time>2017-11-19T11:13:50Z</time>
      </trkpt>
      <trkpt lat="45.92261" lon="4.74984">
        <ele>172</ele>
        <time>2017-11-19T11:13:52Z</time>
      </trkpt>
      <trkpt lat="45.92259" lon="4.74982">
        <ele>172</ele>
        <time>2017-11-19T11:13:53Z</time>
      </trkpt>
      <trkpt lat="45.92254" lon="4.74974">
        <ele>172</ele>
        <time>2017-11-19T11:13:55Z</time>
      </trkpt>
      <trkpt lat="45.92251" lon="4.74973">
        <ele>172</ele>
        <time>2017-11-19T11:13:56Z</time>
      </trkpt>
      <trkpt lat="45.92248" lon="4.74965">
        <ele>172</ele>
        <time>2017-11-19T11:13:58Z</time>
      </trkpt>
      <trkpt lat="45.92248" lon="4.74959">
        <ele>172</ele>
        <time>2017-11-19T11:13:59Z</time>
      </trkpt>
      <trkpt lat="45.9225" lon="4.74948">
        <ele>172</ele>
        <time>2017-11-19T11:14:01Z</time>
      </trkpt>
      <trkpt lat="45.92251" lon="4.74942">
        <ele>172</ele>
        <time>2017-11-19T11:14:02Z</time>
      </trkpt>
      <trkpt lat="45.92255" lon="4.74932">
        <ele>172</ele>
        <time>2017-11-19T11:14:04Z</time>
      </trkpt>
      <trkpt lat="45.92256" lon="4.74927">
        <ele>172</ele>
        <time>2017-11-19T11:14:05Z</time>
      </trkpt>
      <trkpt lat="45.92262" lon="4.74918">
        <ele>172</ele>
        <time>2017-11-19T11:14:07Z</time>
      </trkpt>
      <trkpt lat="45.92266" lon="4.74915">
        <ele>172</ele>
        <time>2017-11-19T11:14:08Z</time>
      </trkpt>
      <trkpt lat="45.92269" lon="4.74911">
        <ele>172</ele>
        <time>2017-11-19T11:14:09Z</time>
      </trkpt>
      <trkpt lat="45.92273" lon="4.74907">
        <ele>172</ele>
        <time>2017-11-19T11:14:10Z</time>
      </trkpt>
      <trkpt lat="45.92276" lon="4.74901">
        <ele>172</ele>
        <time>2017-11-19T11:14:11Z</time>
      </trkpt>
      <trkpt lat="45.9228" lon="4.74895">
        <ele>172</ele>
        <time>2017-11-19T11:14:12Z</time>
      </trkpt>
      <trkpt lat="45.92285" lon="4.74886">
        <ele>172</ele>
        <time>2017-11-19T11:14:14Z</time>
      </trkpt>
      <trkpt lat="45.92288" lon="4.74882">
        <ele>172</ele>
        <time>2017-11-19T11:14:15Z</time>
      </trkpt>
      <trkpt lat="45.92293" lon="4.74875">
        <ele>172</ele>
        <time>2017-11-19T11:14:17Z</time>
      </trkpt>
      <trkpt lat="45.92296" lon="4.7487">
        <ele>172</ele>
        <time>2017-11-19T11:14:18Z</time>
      </trkpt>
      <trkpt lat="45.92302" lon="4.74861">
        <ele>172</ele>
        <time>2017-11-19T11:14:20Z</time>
      </trkpt>
      <trkpt lat="45.92304" lon="4.74855">
        <ele>172</ele>
        <time>2017-11-19T11:14:21Z</time>
      </trkpt>
      <trkpt lat="45.92309" lon="4.74847">
        <ele>172</ele>
        <time>2017-11-19T11:14:23Z</time>
      </trkpt>
      <trkpt lat="45.92312" lon="4.74843">
        <ele>172</ele>
        <time>2017-11-19T11:14:24Z</time>
      </trkpt>
      <trkpt lat="45.92316" lon="4.74836">
        <ele>172</ele>
        <time>2017-11-19T11:14:26Z</time>
      </trkpt>
      <trkpt lat="45.92318" lon="4.74833">
        <ele>171</ele>
        <time>2017-11-19T11:14:27Z</time>
      </trkpt>
      <trkpt lat="45.92323" lon="4.74825">
        <ele>171</ele>
        <time>2017-11-19T11:14:29Z</time>
      </trkpt>
      <trkpt lat="45.92325" lon="4.74821">
        <ele>171</ele>
        <time>2017-11-19T11:14:30Z</time>
      </trkpt>
      <trkpt lat="45.92331" lon="4.74811">
        <ele>171</ele>
        <time>2017-11-19T11:14:32Z</time>
      </trkpt>
      <trkpt lat="45.92333" lon="4.74806">
        <ele>171</ele>
        <time>2017-11-19T11:14:33Z</time>
      </trkpt>
      <trkpt lat="45.92336" lon="4.74801">
        <ele>171</ele>
        <time>2017-11-19T11:14:34Z</time>
      </trkpt>
      <trkpt lat="45.92339" lon="4.74795">
        <ele>171</ele>
        <time>2017-11-19T11:14:35Z</time>
      </trkpt>
      <trkpt lat="45.92343" lon="4.74786">
        <ele>171</ele>
        <time>2017-11-19T11:14:37Z</time>
      </trkpt>
      <trkpt lat="45.92345" lon="4.74783">
        <ele>171</ele>
        <time>2017-11-19T11:14:38Z</time>
      </trkpt>
      <trkpt lat="45.92349" lon="4.74776">
        <ele>171</ele>
        <time>2017-11-19T11:14:40Z</time>
      </trkpt>
      <trkpt lat="45.92352" lon="4.74772">
        <ele>171</ele>
        <time>2017-11-19T11:14:41Z</time>
      </trkpt>
      <trkpt lat="45.92357" lon="4.74763">
        <ele>171</ele>
        <time>2017-11-19T11:14:43Z</time>
      </trkpt>
      <trkpt lat="45.92359" lon="4.74759">
        <ele>171</ele>
        <time>2017-11-19T11:14:44Z</time>
      </trkpt>
      <trkpt lat="45.92364" lon="4.7475">
        <ele>171</ele>
        <time>2017-11-19T11:14:46Z</time>
      </trkpt>
      <trkpt lat="45.92366" lon="4.74745">
        <ele>171</ele>
        <time>2017-11-19T11:14:47Z</time>
      </trkpt>
      <trkpt lat="45.92371" lon="4.74735">
        <ele>171</ele>
        <time>2017-11-19T11:14:49Z</time>
      </trkpt>
      <trkpt lat="45.92373" lon="4.74731">
        <ele>171</ele>
        <time>2017-11-19T11:14:50Z</time>
      </trkpt>
      <trkpt lat="45.92378" lon="4.74721">
        <ele>171</ele>
        <time>2017-11-19T11:14:52Z</time>
      </trkpt>
      <trkpt lat="45.92381" lon="4.74716">
        <ele>171</ele>
        <time>2017-11-19T11:14:53Z</time>
      </trkpt>
      <trkpt lat="45.92384" lon="4.74708">
        <ele>171</ele>
        <time>2017-11-19T11:14:54Z</time>
      </trkpt>
      <trkpt lat="45.92387" lon="4.74703">
        <ele>171</ele>
        <time>2017-11-19T11:14:55Z</time>
      </trkpt>
      <trkpt lat="45.92389" lon="4.74698">
        <ele>171</ele>
        <time>2017-11-19T11:14:56Z</time>
      </trkpt>
      <trkpt lat="45.92393" lon="4.74693">
        <ele>171</ele>
        <time>2017-11-19T11:14:57Z</time>
      </trkpt>
      <trkpt lat="45.92397" lon="4.74687">
        <ele>171</ele>
        <time>2017-11-19T11:14:58Z</time>
      </trkpt>
      <trkpt lat="45.92401" lon="4.74683">
        <ele>171</ele>
        <time>2017-11-19T11:14:59Z</time>
      </trkpt>
      <trkpt lat="45.92406" lon="4.74675">
        <ele>171</ele>
        <time>2017-11-19T11:15:01Z</time>
      </trkpt>
      <trkpt lat="45.92409" lon="4.74671">
        <ele>172</ele>
        <time>2017-11-19T11:15:02Z</time>
      </trkpt>
      <trkpt lat="45.92414" lon="4.74662">
        <ele>172</ele>
        <time>2017-11-19T11:15:04Z</time>
      </trkpt>
      <trkpt lat="45.92418" lon="4.74657">
        <ele>172</ele>
        <time>2017-11-19T11:15:05Z</time>
      </trkpt>
      <trkpt lat="45.92423" lon="4.74647">
        <ele>171</ele>
        <time>2017-11-19T11:15:07Z</time>
      </trkpt>
      <trkpt lat="45.92425" lon="4.74642">
        <ele>171</ele>
        <time>2017-11-19T11:15:08Z</time>
      </trkpt>
      <trkpt lat="45.92428" lon="4.74635">
        <ele>171</ele>
        <time>2017-11-19T11:15:10Z</time>
      </trkpt>
      <trkpt lat="45.92431" lon="4.74627">
        <ele>171</ele>
        <time>2017-11-19T11:15:11Z</time>
      </trkpt>
      <trkpt lat="45.92435" lon="4.74617">
        <ele>171</ele>
        <time>2017-11-19T11:15:13Z</time>
      </trkpt>
      <trkpt lat="45.92435" lon="4.74611">
        <ele>171</ele>
        <time>2017-11-19T11:15:14Z</time>
      </trkpt>
      <trkpt lat="45.92434" lon="4.746">
        <ele>171</ele>
        <time>2017-11-19T11:15:16Z</time>
      </trkpt>
      <trkpt lat="45.92433" lon="4.74597">
        <ele>171</ele>
        <time>2017-11-19T11:15:17Z</time>
      </trkpt>
      <trkpt lat="45.92428" lon="4.74588">
        <ele>171</ele>
        <time>2017-11-19T11:15:19Z</time>
      </trkpt>
      <trkpt lat="45.92425" lon="4.74585">
        <ele>171</ele>
        <time>2017-11-19T11:15:20Z</time>
      </trkpt>
      <trkpt lat="45.92418" lon="4.74579">
        <ele>171</ele>
        <time>2017-11-19T11:15:22Z</time>
      </trkpt>
      <trkpt lat="45.92414" lon="4.74576">
        <ele>171</ele>
        <time>2017-11-19T11:15:23Z</time>
      </trkpt>
      <trkpt lat="45.92406" lon="4.74572">
        <ele>171</ele>
        <time>2017-11-19T11:15:25Z</time>
      </trkpt>
      <trkpt lat="45.92403" lon="4.7457">
        <ele>171</ele>
        <time>2017-11-19T11:15:26Z</time>
      </trkpt>
      <trkpt lat="45.92396" lon="4.74566">
        <ele>171</ele>
        <time>2017-11-19T11:15:28Z</time>
      </trkpt>
      <trkpt lat="45.92392" lon="4.74563">
        <ele>171</ele>
        <time>2017-11-19T11:15:29Z</time>
      </trkpt>
      <trkpt lat="45.92384" lon="4.74558">
        <ele>171</ele>
        <time>2017-11-19T11:15:31Z</time>
      </trkpt>
      <trkpt lat="45.9238" lon="4.74556">
        <ele>171</ele>
        <time>2017-11-19T11:15:32Z</time>
      </trkpt>
      <trkpt lat="45.92372" lon="4.7455">
        <ele>170</ele>
        <time>2017-11-19T11:15:34Z</time>
      </trkpt>
      <trkpt lat="45.92368" lon="4.74548">
        <ele>170</ele>
        <time>2017-11-19T11:15:35Z</time>
      </trkpt>
      <trkpt lat="45.92361" lon="4.74544">
        <ele>170</ele>
        <time>2017-11-19T11:15:37Z</time>
      </trkpt>
      <trkpt lat="45.92358" lon="4.74543">
        <ele>170</ele>
        <time>2017-11-19T11:15:38Z</time>
      </trkpt>
      <trkpt lat="45.92351" lon="4.74538">
        <ele>171</ele>
        <time>2017-11-19T11:15:40Z</time>
      </trkpt>
      <trkpt lat="45.92347" lon="4.74536">
        <ele>171</ele>
        <time>2017-11-19T11:15:41Z</time>
      </trkpt>
      <trkpt lat="45.92342" lon="4.74534">
        <ele>171</ele>
        <time>2017-11-19T11:15:42Z</time>
      </trkpt>
      <trkpt lat="45.92338" lon="4.74531">
        <ele>171</ele>
        <time>2017-11-19T11:15:43Z</time>
      </trkpt>
      <trkpt lat="45.92331" lon="4.74527">
        <ele>171</ele>
        <time>2017-11-19T11:15:45Z</time>
      </trkpt>
      <trkpt lat="45.92328" lon="4.74525">
        <ele>171</ele>
        <time>2017-11-19T11:15:46Z</time>
      </trkpt>
      <trkpt lat="45.92321" lon="4.7452">
        <ele>171</ele>
        <time>2017-11-19T11:15:48Z</time>
      </trkpt>
      <trkpt lat="45.92316" lon="4.74517">
        <ele>171</ele>
        <time>2017-11-19T11:15:49Z</time>
      </trkpt>
      <trkpt lat="45.92312" lon="4.74515">
        <ele>171</ele>
        <time>2017-11-19T11:15:50Z</time>
      </trkpt>
      <trkpt lat="45.92308" lon="4.74513">
        <ele>171</ele>
        <time>2017-11-19T11:15:51Z</time>
      </trkpt>
      <trkpt lat="45.92301" lon="4.74507">
        <ele>171</ele>
        <time>2017-11-19T11:15:53Z</time>
      </trkpt>
      <trkpt lat="45.92298" lon="4.74503">
        <ele>171</ele>
        <time>2017-11-19T11:15:54Z</time>
      </trkpt>
      <trkpt lat="45.92291" lon="4.74499">
        <ele>171</ele>
        <time>2017-11-19T11:15:56Z</time>
      </trkpt>
      <trkpt lat="45.92288" lon="4.74497">
        <ele>171</ele>
        <time>2017-11-19T11:15:57Z</time>
      </trkpt>
      <trkpt lat="45.92282" lon="4.74494">
        <ele>171</ele>
        <time>2017-11-19T11:15:59Z</time>
      </trkpt>
      <trkpt lat="45.92278" lon="4.74491">
        <ele>171</ele>
        <time>2017-11-19T11:16:00Z</time>
      </trkpt>
      <trkpt lat="45.9227" lon="4.74486">
        <ele>171</ele>
        <time>2017-11-19T11:16:02Z</time>
      </trkpt>
      <trkpt lat="45.92266" lon="4.74483">
        <ele>171</ele>
        <time>2017-11-19T11:16:03Z</time>
      </trkpt>
      <trkpt lat="45.92258" lon="4.74478">
        <ele>171</ele>
        <time>2017-11-19T11:16:05Z</time>
      </trkpt>
      <trkpt lat="45.92255" lon="4.74476">
        <ele>171</ele>
        <time>2017-11-19T11:16:06Z</time>
      </trkpt>
      <trkpt lat="45.92248" lon="4.74471">
        <ele>171</ele>
        <time>2017-11-19T11:16:08Z</time>
      </trkpt>
      <trkpt lat="45.92245" lon="4.74467">
        <ele>171</ele>
        <time>2017-11-19T11:16:09Z</time>
      </trkpt>
      <trkpt lat="45.92241" lon="4.74461">
        <ele>171</ele>
        <time>2017-11-19T11:16:11Z</time>
      </trkpt>
      <trkpt lat="45.9224" lon="4.74455">
        <ele>171</ele>
        <time>2017-11-19T11:16:12Z</time>
      </trkpt>
      <trkpt lat="45.92239" lon="4.74444">
        <ele>171</ele>
        <time>2017-11-19T11:16:14Z</time>
      </trkpt>
      <trkpt lat="45.9224" lon="4.74439">
        <ele>171</ele>
        <time>2017-11-19T11:16:15Z</time>
      </trkpt>
      <trkpt lat="45.92242" lon="4.74429">
        <ele>171</ele>
        <time>2017-11-19T11:16:17Z</time>
      </trkpt>
      <trkpt lat="45.92243" lon="4.74423">
        <ele>171</ele>
        <time>2017-11-19T11:16:18Z</time>
      </trkpt>
      <trkpt lat="45.92245" lon="4.74417">
        <ele>171</ele>
        <time>2017-11-19T11:16:19Z</time>
      </trkpt>
      <trkpt lat="45.92247" lon="4.74411">
        <ele>171</ele>
        <time>2017-11-19T11:16:20Z</time>
      </trkpt>
      <trkpt lat="45.9225" lon="4.74404">
        <ele>171</ele>
        <time>2017-11-19T11:16:21Z</time>
      </trkpt>
      <trkpt lat="45.92253" lon="4.74397">
        <ele>171</ele>
        <time>2017-11-19T11:16:22Z</time>
      </trkpt>
      <trkpt lat="45.92255" lon="4.7439">
        <ele>171</ele>
        <time>2017-11-19T11:16:23Z</time>
      </trkpt>
      <trkpt lat="45.92258" lon="4.74384">
        <ele>171</ele>
        <time>2017-11-19T11:16:24Z</time>
      </trkpt>
      <trkpt lat="45.9226" lon="4.74379">
        <ele>171</ele>
        <time>2017-11-19T11:16:25Z</time>
      </trkpt>
      <trkpt lat="45.92264" lon="4.74373">
        <ele>171</ele>
        <time>2017-11-19T11:16:26Z</time>
      </trkpt>
      <trkpt lat="45.92269" lon="4.74362">
        <ele>171</ele>
        <time>2017-11-19T11:16:28Z</time>
      </trkpt>
      <trkpt lat="45.92272" lon="4.74359">
        <ele>171</ele>
        <time>2017-11-19T11:16:29Z</time>
      </trkpt>
      <trkpt lat="45.92276" lon="4.74355">
        <ele>171</ele>
        <time>2017-11-19T11:16:30Z</time>
      </trkpt>
      <trkpt lat="45.9228" lon="4.7435">
        <ele>171</ele>
        <time>2017-11-19T11:16:31Z</time>
      </trkpt>
      <trkpt lat="45.92283" lon="4.74345">
        <ele>171</ele>
        <time>2017-11-19T11:16:32Z</time>
      </trkpt>
      <trkpt lat="45.92287" lon="4.74341">
        <ele>171</ele>
        <time>2017-11-19T11:16:33Z</time>
      </trkpt>
      <trkpt lat="45.92295" lon="4.74334">
        <ele>171</ele>
        <time>2017-11-19T11:16:35Z</time>
      </trkpt>
      <trkpt lat="45.92298" lon="4.74331">
        <ele>170</ele>
        <time>2017-11-19T11:16:36Z</time>
      </trkpt>
      <trkpt lat="45.92303" lon="4.74325">
        <ele>170</ele>
        <time>2017-11-19T11:16:38Z</time>
      </trkpt>
      <trkpt lat="45.92305" lon="4.74322">
        <ele>170</ele>
        <time>2017-11-19T11:16:39Z</time>
      </trkpt>
      <trkpt lat="45.92311" lon="4.74317">
        <ele>170</ele>
        <time>2017-11-19T11:16:41Z</time>
      </trkpt>
      <trkpt lat="45.92314" lon="4.74315">
        <ele>170</ele>
        <time>2017-11-19T11:16:42Z</time>
      </trkpt>
      <trkpt lat="45.92321" lon="4.74309">
        <ele>170</ele>
        <time>2017-11-19T11:16:44Z</time>
      </trkpt>
      <trkpt lat="45.92326" lon="4.74306">
        <ele>170</ele>
        <time>2017-11-19T11:16:45Z</time>
      </trkpt>
      <trkpt lat="45.92334" lon="4.74302">
        <ele>170</ele>
        <time>2017-11-19T11:16:47Z</time>
      </trkpt>
      <trkpt lat="45.92339" lon="4.743">
        <ele>170</ele>
        <time>2017-11-19T11:16:48Z</time>
      </trkpt>
      <trkpt lat="45.92347" lon="4.74301">
        <ele>170</ele>
        <time>2017-11-19T11:16:50Z</time>
      </trkpt>
      <trkpt lat="45.92349" lon="4.74303">
        <ele>170</ele>
        <time>2017-11-19T11:16:51Z</time>
      </trkpt>
      <trkpt lat="45.92357" lon="4.74305">
        <ele>170</ele>
        <time>2017-11-19T11:16:53Z</time>
      </trkpt>
      <trkpt lat="45.92361" lon="4.74307">
        <ele>170</ele>
        <time>2017-11-19T11:16:54Z</time>
      </trkpt>
      <trkpt lat="45.92366" lon="4.7431">
        <ele>170</ele>
        <time>2017-11-19T11:16:55Z</time>
      </trkpt>
      <trkpt lat="45.9237" lon="4.74312">
        <ele>170</ele>
        <time>2017-11-19T11:16:56Z</time>
      </trkpt>
      <trkpt lat="45.92378" lon="4.74316">
        <ele>170</ele>
        <time>2017-11-19T11:16:58Z</time>
      </trkpt>
      <trkpt lat="45.92381" lon="4.74317">
        <ele>170</ele>
        <time>2017-11-19T11:16:59Z</time>
      </trkpt>
      <trkpt lat="45.92387" lon="4.74318">
        <ele>170</ele>
        <time>2017-11-19T11:17:01Z</time>
      </trkpt>
      <trkpt lat="45.9239" lon="4.74319">
        <ele>170</ele>
        <time>2017-11-19T11:17:02Z</time>
      </trkpt>
      <trkpt lat="45.92397" lon="4.74316">
        <ele>170</ele>
        <time>2017-11-19T11:17:04Z</time>
      </trkpt>
      <trkpt lat="45.92401" lon="4.74314">
        <ele>170</ele>
        <time>2017-11-19T11:17:05Z</time>
      </trkpt>
      <trkpt lat="45.92406" lon="4.74306">
        <ele>170</ele>
        <time>2017-11-19T11:17:07Z</time>
      </trkpt>
      <trkpt lat="45.92409" lon="4.74302">
        <ele>170</ele>
        <time>2017-11-19T11:17:08Z</time>
      </trkpt>
      <trkpt lat="45.92413" lon="4.74293">
        <ele>170</ele>
        <time>2017-11-19T11:17:10Z</time>
      </trkpt>
      <trkpt lat="45.92415" lon="4.74289">
        <ele>170</ele>
        <time>2017-11-19T11:17:11Z</time>
      </trkpt>
      <trkpt lat="45.92421" lon="4.74279">
        <ele>170</ele>
        <time>2017-11-19T11:17:13Z</time>
      </trkpt>
      <trkpt lat="45.92424" lon="4.74274">
        <ele>170</ele>
        <time>2017-11-19T11:17:14Z</time>
      </trkpt>
      <trkpt lat="45.9243" lon="4.74266">
        <ele>170</ele>
        <time>2017-11-19T11:17:16Z</time>
      </trkpt>
      <trkpt lat="45.92432" lon="4.74262">
        <ele>170</ele>
        <time>2017-11-19T11:17:17Z</time>
      </trkpt>
      <trkpt lat="45.92437" lon="4.74254">
        <ele>170</ele>
        <time>2017-11-19T11:17:19Z</time>
      </trkpt>
      <trkpt lat="45.92439" lon="4.7425">
        <ele>171</ele>
        <time>2017-11-19T11:17:20Z</time>
      </trkpt>
      <trkpt lat="45.92443" lon="4.74242">
        <ele>171</ele>
        <time>2017-11-19T11:17:22Z</time>
      </trkpt>
      <trkpt lat="45.92444" lon="4.74238">
        <ele>171</ele>
        <time>2017-11-19T11:17:23Z</time>
      </trkpt>
      <trkpt lat="45.92448" lon="4.74228">
        <ele>171</ele>
        <time>2017-11-19T11:17:25Z</time>
      </trkpt>
      <trkpt lat="45.9245" lon="4.74223">
        <ele>171</ele>
        <time>2017-11-19T11:17:26Z</time>
      </trkpt>
      <trkpt lat="45.92454" lon="4.74213">
        <ele>171</ele>
        <time>2017-11-19T11:17:28Z</time>
      </trkpt>
      <trkpt lat="45.92456" lon="4.74209">
        <ele>171</ele>
        <time>2017-11-19T11:17:29Z</time>
      </trkpt>
      <trkpt lat="45.9246" lon="4.74199">
        <ele>171</ele>
        <time>2017-11-19T11:17:31Z</time>
      </trkpt>
      <trkpt lat="45.92462" lon="4.74193">
        <ele>171</ele>
        <time>2017-11-19T11:17:32Z</time>
      </trkpt>
      <trkpt lat="45.92465" lon="4.74182">
        <ele>171</ele>
        <time>2017-11-19T11:17:34Z</time>
      </trkpt>
      <trkpt lat="45.92467" lon="4.74177">
        <ele>171</ele>
        <time>2017-11-19T11:17:35Z</time>
      </trkpt>
      <trkpt lat="45.92469" lon="4.74167">
        <ele>171</ele>
        <time>2017-11-19T11:17:37Z</time>
      </trkpt>
      <trkpt lat="45.92471" lon="4.74163">
        <ele>171</ele>
        <time>2017-11-19T11:17:38Z</time>
      </trkpt>
      <trkpt lat="45.92474" lon="4.74152">
        <ele>171</ele>
        <time>2017-11-19T11:17:40Z</time>
      </trkpt>
      <trkpt lat="45.92475" lon="4.74147">
        <ele>171</ele>
        <time>2017-11-19T11:17:41Z</time>
      </trkpt>
      <trkpt lat="45.92479" lon="4.74136">
        <ele>171</ele>
        <time>2017-11-19T11:17:43Z</time>
      </trkpt>
      <trkpt lat="45.92481" lon="4.7413">
        <ele>171</ele>
        <time>2017-11-19T11:17:44Z</time>
      </trkpt>
      <trkpt lat="45.92487" lon="4.7412">
        <ele>172</ele>
        <time>2017-11-19T11:17:46Z</time>
      </trkpt>
      <trkpt lat="45.92489" lon="4.74115">
        <ele>172</ele>
        <time>2017-11-19T11:17:47Z</time>
      </trkpt>
      <trkpt lat="45.92494" lon="4.74106">
        <ele>172</ele>
        <time>2017-11-19T11:17:49Z</time>
      </trkpt>
      <trkpt lat="45.92497" lon="4.74102">
        <ele>172</ele>
        <time>2017-11-19T11:17:50Z</time>
      </trkpt>
      <trkpt lat="45.92503" lon="4.74094">
        <ele>172</ele>
        <time>2017-11-19T11:17:52Z</time>
      </trkpt>
      <trkpt lat="45.92507" lon="4.74088">
        <ele>172</ele>
        <time>2017-11-19T11:17:53Z</time>
      </trkpt>
      <trkpt lat="45.9251" lon="4.74084">
        <ele>172</ele>
        <time>2017-11-19T11:17:54Z</time>
      </trkpt>
      <trkpt lat="45.92513" lon="4.74079">
        <ele>172</ele>
        <time>2017-11-19T11:17:55Z</time>
      </trkpt>
      <trkpt lat="45.92517" lon="4.74074">
        <ele>172</ele>
        <time>2017-11-19T11:17:56Z</time>
      </trkpt>
      <trkpt lat="45.9252" lon="4.7407">
        <ele>172</ele>
        <time>2017-11-19T11:17:57Z</time>
      </trkpt>
      <trkpt lat="45.92526" lon="4.74062">
        <ele>172</ele>
        <time>2017-11-19T11:17:59Z</time>
      </trkpt>
      <trkpt lat="45.92529" lon="4.74057">
        <ele>172</ele>
        <time>2017-11-19T11:18:00Z</time>
      </trkpt>
      <trkpt lat="45.92532" lon="4.74052">
        <ele>172</ele>
        <time>2017-11-19T11:18:01Z</time>
      </trkpt>
      <trkpt lat="45.92537" lon="4.74046">
        <ele>172</ele>
        <time>2017-11-19T11:18:02Z</time>
      </trkpt>
      <trkpt lat="45.9254" lon="4.74041">
        <ele>172</ele>
        <time>2017-11-19T11:18:03Z</time>
      </trkpt>
      <trkpt lat="45.92543" lon="4.74036">
        <ele>172</ele>
        <time>2017-11-19T11:18:04Z</time>
      </trkpt>
      <trkpt lat="45.92546" lon="4.74031">
        <ele>172</ele>
        <time>2017-11-19T11:18:05Z</time>
      </trkpt>
      <trkpt lat="45.92549" lon="4.74026">
        <ele>172</ele>
        <time>2017-11-19T11:18:06Z</time>
      </trkpt>
      <trkpt lat="45.92554" lon="4.74016">
        <ele>172</ele>
        <time>2017-11-19T11:18:08Z</time>
      </trkpt>
      <trkpt lat="45.92554" lon="4.7401">
        <ele>172</ele>
        <time>2017-11-19T11:18:09Z</time>
      </trkpt>
      <trkpt lat="45.92551" lon="4.74001">
        <ele>172</ele>
        <time>2017-11-19T11:18:11Z</time>
      </trkpt>
      <trkpt lat="45.92548" lon="4.73998">
        <ele>172</ele>
        <time>2017-11-19T11:18:12Z</time>
      </trkpt>
      <trkpt lat="45.92541" lon="4.73992">
        <ele>172</ele>
        <time>2017-11-19T11:18:14Z</time>
      </trkpt>
      <trkpt lat="45.92537" lon="4.73989">
        <ele>172</ele>
        <time>2017-11-19T11:18:15Z</time>
      </trkpt>
      <trkpt lat="45.92531" lon="4.73985">
        <ele>172</ele>
        <time>2017-11-19T11:18:17Z</time>
      </trkpt>
      <trkpt lat="45.92528" lon="4.73983">
        <ele>172</ele>
        <time>2017-11-19T11:18:18Z</time>
      </trkpt>
      <trkpt lat="45.92521" lon="4.7398">
        <ele>172</ele>
        <time>2017-11-19T11:18:21Z</time>
      </trkpt>
      <trkpt lat="45.92519" lon="4.73979">
        <ele>172</ele>
        <time>2017-11-19T11:18:22Z</time>
      </trkpt>
      <trkpt lat="45.92511" lon="4.73976">
        <ele>172</ele>
        <time>2017-11-19T11:18:25Z</time>
      </trkpt>
      <trkpt lat="45.92508" lon="4.73975">
        <ele>172</ele>
        <time>2017-11-19T11:18:26Z</time>
      </trkpt>
      <trkpt lat="45.92501" lon="4.73971">
        <ele>172</ele>
        <time>2017-11-19T11:18:28Z</time>
      </trkpt>
      <trkpt lat="45.92497" lon="4.73968">
        <ele>172</ele>
        <time>2017-11-19T11:18:29Z</time>
      </trkpt>
      <trkpt lat="45.92493" lon="4.73966">
        <ele>172</ele>
        <time>2017-11-19T11:18:30Z</time>
      </trkpt>
      <trkpt lat="45.92488" lon="4.73964">
        <ele>172</ele>
        <time>2017-11-19T11:18:31Z</time>
      </trkpt>
      <trkpt lat="45.92484" lon="4.73962">
        <ele>172</ele>
        <time>2017-11-19T11:18:32Z</time>
      </trkpt>
      <trkpt lat="45.92479" lon="4.7396">
        <ele>172</ele>
        <time>2017-11-19T11:18:33Z</time>
      </trkpt>
      <trkpt lat="45.92473" lon="4.73955">
        <ele>172</ele>
        <time>2017-11-19T11:18:35Z</time>
      </trkpt>
      <trkpt lat="45.92469" lon="4.73953">
        <ele>172</ele>
        <time>2017-11-19T11:18:36Z</time>
      </trkpt>
      <trkpt lat="45.92465" lon="4.73942">
        <ele>172</ele>
        <time>2017-11-19T11:18:38Z</time>
      </trkpt>
      <trkpt lat="45.92463" lon="4.73938">
        <ele>172</ele>
        <time>2017-11-19T11:18:39Z</time>
      </trkpt>
      <trkpt lat="45.92462" lon="4.73925">
        <ele>172</ele>
        <time>2017-11-19T11:18:41Z</time>
      </trkpt>
      <trkpt lat="45.92462" lon="4.73919">
        <ele>172</ele>
        <time>2017-11-19T11:18:42Z</time>
      </trkpt>
      <trkpt lat="45.92462" lon="4.73906">
        <ele>171</ele>
        <time>2017-11-19T11:18:44Z</time>
      </trkpt>
      <trkpt lat="45.92462" lon="4.73899">
        <ele>171</ele>
        <time>2017-11-19T11:18:45Z</time>
      </trkpt>
      <trkpt lat="45.92462" lon="4.73892">
        <ele>171</ele>
        <time>2017-11-19T11:18:46Z</time>
      </trkpt>
      <trkpt lat="45.92462" lon="4.73886">
        <ele>171</ele>
        <time>2017-11-19T11:18:47Z</time>
      </trkpt>
      <trkpt lat="45.92463" lon="4.73874">
        <ele>171</ele>
        <time>2017-11-19T11:18:49Z</time>
      </trkpt>
      <trkpt lat="45.92463" lon="4.73868">
        <ele>171</ele>
        <time>2017-11-19T11:18:50Z</time>
      </trkpt>
      <trkpt lat="45.92463" lon="4.73862">
        <ele>171</ele>
        <time>2017-11-19T11:18:51Z</time>
      </trkpt>
      <trkpt lat="45.92463" lon="4.73855">
        <ele>171</ele>
        <time>2017-11-19T11:18:52Z</time>
      </trkpt>
      <trkpt lat="45.92463" lon="4.73842">
        <ele>171</ele>
        <time>2017-11-19T11:18:54Z</time>
      </trkpt>
      <trkpt lat="45.92463" lon="4.73836">
        <ele>171</ele>
        <time>2017-11-19T11:18:55Z</time>
      </trkpt>
      <trkpt lat="45.92463" lon="4.7383">
        <ele>172</ele>
        <time>2017-11-19T11:18:56Z</time>
      </trkpt>
      <trkpt lat="45.92463" lon="4.73822">
        <ele>172</ele>
        <time>2017-11-19T11:18:57Z</time>
      </trkpt>
      <trkpt lat="45.92464" lon="4.73815">
        <ele>172</ele>
        <time>2017-11-19T11:18:58Z</time>
      </trkpt>
      <trkpt lat="45.92464" lon="4.73808">
        <ele>172</ele>
        <time>2017-11-19T11:18:59Z</time>
      </trkpt>
      <trkpt lat="45.92463" lon="4.73801">
        <ele>172</ele>
        <time>2017-11-19T11:19:00Z</time>
      </trkpt>
      <trkpt lat="45.92463" lon="4.73794">
        <ele>172</ele>
        <time>2017-11-19T11:19:01Z</time>
      </trkpt>
      <trkpt lat="45.92464" lon="4.73781">
        <ele>172</ele>
        <time>2017-11-19T11:19:03Z</time>
      </trkpt>
      <trkpt lat="45.92465" lon="4.73776">
        <ele>173</ele>
        <time>2017-11-19T11:19:04Z</time>
      </trkpt>
      <trkpt lat="45.92465" lon="4.73765">
        <ele>173</ele>
        <time>2017-11-19T11:19:06Z</time>
      </trkpt>
      <trkpt lat="45.92464" lon="4.73761">
        <ele>173</ele>
        <time>2017-11-19T11:19:07Z</time>
      </trkpt>
      <trkpt lat="45.92466" lon="4.7375">
        <ele>174</ele>
        <time>2017-11-19T11:19:09Z</time>
      </trkpt>
      <trkpt lat="45.92465" lon="4.73745">
        <ele>174</ele>
        <time>2017-11-19T11:19:10Z</time>
      </trkpt>
      <trkpt lat="45.92466" lon="4.73736">
        <ele>174</ele>
        <time>2017-11-19T11:19:12Z</time>
      </trkpt>
      <trkpt lat="45.92466" lon="4.73731">
        <ele>174</ele>
        <time>2017-11-19T11:19:13Z</time>
      </trkpt>
      <trkpt lat="45.92467" lon="4.73719">
        <ele>174</ele>
        <time>2017-11-19T11:19:16Z</time>
      </trkpt>
      <trkpt lat="45.92466" lon="4.73716">
        <ele>174</ele>
        <time>2017-11-19T11:19:17Z</time>
      </trkpt>
      <trkpt lat="45.92459" lon="4.73714">
        <ele>174</ele>
        <time>2017-11-19T11:19:53.219Z</time>
      </trkpt>
    </trkseg>
  </trk>
</gpx>